[[{"header":{"parameterUnit":"m.s-1","parameterCategory":1,"la1":31.0,"la2":29.5877,"lo1":-88.7671,"lo2":-86.6584,"dy":0.0162,"dx":0.0185,"nx":115,"ny":88,"refTime":"2023-11-04T06:00:00:Z","depth":0,"parameterNumber":2,"parameterNumberName":"U-component_of_WINDS"},"data":[0.0,0.0,0.0,0.0,0.0,0.0,0.0,0.0,0.0,0.0,0.0,0.0,0.0,0.0,0.0,0.0,0.0,0.0,0.0,0.0,0.0,0.0,0.0,0.0,0.0,0.0,0.0,0.0,0.0,0.0,0.0,0.0,0.0,0.0,0.0,0.0,0.0,0.0,0.0,0.0,0.0,0.0,0.0,0.0,0.0,0.0,0.0,0.0,0.0,0.0,0.0,0.0,0.0,0.0,0.0,0.0,0.0,0.0,0.0,0.0,0.0,0.0,0.0,0.0,0.0,0.0,0.0,0.0,0.0,0.0,0.0,0.0,0.0,0.0,0.0,0.0,0.0,0.0,0.0,0.0,0.0,0.0,0.0,0.0,0.0,0.0,0.0,0.0,0.0,0.0,0.0,0.0,0.0,0.0,0.0,0.0,0.0,0.0,0.0,0.0,0.0,0.0,0.0,0.0,0.0,0.0,0.0,0.0,0.0,0.0,0.0,0.0,0.0,0.0,0.0,0.0,0.0,0.0,0.0,0.0,0.0,0.0,0.0,0.0,0.0,0.0,0.0,0.0,0.0,0.0,0.0,0.0,0.0,0.0,0.0,0.0,0.0,0.0,0.0,0.0,0.0,0.0,0.0,0.0,0.0,0.0,0.0,0.0,0.0,0.0,0.0,0.0,0.0,0.0,0.0,0.0,0.0,0.0,0.0,0.0,0.0,0.0,0.0,0.0,0.0,0.0,0.0,0.0,0.0,0.0,0.0,0.0,0.0,0.0,0.0,0.0,0.0,0.0,0.0,0.0,0.0,0.0,0.0,0.0,0.0,0.0,0.0,0.0,0.0,0.0,0.0,0.0,0.0,0.0,0.0,0.0,0.0,0.0,0.0,0.0,0.0,0.0,0.0,0.0,0.0,0.0,0.0,0.0,0.0,0.0,0.0,0.0,0.0,0.0,0.0,0.0,0.0,0.0,0.0,0.0,0.0,0.0,0.0,0.0,0.0,0.0,0.0,0.0,0.0,0.0,0.0,0.0,0.0,0.0,0.0,0.0,0.0,0.0,0.0,0.0,0.0,0.0,0.0,0.0,0.0,0.0,0.0,0.0,0.0,0.0,0.0,0.0,0.0,0.0,0.0,0.0,0.0,0.0,0.0,0.0,0.0,0.0,0.0,0.0,0.0,0.0,0.0,0.0,0.0,0.0,0.0,0.0,0.0,0.0,0.0,0.0,0.0,0.0,0.0,0.0,0.0,0.0,0.0,0.0,0.0,0.0,0.0,0.0,0.0,0.0,0.0,0.0,0.0,0.0,0.0,0.0,0.0,0.0,0.0,0.0,0.0,0.0,0.0,0.0,0.0,0.0,0.0,0.0,0.0,0.0,0.0,0.0,0.0,0.0,0.0,0.0,0.0,0.0,0.0,0.0,0.0,0.0,0.0,0.0,0.0,0.0,0.0,0.0,0.0,0.0,0.0,0.0,0.0,0.0,0.0,0.0,0.0,0.0,0.0,0.0,0.0,0.0,0.0,0.0,0.0,0.0,0.0,0.0,0.0,0.0,0.0,0.0,0.0,0.0,0.0,0.0,0.0,0.0,0.0,0.0,0.0,0.0,0.0,0.0,0.0,0.0,0.0,0.0,0.0,0.0,0.0,0.0,0.0,0.0,0.0,0.0,0.0,0.0,0.0,0.0,0.0,0.0,0.0,0.0,0.0,0.0,0.0,0.0,0.0,0.0,0.0,0.0,0.0,0.0,0.0,0.0,0.0,0.0,0.0,0.0,0.0,0.0,0.0,0.0,0.0,0.0,0.0,0.0,0.0,0.0,0.0,0.0,0.0,0.0,0.0,0.0,0.0,0.0,0.0,0.0,0.0,0.0,0.0,0.0,0.0,0.0,0.0,0.0,0.0,0.0,0.0,0.0,0.0,0.0,0.0,0.0,0.0,0.0,0.0,0.0,0.0,0.0,0.0,0.0,0.0,0.0,0.0,0.0,0.0,0.0,0.0,0.0,0.0,0.0,0.0,0.0,0.0,0.0,0.0,0.0,0.0,0.0,0.0,0.0,0.0,0.0,0.0,0.0,0.0,0.0,0.0,0.0,0.0,0.0,0.0,0.0,0.0,0.0,0.0,0.0,0.0,0.0,0.0,0.0,0.0,0.0,0.0,0.0,0.0,0.0,0.0,0.0,0.0,0.0,0.0,0.0,0.0,0.0,0.0,0.0,0.0,0.0,0.0,0.0,0.0,0.0,0.0,0.0,0.0,0.0,0.0,0.0,0.0,0.0,0.0,0.0,0.0,0.0,0.0,0.0,0.0,0.0,0.0,0.0,0.0,0.0,0.0,0.0,0.0,0.0,0.0,0.0,0.0,0.0,0.0,0.0,0.0,0.0,0.0,0.0,0.0,0.0,0.0,0.0,0.0,0.0,0.0,0.0,0.0,0.0,0.0,0.0,0.0,0.0,0.0,0.0,0.0,0.0,0.0,0.0,0.0,0.0,0.0,0.0,0.0,0.0,0.0,0.0,0.0,0.0,0.0,0.0,0.0,0.0,0.0,0.0,0.0,0.0,0.0,0.0,0.0,0.0,0.0,0.0,0.0,0.0,0.0,0.0,0.0,0.0,0.0,0.0,0.0,0.0,0.0,0.0,0.0,0.0,0.0,0.0,0.0,0.0,0.0,0.0,0.0,0.0,0.0,0.0,0.0,0.0,0.0,0.0,0.0,0.0,0.0,0.0,0.0,0.0,0.0,0.0,0.0,0.0,0.0,0.0,0.0,0.0,0.0,0.0,0.0,0.0,0.0,0.0,0.0,0.0,0.0,0.0,0.0,0.0,0.0,0.0,0.0,0.0,0.0,0.0,0.0,0.0,0.0,0.0,0.0,0.0,0.0,0.0,0.0,0.0,0.0,0.0,0.0,0.0,0.0,0.0,0.0,0.0,0.0,0.0,0.0,0.0,0.0,0.0,0.0,0.0,0.0,0.0,0.0,0.0,0.0,0.0,0.0,0.0,0.0,0.0,0.0,0.0,0.0,0.0,0.0,0.0,0.0,0.0,0.0,0.0,0.0,0.0,0.0,0.0,0.0,0.0,0.0,0.0,0.0,0.0,0.0,0.0,0.0,0.0,0.0,0.0,0.0,0.0,0.0,0.0,0.0,0.0,0.0,0.0,0.0,0.0,0.0,0.0,0.0,0.0,0.0,0.0,0.0,0.0,0.0,0.0,0.0,0.0,0.0,0.0,0.0,0.0,0.0,0.0,0.0,0.0,0.0,0.0,0.0,0.0,0.0,0.0,0.0,0.0,0.0,0.0,0.0,0.0,0.0,0.0,0.0,0.0,0.0,0.0,0.0,0.0,0.0,0.0,0.0,0.0,0.0,0.0,0.0,0.0,0.0,0.0,0.0,0.0,0.0,0.0,0.0,0.0,0.0,0.0,0.0,0.0,0.0,0.0,0.0,0.0,0.0,0.0,0.0,0.0,0.0,0.0,0.0,0.0,0.0,0.0,0.0,0.0,0.0,0.0,0.0,0.0,0.0,0.0,0.0,0.0,0.0,0.0,0.0,0.0,0.0,0.0,0.0,0.0,0.0,0.0,0.0,0.0,0.0,0.0,0.0,0.0,0.0,0.0,0.0,0.0,0.0,0.0,0.0,0.0,0.0,0.0,0.0,0.0,0.0,0.0,0.0,0.0,0.0,0.0,0.0,0.0,0.0,0.0,0.0,0.0,0.0,0.0,0.0,0.0,0.0,0.0,0.0,0.0,0.0,0.0,0.0,0.0,0.0,0.0,0.0,0.0,0.0,0.0,0.0,0.0,0.0,0.0,0.0,0.0,0.0,0.0,0.0,0.0,0.0,0.0,0.0,0.0,0.0,0.0,0.0,0.0,0.0,0.0,0.0,0.0,0.0,0.0,0.0,0.0,0.0,0.0,0.0,0.0,0.0,0.0,0.0,0.0,0.0,0.0,0.0,0.0,0.0,0.0,0.0,0.0,0.0,0.0,0.0,0.0,0.0,0.0,0.0,0.0,0.0,0.0,0.0,0.0,0.0,0.0,0.0,0.0,0.0,0.0,0.0,0.0,0.0,0.0,0.0,0.0,0.0,0.0,0.0,0.0,0.0,0.0,0.0,0.0,0.0,0.0,0.0,0.0,0.0,0.0,0.0,0.0,0.0,0.0,0.0,0.0,0.0,0.0,0.0,0.0,0.0,0.0,0.0,0.0,0.0,0.0,0.0,0.0,0.0,0.0,0.0,0.0,0.0,0.0,0.0,0.0,0.0,0.0,-3.5791,0.0,0.0,0.0,0.0,0.0,0.0,0.0,0.0,0.0,0.0,0.0,0.0,0.0,0.0,0.0,0.0,0.0,0.0,0.0,0.0,0.0,0.0,0.0,0.0,0.0,0.0,0.0,0.0,0.0,0.0,0.0,0.0,0.0,0.0,0.0,0.0,0.0,0.0,0.0,0.0,0.0,0.0,0.0,0.0,0.0,0.0,0.0,0.0,0.0,0.0,0.0,0.0,0.0,0.0,0.0,0.0,0.0,0.0,0.0,0.0,0.0,0.0,0.0,0.0,0.0,0.0,0.0,0.0,0.0,0.0,0.0,0.0,0.0,0.0,0.0,0.0,0.0,0.0,0.0,0.0,0.0,0.0,0.0,0.0,0.0,0.0,0.0,0.0,0.0,0.0,0.0,0.0,0.0,0.0,0.0,0.0,0.0,0.0,0.0,0.0,0.0,0.0,0.0,0.0,0.0,0.0,0.0,0.0,0.0,0.0,-3.5864,-3.5853,-3.5819,-3.5807,-3.5795,0.0,0.0,0.0,0.0,0.0,0.0,0.0,0.0,0.0,0.0,0.0,0.0,0.0,0.0,0.0,0.0,0.0,0.0,0.0,0.0,0.0,0.0,0.0,0.0,0.0,0.0,0.0,0.0,0.0,0.0,0.0,0.0,0.0,0.0,0.0,0.0,0.0,0.0,0.0,0.0,0.0,0.0,0.0,0.0,0.0,0.0,0.0,0.0,0.0,0.0,0.0,0.0,0.0,0.0,0.0,0.0,0.0,0.0,0.0,0.0,0.0,0.0,0.0,0.0,0.0,0.0,0.0,0.0,0.0,0.0,0.0,0.0,0.0,0.0,0.0,0.0,0.0,0.0,0.0,0.0,0.0,0.0,0.0,0.0,0.0,0.0,0.0,0.0,0.0,0.0,0.0,0.0,0.0,0.0,0.0,0.0,0.0,0.0,0.0,0.0,0.0,0.0,0.0,0.0,0.0,0.0,0.0,0.0,0.0,0.0,0.0,0.0,-3.5864,-3.5823,-3.5803,0.0,0.0,0.0,0.0,0.0,0.0,0.0,0.0,0.0,0.0,0.0,0.0,0.0,0.0,0.0,0.0,0.0,0.0,0.0,0.0,0.0,0.0,0.0,0.0,0.0,0.0,0.0,0.0,0.0,0.0,0.0,0.0,0.0,0.0,0.0,0.0,0.0,0.0,0.0,0.0,0.0,0.0,0.0,0.0,0.0,0.0,0.0,0.0,0.0,0.0,0.0,0.0,0.0,0.0,0.0,0.0,0.0,0.0,0.0,0.0,0.0,0.0,0.0,0.0,0.0,0.0,0.0,0.0,0.0,0.0,0.0,0.0,0.0,0.0,0.0,0.0,0.0,0.0,0.0,0.0,0.0,0.0,0.0,0.0,0.0,0.0,0.0,0.0,0.0,0.0,0.0,0.0,0.0,0.0,0.0,0.0,0.0,0.0,0.0,0.0,0.0,0.0,0.0,0.0,0.0,0.0,0.0,0.0,0.0,0.0,-3.5885,-3.5882,-3.5898,0.0,-3.5803,0.0,0.0,0.0,0.0,0.0,0.0,0.0,0.0,0.0,0.0,0.0,0.0,0.0,0.0,0.0,0.0,0.0,0.0,0.0,0.0,0.0,0.0,0.0,0.0,0.0,0.0,0.0,0.0,0.0,0.0,0.0,0.0,0.0,0.0,0.0,0.0,0.0,0.0,0.0,0.0,0.0,0.0,0.0,0.0,0.0,0.0,0.0,0.0,0.0,0.0,0.0,0.0,0.0,0.0,0.0,0.0,0.0,0.0,0.0,0.0,0.0,0.0,0.0,0.0,0.0,0.0,0.0,0.0,0.0,0.0,0.0,0.0,0.0,0.0,0.0,0.0,0.0,0.0,0.0,0.0,0.0,0.0,0.0,0.0,0.0,0.0,0.0,0.0,0.0,0.0,0.0,0.0,0.0,0.0,0.0,0.0,0.0,0.0,0.0,0.0,0.0,0.0,0.0,0.0,0.0,0.0,0.0,0.0,0.0,0.0,-3.5888,-3.5898,-3.5856,-3.5834,0.0,0.0,0.0,0.0,0.0,0.0,0.0,0.0,0.0,0.0,0.0,0.0,0.0,0.0,0.0,0.0,0.0,0.0,0.0,0.0,0.0,0.0,0.0,0.0,0.0,0.0,0.0,0.0,0.0,0.0,0.0,0.0,0.0,0.0,0.0,0.0,0.0,0.0,0.0,0.0,0.0,0.0,0.0,0.0,0.0,0.0,0.0,0.0,0.0,0.0,0.0,0.0,0.0,0.0,0.0,0.0,0.0,0.0,0.0,0.0,0.0,0.0,0.0,0.0,0.0,0.0,0.0,0.0,0.0,0.0,0.0,0.0,0.0,0.0,0.0,0.0,0.0,0.0,0.0,0.0,0.0,0.0,0.0,0.0,0.0,0.0,0.0,0.0,0.0,0.0,0.0,0.0,0.0,0.0,0.0,0.0,0.0,0.0,0.0,0.0,0.0,0.0,0.0,0.0,0.0,0.0,0.0,0.0,0.0,0.0,-3.5889,-3.5886,-3.5891,-3.5859,-3.5834,-3.5838,0.0,0.0,0.0,0.0,0.0,0.0,0.0,0.0,0.0,0.0,0.0,0.0,0.0,0.0,0.0,0.0,0.0,0.0,0.0,0.0,0.0,0.0,0.0,0.0,0.0,0.0,0.0,0.0,0.0,0.0,0.0,0.0,0.0,0.0,0.0,0.0,0.0,0.0,0.0,0.0,0.0,0.0,0.0,0.0,0.0,0.0,0.0,0.0,0.0,0.0,0.0,0.0,0.0,0.0,0.0,0.0,0.0,0.0,0.0,0.0,0.0,0.0,0.0,0.0,0.0,0.0,0.0,0.0,0.0,0.0,0.0,0.0,0.0,0.0,0.0,0.0,0.0,0.0,0.0,0.0,0.0,0.0,0.0,0.0,0.0,0.0,0.0,0.0,0.0,0.0,0.0,0.0,0.0,0.0,0.0,0.0,0.0,0.0,0.0,0.0,0.0,0.0,0.0,0.0,0.0,0.0,0.0,0.0,-3.5889,-3.5889,-3.5889,-3.5889,-3.5898,-3.5882,0.0,0.0,0.0,0.0,0.0,0.0,0.0,0.0,0.0,0.0,0.0,0.0,0.0,0.0,0.0,0.0,0.0,0.0,0.0,0.0,0.0,0.0,0.0,0.0,0.0,0.0,0.0,0.0,0.0,0.0,0.0,0.0,0.0,0.0,0.0,0.0,0.0,0.0,0.0,0.0,0.0,0.0,0.0,0.0,0.0,0.0,0.0,0.0,0.0,0.0,0.0,0.0,0.0,0.0,0.0,0.0,0.0,0.0,0.0,0.0,0.0,0.0,0.0,0.0,0.0,0.0,0.0,0.0,0.0,0.0,0.0,0.0,0.0,0.0,0.0,0.0,0.0,0.0,0.0,0.0,0.0,0.0,0.0,0.0,0.0,0.0,0.0,0.0,0.0,0.0,0.0,0.0,0.0,0.0,0.0,0.0,0.0,0.0,0.0,0.0,0.0,0.0,0.0,0.0,0.0,0.0,0.0,0.0,0.0,-3.5883,-3.5894,-3.5889,-3.5889,-3.5888,-3.5892,0.0,0.0,0.0,0.0,0.0,0.0,0.0,0.0,0.0,0.0,0.0,0.0,0.0,0.0,0.0,0.0,0.0,0.0,0.0,0.0,0.0,0.0,0.0,0.0,0.0,0.0,0.0,0.0,0.0,0.0,0.0,0.0,0.0,0.0,0.0,0.0,0.0,0.0,0.0,0.0,0.0,0.0,0.0,0.0,0.0,0.0,0.0,0.0,0.0,0.0,0.0,0.0,0.0,0.0,0.0,0.0,0.0,0.0,0.0,0.0,0.0,0.0,0.0,0.0,0.0,0.0,0.0,0.0,0.0,0.0,0.0,0.0,0.0,0.0,0.0,0.0,0.0,0.0,0.0,0.0,0.0,0.0,0.0,0.0,0.0,0.0,0.0,0.0,0.0,0.0,0.0,0.0,0.0,0.0,0.0,0.0,0.0,0.0,0.0,0.0,0.0,0.0,0.0,0.0,0.0,0.0,0.0,0.0,0.0,-3.5895,0.0,-3.5912,-3.5883,-3.5889,-3.5891,0.0,0.0,0.0,0.0,0.0,0.0,0.0,0.0,0.0,0.0,0.0,0.0,0.0,0.0,0.0,0.0,0.0,0.0,0.0,0.0,0.0,0.0,0.0,0.0,0.0,0.0,0.0,0.0,0.0,0.0,0.0,0.0,0.0,0.0,0.0,0.0,0.0,0.0,0.0,0.0,0.0,0.0,0.0,0.0,0.0,0.0,0.0,0.0,0.0,0.0,0.0,0.0,0.0,0.0,0.0,0.0,0.0,0.0,0.0,0.0,0.0,0.0,0.0,0.0,0.0,0.0,0.0,0.0,0.0,0.0,0.0,0.0,0.0,0.0,0.0,0.0,0.0,0.0,0.0,0.0,0.0,0.0,0.0,0.0,0.0,0.0,0.0,0.0,0.0,0.0,0.0,0.0,0.0,0.0,0.0,0.0,0.0,0.0,0.0,0.0,0.0,0.0,0.0,0.0,0.0,0.0,0.0,0.0,-3.5897,-3.5908,-3.5983,-3.5963,-3.5908,-3.5897,-3.5892,0.0,0.0,0.0,0.0,0.0,0.0,0.0,0.0,0.0,0.0,0.0,0.0,0.0,0.0,0.0,0.0,0.0,0.0,0.0,0.0,0.0,0.0,0.0,0.0,0.0,0.0,0.0,0.0,0.0,0.0,0.0,0.0,0.0,0.0,0.0,0.0,0.0,0.0,0.0,0.0,0.0,0.0,0.0,0.0,0.0,0.0,0.0,0.0,0.0,0.0,0.0,0.0,0.0,0.0,0.0,0.0,0.0,0.0,0.0,0.0,0.0,0.0,0.0,0.0,0.0,0.0,0.0,0.0,0.0,0.0,0.0,0.0,0.0,0.0,0.0,0.0,0.0,0.0,0.0,0.0,0.0,0.0,0.0,0.0,0.0,0.0,0.0,0.0,0.0,0.0,0.0,0.0,0.0,0.0,0.0,0.0,0.0,0.0,0.0,0.0,0.0,0.0,0.0,0.0,0.0,0.0,0.0,0.0,0.0,-3.5958,-3.5988,-3.5991,-3.5965,-3.5912,-3.5892,0.0,0.0,0.0,0.0,0.0,0.0,0.0,0.0,0.0,0.0,0.0,0.0,0.0,0.0,0.0,0.0,0.0,0.0,0.0,0.0,0.0,0.0,0.0,0.0,0.0,0.0,0.0,0.0,0.0,0.0,0.0,0.0,0.0,0.0,0.0,0.0,0.0,0.0,0.0,0.0,0.0,0.0,0.0,0.0,0.0,0.0,0.0,0.0,0.0,0.0,0.0,0.0,0.0,0.0,0.0,0.0,0.0,0.0,0.0,0.0,0.0,0.0,0.0,0.0,0.0,0.0,0.0,0.0,0.0,0.0,0.0,0.0,0.0,0.0,0.0,0.0,0.0,0.0,0.0,0.0,0.0,0.0,0.0,0.0,0.0,0.0,0.0,0.0,0.0,0.0,0.0,0.0,0.0,0.0,0.0,0.0,0.0,0.0,0.0,0.0,0.0,0.0,0.0,0.0,0.0,0.0,0.0,0.0,0.0,-3.6484,-3.6472,-3.6492,-3.6484,-3.6411,-3.622,-3.5909,0.0,0.0,0.0,0.0,0.0,0.0,0.0,0.0,0.0,0.0,0.0,0.0,0.0,0.0,0.0,0.0,0.0,0.0,0.0,0.0,0.0,0.0,0.0,0.0,0.0,0.0,0.0,0.0,0.0,0.0,0.0,0.0,0.0,0.0,0.0,0.0,0.0,0.0,0.0,0.0,0.0,0.0,0.0,0.0,0.0,0.0,0.0,0.0,0.0,0.0,0.0,0.0,0.0,0.0,0.0,0.0,0.0,0.0,0.0,0.0,0.0,0.0,0.0,0.0,0.0,0.0,0.0,0.0,0.0,0.0,0.0,0.0,0.0,0.0,0.0,0.0,0.0,0.0,0.0,0.0,0.0,0.0,0.0,0.0,0.0,0.0,0.0,0.0,0.0,0.0,0.0,0.0,0.0,0.0,0.0,0.0,0.0,0.0,0.0,0.0,0.0,0.0,0.0,0.0,0.0,0.0,0.0,0.0,-3.7357,-3.7421,-3.742,-3.737,-3.7241,-3.6813,0.0,0.0,0.0,0.0,0.0,0.0,0.0,0.0,0.0,0.0,0.0,0.0,0.0,0.0,0.0,0.0,0.0,0.0,0.0,0.0,0.0,0.0,0.0,0.0,0.0,0.0,0.0,0.0,0.0,0.0,0.0,0.0,0.0,0.0,0.0,0.0,0.0,0.0,0.0,0.0,0.0,0.0,0.0,0.0,0.0,0.0,0.0,0.0,0.0,0.0,0.0,0.0,0.0,0.0,0.0,0.0,0.0,0.0,0.0,0.0,0.0,0.0,0.0,0.0,0.0,0.0,0.0,0.0,0.0,0.0,0.0,0.0,0.0,0.0,0.0,0.0,0.0,0.0,0.0,0.0,0.0,0.0,0.0,0.0,0.0,0.0,0.0,0.0,0.0,0.0,0.0,0.0,0.0,0.0,0.0,0.0,0.0,0.0,0.0,0.0,0.0,0.0,0.0,0.0,0.0,0.0,0.0,0.0,0.0,-3.824,-3.8885,-3.8923,-3.8274,-3.7603,-3.7144,0.0,0.0,0.0,0.0,0.0,0.0,0.0,0.0,0.0,0.0,0.0,0.0,0.0,0.0,0.0,0.0,0.0,0.0,0.0,0.0,0.0,0.0,0.0,0.0,0.0,0.0,0.0,0.0,0.0,0.0,0.0,0.0,0.0,0.0,0.0,0.0,0.0,0.0,0.0,0.0,0.0,0.0,0.0,0.0,0.0,0.0,0.0,0.0,0.0,0.0,0.0,0.0,0.0,0.0,0.0,0.0,0.0,0.0,0.0,0.0,0.0,0.0,0.0,0.0,0.0,0.0,0.0,0.0,0.0,0.0,0.0,0.0,0.0,0.0,0.0,0.0,0.0,0.0,0.0,0.0,0.0,0.0,0.0,0.0,0.0,0.0,0.0,0.0,0.0,0.0,0.0,0.0,0.0,0.0,0.0,0.0,0.0,0.0,0.0,0.0,0.0,0.0,0.0,0.0,0.0,0.0,0.0,0.0,-3.8062,-3.8554,-3.9764,-4.017,-3.9675,-3.8444,-3.7618,0.0,0.0,0.0,0.0,0.0,0.0,0.0,0.0,0.0,0.0,0.0,0.0,0.0,0.0,0.0,0.0,0.0,0.0,0.0,0.0,0.0,0.0,0.0,0.0,0.0,0.0,0.0,0.0,0.0,0.0,0.0,0.0,0.0,0.0,0.0,0.0,0.0,0.0,0.0,0.0,0.0,0.0,0.0,0.0,0.0,0.0,0.0,0.0,0.0,0.0,0.0,0.0,0.0,0.0,0.0,0.0,0.0,0.0,0.0,0.0,0.0,0.0,0.0,0.0,0.0,0.0,0.0,0.0,0.0,0.0,0.0,0.0,0.0,0.0,0.0,0.0,0.0,0.0,0.0,0.0,0.0,0.0,0.0,0.0,0.0,0.0,0.0,0.0,0.0,0.0,0.0,0.0,0.0,0.0,0.0,0.0,0.0,0.0,0.0,0.0,0.0,0.0,0.0,0.0,0.0,0.0,0.0,0.0,-3.8628,-3.8672,-4.0232,-4.1102,-4.1051,-3.9418,-3.8147,0.0,0.0,0.0,0.0,0.0,0.0,0.0,0.0,0.0,0.0,0.0,0.0,0.0,0.0,0.0,0.0,0.0,0.0,0.0,0.0,0.0,0.0,0.0,0.0,0.0,0.0,0.0,0.0,0.0,0.0,0.0,0.0,0.0,0.0,0.0,0.0,0.0,0.0,0.0,0.0,0.0,0.0,0.0,0.0,0.0,0.0,0.0,0.0,0.0,0.0,0.0,0.0,0.0,0.0,0.0,0.0,0.0,0.0,0.0,0.0,0.0,0.0,0.0,0.0,0.0,0.0,0.0,0.0,0.0,0.0,0.0,0.0,0.0,0.0,0.0,0.0,0.0,0.0,0.0,0.0,0.0,0.0,0.0,0.0,0.0,0.0,0.0,0.0,0.0,0.0,0.0,0.0,0.0,0.0,0.0,0.0,0.0,0.0,0.0,0.0,0.0,0.0,0.0,0.0,0.0,0.0,0.0,0.0,-3.8942,-3.9608,-4.0582,-4.1102,-4.109,-3.9483,-3.847,0.0,0.0,0.0,0.0,0.0,0.0,0.0,0.0,0.0,0.0,0.0,0.0,0.0,0.0,0.0,0.0,0.0,0.0,0.0,0.0,0.0,0.0,0.0,0.0,0.0,0.0,0.0,0.0,0.0,0.0,0.0,0.0,0.0,0.0,0.0,0.0,0.0,0.0,0.0,0.0,0.0,0.0,0.0,0.0,0.0,0.0,0.0,0.0,-3.6926,0.0,0.0,0.0,0.0,0.0,0.0,0.0,0.0,0.0,0.0,0.0,0.0,0.0,0.0,0.0,0.0,0.0,0.0,0.0,0.0,0.0,0.0,0.0,0.0,0.0,0.0,0.0,0.0,0.0,0.0,0.0,0.0,0.0,0.0,0.0,0.0,0.0,0.0,0.0,0.0,0.0,0.0,0.0,0.0,0.0,0.0,0.0,0.0,0.0,0.0,0.0,0.0,0.0,0.0,0.0,0.0,0.0,0.0,0.0,-3.8977,-3.9844,-4.0681,-4.1105,-4.1061,-3.9837,-3.8958,0.0,0.0,0.0,0.0,0.0,0.0,0.0,0.0,0.0,0.0,0.0,0.0,0.0,0.0,0.0,0.0,0.0,0.0,0.0,0.0,0.0,0.0,0.0,0.0,0.0,0.0,0.0,0.0,0.0,0.0,0.0,0.0,0.0,0.0,0.0,0.0,0.0,0.0,0.0,0.0,0.0,0.0,0.0,0.0,0.0,0.0,0.0,0.0,0.0,0.0,0.0,0.0,0.0,0.0,0.0,0.0,0.0,0.0,0.0,0.0,0.0,0.0,0.0,0.0,0.0,0.0,0.0,0.0,0.0,0.0,0.0,0.0,0.0,0.0,0.0,0.0,0.0,0.0,0.0,0.0,0.0,0.0,0.0,0.0,0.0,0.0,0.0,0.0,0.0,0.0,0.0,0.0,0.0,0.0,0.0,0.0,0.0,0.0,0.0,0.0,0.0,0.0,0.0,0.0,0.0,0.0,0.0,-3.8138,-3.8988,-3.9976,-4.0722,-4.1108,-4.1087,-4.0266,-3.9386,-3.8544,0.0,0.0,0.0,0.0,0.0,0.0,0.0,0.0,0.0,0.0,0.0,0.0,0.0,0.0,0.0,0.0,0.0,0.0,0.0,0.0,0.0,0.0,0.0,0.0,0.0,0.0,0.0,0.0,0.0,0.0,0.0,0.0,0.0,0.0,0.0,0.0,0.0,0.0,-3.6084,-3.5981,0.0,0.0,0.0,0.0,0.0,0.0,0.0,0.0,-3.6058,0.0,0.0,0.0,0.0,0.0,0.0,0.0,0.0,0.0,0.0,0.0,0.0,0.0,0.0,0.0,0.0,0.0,0.0,0.0,0.0,0.0,0.0,0.0,0.0,0.0,0.0,0.0,0.0,0.0,0.0,0.0,0.0,0.0,0.0,0.0,0.0,0.0,0.0,0.0,0.0,0.0,0.0,0.0,0.0,0.0,0.0,0.0,0.0,0.0,0.0,0.0,0.0,0.0,0.0,0.0,0.0,-3.8268,-3.8426,-3.9278,-4.0837,-4.1015,-4.111,-4.1088,-4.0247,-3.9409,-3.8612,0.0,0.0,0.0,0.0,0.0,0.0,0.0,0.0,0.0,0.0,0.0,0.0,0.0,0.0,0.0,0.0,0.0,0.0,0.0,0.0,0.0,0.0,0.0,0.0,0.0,0.0,0.0,0.0,0.0,0.0,0.0,0.0,0.0,0.0,0.0,0.0,0.0,0.0,0.0,-3.6304,-3.6138,0.0,0.0,0.0,0.0,0.0,0.0,0.0,0.0,-3.6465,0.0,0.0,0.0,0.0,0.0,0.0,0.0,0.0,0.0,0.0,0.0,0.0,0.0,0.0,0.0,0.0,0.0,0.0,0.0,0.0,0.0,0.0,0.0,0.0,0.0,0.0,0.0,0.0,0.0,0.0,0.0,0.0,0.0,0.0,0.0,0.0,0.0,0.0,0.0,0.0,0.0,0.0,0.0,0.0,0.0,0.0,0.0,0.0,0.0,0.0,0.0,0.0,0.0,0.0,0.0,-3.8403,-3.8546,-3.9376,-4.1028,-4.1112,-4.1113,-4.1092,-4.0253,-3.9414,0.0,0.0,0.0,0.0,0.0,0.0,0.0,0.0,0.0,0.0,0.0,0.0,0.0,0.0,0.0,0.0,0.0,0.0,0.0,0.0,0.0,0.0,0.0,0.0,0.0,0.0,0.0,0.0,0.0,0.0,0.0,0.0,0.0,0.0,0.0,0.0,0.0,0.0,0.0,0.0,-3.6787,-3.6849,-3.774,0.0,0.0,0.0,0.0,0.0,0.0,-3.6457,-3.6167,0.0,0.0,0.0,0.0,0.0,0.0,0.0,0.0,0.0,0.0,0.0,0.0,0.0,0.0,0.0,0.0,0.0,0.0,0.0,0.0,0.0,0.0,0.0,0.0,0.0,0.0,0.0,0.0,0.0,0.0,0.0,0.0,0.0,0.0,0.0,0.0,0.0,0.0,0.0,0.0,0.0,0.0,0.0,0.0,0.0,0.0,0.0,0.0,0.0,0.0,0.0,0.0,0.0,0.0,0.0,-3.8436,-3.872,-3.9569,-4.1019,-4.1107,-4.1112,-4.1093,-4.0096,-3.9197,0.0,0.0,0.0,0.0,0.0,0.0,0.0,0.0,0.0,0.0,0.0,0.0,0.0,0.0,0.0,0.0,0.0,0.0,0.0,0.0,0.0,0.0,0.0,0.0,0.0,0.0,0.0,0.0,0.0,0.0,0.0,0.0,0.0,0.0,0.0,0.0,0.0,0.0,0.0,0.0,0.0,-3.7498,-3.836,-3.7741,0.0,0.0,0.0,0.0,-3.6382,-3.6414,0.0,0.0,0.0,0.0,0.0,0.0,0.0,0.0,0.0,0.0,0.0,0.0,0.0,0.0,0.0,0.0,0.0,0.0,0.0,0.0,0.0,0.0,0.0,0.0,0.0,0.0,0.0,0.0,0.0,0.0,0.0,0.0,0.0,0.0,0.0,0.0,0.0,0.0,0.0,0.0,0.0,0.0,0.0,0.0,0.0,0.0,0.0,0.0,0.0,0.0,0.0,0.0,0.0,0.0,0.0,0.0,-3.8471,-3.9254,-4.0125,-4.1052,-4.1103,-4.1108,-4.1089,-3.9519,-3.8617,0.0,0.0,0.0,0.0,0.0,0.0,0.0,0.0,0.0,0.0,0.0,0.0,0.0,0.0,0.0,0.0,0.0,0.0,0.0,0.0,0.0,0.0,0.0,0.0,0.0,0.0,0.0,0.0,0.0,0.0,0.0,0.0,0.0,0.0,0.0,0.0,0.0,0.0,0.0,0.0,0.0,-3.7448,-3.8377,-3.7715,-3.7121,0.0,0.0,-3.7308,-3.7997,-3.8163,0.0,0.0,0.0,0.0,0.0,0.0,0.0,0.0,0.0,0.0,0.0,0.0,0.0,0.0,0.0,0.0,0.0,0.0,0.0,0.0,0.0,0.0,0.0,0.0,0.0,0.0,0.0,0.0,0.0,0.0,0.0,0.0,0.0,0.0,0.0,0.0,0.0,0.0,0.0,0.0,0.0,0.0,0.0,0.0,0.0,0.0,0.0,0.0,0.0,0.0,0.0,0.0,0.0,0.0,0.0,-3.7133,-3.8449,-3.8906,-3.9759,-4.1051,-4.1115,-4.1102,-4.1107,-3.9406,-3.8518,0.0,0.0,0.0,0.0,0.0,0.0,0.0,0.0,0.0,0.0,0.0,0.0,0.0,0.0,0.0,0.0,0.0,0.0,0.0,0.0,0.0,0.0,0.0,0.0,0.0,0.0,0.0,0.0,0.0,0.0,0.0,0.0,0.0,0.0,0.0,0.0,0.0,0.0,0.0,0.0,0.0,0.0,-3.8385,-3.8085,0.0,0.0,0.0,-3.7274,-3.7617,0.0,0.0,0.0,0.0,0.0,0.0,0.0,0.0,0.0,0.0,0.0,0.0,0.0,0.0,0.0,0.0,0.0,0.0,0.0,0.0,0.0,0.0,0.0,0.0,0.0,0.0,0.0,0.0,0.0,0.0,0.0,0.0,0.0,0.0,0.0,0.0,0.0,0.0,0.0,0.0,0.0,0.0,0.0,0.0,0.0,0.0,0.0,0.0,0.0,0.0,0.0,0.0,0.0,0.0,0.0,0.0,0.0,-3.8463,-3.8988,-3.984,-4.1051,-4.1109,-4.1114,-4.1084,-3.9628,0.0,0.0,0.0,0.0,0.0,0.0,0.0,0.0,0.0,0.0,0.0,0.0,0.0,0.0,0.0,0.0,0.0,0.0,0.0,0.0,0.0,0.0,0.0,0.0,0.0,0.0,0.0,-3.2638,0.0,0.0,0.0,0.0,0.0,0.0,0.0,0.0,0.0,0.0,0.0,0.0,0.0,0.0,-3.8322,-3.8358,-3.8377,-3.8447,0.0,0.0,-3.7507,-3.773,-3.7985,-3.8022,0.0,0.0,0.0,0.0,0.0,0.0,0.0,0.0,0.0,0.0,0.0,0.0,0.0,0.0,0.0,0.0,0.0,0.0,0.0,0.0,0.0,0.0,0.0,0.0,0.0,0.0,0.0,0.0,0.0,0.0,0.0,0.0,0.0,0.0,0.0,0.0,0.0,0.0,0.0,0.0,0.0,0.0,0.0,0.0,0.0,0.0,0.0,0.0,0.0,0.0,0.0,0.0,0.0,0.0,0.0,-3.8547,-4.0096,-4.0953,-4.1109,-4.1109,-4.1109,-4.1091,-4.0194,-3.9333,0.0,0.0,0.0,0.0,0.0,0.0,0.0,0.0,0.0,0.0,0.0,0.0,0.0,0.0,0.0,0.0,0.0,0.0,0.0,0.0,0.0,0.0,0.0,0.0,0.0,0.0,0.0,0.0,0.0,0.0,0.0,0.0,0.0,0.0,0.0,0.0,0.0,0.0,0.0,0.0,0.0,-3.8298,-3.8298,-3.8302,-3.8626,0.0,0.0,-3.8602,-3.939,-4.025,-4.0259,-3.8588,0.0,0.0,0.0,0.0,0.0,0.0,0.0,0.0,0.0,0.0,0.0,0.0,0.0,0.0,0.0,0.0,0.0,0.0,0.0,0.0,0.0,0.0,0.0,0.0,0.0,0.0,0.0,0.0,0.0,0.0,0.0,0.0,0.0,0.0,0.0,0.0,0.0,0.0,0.0,0.0,0.0,0.0,0.0,0.0,0.0,0.0,0.0,0.0,0.0,0.0,0.0,0.0,0.0,-3.7884,-3.8436,-3.965,-4.0553,-4.108,-4.1106,-4.1109,-4.1109,-4.0274,-3.937,0.0,0.0,0.0,0.0,0.0,0.0,0.0,0.0,0.0,0.0,0.0,0.0,0.0,0.0,0.0,0.0,0.0,0.0,0.0,0.0,0.0,0.0,0.0,0.0,0.0,0.0,0.0,0.0,-3.5304,-3.5399,-3.5659,0.0,0.0,0.0,0.0,0.0,0.0,0.0,0.0,0.0,0.0,-3.8505,-3.9085,-3.9171,0.0,0.0,-3.9412,-3.9093,-3.8816,-3.9142,-3.8981,-3.7694,-3.7053,0.0,0.0,0.0,0.0,0.0,0.0,0.0,0.0,0.0,0.0,0.0,0.0,0.0,0.0,0.0,0.0,0.0,0.0,0.0,0.0,0.0,0.0,0.0,0.0,0.0,0.0,0.0,0.0,0.0,0.0,0.0,0.0,0.0,0.0,0.0,0.0,0.0,0.0,0.0,0.0,0.0,0.0,0.0,0.0,0.0,0.0,0.0,0.0,0.0,0.0,0.0,0.0,-3.7728,-3.8338,-3.95,-4.0407,-4.0995,-4.105,-4.1042,-4.1051,-4.0465,-3.9717,0.0,0.0,0.0,0.0,0.0,0.0,0.0,0.0,0.0,0.0,0.0,0.0,0.0,0.0,0.0,0.0,0.0,0.0,0.0,0.0,0.0,0.0,0.0,0.0,0.0,0.0,0.0,0.0,-3.5759,-3.5716,-3.5609,0.0,0.0,0.0,0.0,0.0,0.0,0.0,0.0,0.0,0.0,-3.8845,-3.9228,-3.9295,-3.9267,-3.9289,-3.9032,-3.8708,-3.8297,-3.8285,-3.81,-3.7424,0.0,0.0,0.0,0.0,0.0,0.0,0.0,0.0,0.0,0.0,0.0,0.0,0.0,0.0,0.0,0.0,0.0,0.0,0.0,0.0,0.0,0.0,0.0,0.0,0.0,0.0,0.0,0.0,0.0,0.0,-3.4898,0.0,0.0,0.0,0.0,0.0,0.0,0.0,0.0,0.0,0.0,0.0,0.0,0.0,0.0,0.0,0.0,0.0,0.0,0.0,0.0,0.0,0.0,-3.8174,-3.8244,-3.9903,-4.0781,-4.082,-4.0861,-4.0922,-4.099,-4.0901,-4.0494,-3.9657,0.0,0.0,0.0,0.0,0.0,0.0,0.0,0.0,0.0,0.0,0.0,0.0,0.0,0.0,0.0,0.0,0.0,0.0,0.0,0.0,0.0,0.0,0.0,0.0,0.0,0.0,-3.5604,-3.5664,-3.5674,0.0,0.0,0.0,0.0,0.0,0.0,0.0,0.0,0.0,0.0,-3.8393,-3.9262,-3.8447,-3.8341,-3.8399,-3.8384,-3.7594,-3.7312,-3.819,-3.8224,-3.82,0.0,0.0,0.0,0.0,0.0,0.0,0.0,0.0,0.0,0.0,0.0,0.0,0.0,0.0,0.0,0.0,0.0,0.0,0.0,0.0,0.0,0.0,0.0,0.0,0.0,0.0,0.0,-3.5837,-3.5837,0.0,0.0,0.0,0.0,0.0,0.0,0.0,0.0,0.0,0.0,0.0,-3.7231,-3.7294,0.0,0.0,0.0,0.0,0.0,0.0,0.0,0.0,0.0,0.0,0.0,0.0,-3.8208,-3.8283,-3.9897,-4.0801,-4.0801,-4.0835,-4.0854,-4.0857,-4.0833,-4.0459,-3.9649,0.0,0.0,0.0,0.0,0.0,0.0,0.0,0.0,0.0,0.0,0.0,0.0,0.0,0.0,0.0,0.0,0.0,0.0,0.0,0.0,0.0,0.0,0.0,0.0,0.0,-3.5535,0.0,0.0,0.0,0.0,0.0,0.0,0.0,0.0,0.0,0.0,0.0,-3.6986,-3.7634,-3.8163,-3.8407,-3.82,-3.8676,-3.9035,0.0,0.0,0.0,0.0,0.0,0.0,0.0,0.0,0.0,0.0,0.0,0.0,0.0,0.0,-3.7205,-3.6658,-3.7055,-3.7498,-3.7498,0.0,0.0,0.0,0.0,0.0,0.0,0.0,0.0,0.0,0.0,0.0,0.0,0.0,0.0,-3.6713,0.0,-3.6408,0.0,0.0,0.0,0.0,0.0,0.0,0.0,0.0,-3.724,-3.7698,-3.8014,-3.8023,-3.8108,0.0,-3.7847,-3.7156,0.0,0.0,0.0,0.0,0.0,0.0,0.0,0.0,-3.8073,-3.8085,-3.9747,-4.0662,-4.0662,-4.0661,-4.0666,-4.0701,-4.0724,-4.0331,-3.9486,-3.8582,-3.77,0.0,0.0,0.0,0.0,0.0,0.0,0.0,0.0,0.0,0.0,0.0,0.0,0.0,0.0,0.0,0.0,0.0,0.0,0.0,0.0,0.0,0.0,0.0,-3.5519,0.0,0.0,0.0,0.0,0.0,0.0,0.0,0.0,0.0,-3.6699,-3.6978,-3.7398,-3.804,-3.8337,-3.8247,-3.7655,0.0,0.0,0.0,0.0,0.0,0.0,0.0,-3.7074,-3.706,-3.6932,-3.7064,-3.7724,-3.8063,-3.8263,-3.8311,0.0,0.0,-3.7623,-3.7955,-3.8354,-3.8358,-3.84,-3.8385,-3.8385,-3.84,-3.849,0.0,0.0,0.0,0.0,0.0,0.0,0.0,0.0,-3.8404,-3.7569,0.0,-3.6718,0.0,0.0,0.0,0.0,0.0,-3.6957,0.0,0.0,-3.925,-3.9671,-3.8878,-3.8918,-3.8947,-3.889,-3.8109,-3.7755,-3.7797,-3.7912,0.0,0.0,0.0,0.0,0.0,0.0,-3.7836,-3.7834,-3.9519,-4.0407,-4.0415,-4.0419,-4.0423,-4.0446,-4.0461,-4.0048,-3.9188,-3.8362,-3.7536,-3.6726,-3.5859,0.0,0.0,0.0,0.0,0.0,0.0,0.0,0.0,0.0,0.0,0.0,0.0,0.0,0.0,0.0,0.0,0.0,0.0,0.0,0.0,-3.549,0.0,0.0,0.0,0.0,0.0,0.0,0.0,0.0,0.0,0.0,-3.6688,-3.738,-3.7964,-3.7997,0.0,0.0,0.0,0.0,-3.745,-3.5721,-3.605,-3.635,-3.5699,-3.693,-3.8007,-3.8106,0.0,0.0,-3.9558,-3.8878,-3.8363,-3.8404,-3.9181,-3.9442,-3.8574,-3.849,-3.8462,-3.8481,-3.8576,-3.8525,-3.8506,-3.8677,-3.8816,-3.9367,0.0,0.0,0.0,0.0,-3.8826,-3.9346,-4.0112,-3.9283,-3.8784,-3.851,-3.7914,0.0,0.0,0.0,0.0,0.0,0.0,-3.7705,-3.8328,-3.8934,-3.9403,-3.9785,-3.9824,-3.9853,-3.9879,-3.9595,-3.9509,-3.9616,-3.9619,-3.8612,-3.6654,0.0,0.0,0.0,0.0,-3.8059,-3.8725,-3.9823,-4.0407,-4.0407,-4.0351,-4.0051,-3.9511,-3.8977,-3.8569,-3.8349,-3.8104,-3.7577,-3.6736,-3.6457,0.0,0.0,0.0,0.0,0.0,0.0,0.0,0.0,0.0,0.0,0.0,0.0,0.0,0.0,0.0,0.0,0.0,0.0,0.0,-3.5431,-3.5457,-3.5432,0.0,0.0,0.0,0.0,0.0,0.0,0.0,0.0,0.0,-3.7519,-3.7126,-3.7106,0.0,0.0,-3.725,-3.7304,-3.7655,-3.7954,-3.8108,-3.7815,0.0,-3.9058,-3.8536,-3.822,-3.8865,-3.9267,-3.9499,-3.9524,-3.9906,-4.0198,-4.0214,-4.0489,-4.0597,-4.0392,-4.0294,-4.0263,-4.0305,-4.0308,-4.0331,-4.0328,-4.0324,-4.036,-4.133,-4.0791,-4.0233,-4.0203,-4.0481,-4.0148,-4.0507,-4.1266,-4.0085,-3.9389,-3.9041,-3.8544,-3.765,-3.6498,-3.6713,0.0,0.0,0.0,-3.8247,-3.9214,-3.9224,-3.9532,-4.0058,-4.0137,-4.0177,-4.0234,-4.0234,-4.0291,-4.0345,-3.9919,-3.8983,-3.7598,0.0,0.0,-3.702,-3.7797,-3.8466,-3.899,-3.9552,-3.9837,-3.9837,-3.9466,-3.9035,-3.8563,-3.8074,-3.7696,-3.7417,-3.7425,-3.7015,-3.6182,-3.6128,-3.5224,0.0,0.0,0.0,0.0,0.0,0.0,0.0,0.0,0.0,0.0,0.0,-3.2679,-3.3899,0.0,0.0,0.0,-3.5398,-3.5365,-3.5338,-3.535,0.0,0.0,0.0,0.0,0.0,0.0,0.0,-3.622,-3.7183,-3.7901,-3.7882,-3.7379,-3.7348,-3.8288,-3.7913,-3.7584,-3.7698,0.0,-3.8513,-3.8719,-3.8618,-3.8787,-3.9541,-3.938,-3.9303,-3.9861,-3.9987,-4.0058,-4.0112,-4.0617,-4.0968,-4.0995,-4.1041,-4.1068,-4.1068,-4.1068,-4.1075,-4.1104,-4.1107,-4.1107,-4.1107,-4.1107,-4.1107,-4.2818,-4.3403,-4.2089,-4.2035,-4.268,-4.1921,-4.1986,-4.2511,-4.0827,-3.9645,-3.8903,-3.8762,-3.7889,-3.6541,-3.6697,0.0,-3.8477,-3.8406,-3.8931,-3.9965,-3.9911,-3.9889,-3.9911,-4.0036,-4.0106,-4.0098,-4.0206,-4.0272,-4.0234,-3.9376,-3.8937,-3.8993,-3.8993,-3.8517,-3.768,-3.8432,-3.8813,-3.868,-3.8813,-3.8888,-3.8877,-3.8056,-3.7597,-3.7597,-3.754,-3.7158,-3.6443,-3.6385,-3.6039,-3.5334,-3.5226,-3.4891,-3.4185,0.0,0.0,0.0,0.0,0.0,0.0,0.0,0.0,0.0,0.0,0.0,0.0,0.0,0.0,0.0,-3.5438,0.0,-3.5252,-3.517,0.0,0.0,0.0,-3.6516,-3.676,-3.7525,-3.7993,-3.7901,0.0,0.0,-3.8019,-3.8019,-3.8401,-3.9396,-3.9396,-3.8994,-3.8204,-3.882,-3.9064,-3.8393,-3.8901,-3.9134,-3.8775,-3.9733,-4.066,-4.0781,-4.0888,-4.0873,-4.0915,-4.0967,-4.0995,-4.0988,-4.0992,-4.0996,-4.0996,-4.1,-4.1027,-4.1078,-4.1085,-4.1088,-4.1088,-4.1088,-4.1107,-4.3314,-4.346,-4.3075,-4.3073,-4.3287,-4.3085,-4.3105,-4.3125,-4.1546,-4.0724,-4.0451,-3.9239,-3.8589,-3.8354,-3.841,-3.8654,-3.9076,-3.9082,-3.9289,-3.9682,-3.9728,-3.9837,-3.9975,-4.0007,-4.0038,-4.0106,-4.0077,-4.0098,-4.0147,-3.9967,-3.9499,-3.8811,-3.8841,-3.8403,-3.7547,-3.7631,-3.7745,-3.7813,-3.7833,-3.7899,-3.7999,-3.7215,-3.6767,-3.6787,-3.6137,-3.5706,-3.5507,-3.5515,-3.542,-3.5237,-3.5209,-3.4819,-3.3933,-3.3067,0.0,0.0,0.0,0.0,0.0,0.0,0.0,0.0,0.0,-3.3892,-3.462,0.0,-3.5198,0.0,-3.536,-3.5512,-3.5568,-3.5531,0.0,0.0,-3.6538,-3.6889,-3.7562,-3.8447,-3.8737,-3.7973,-3.8575,-3.9045,-3.9045,-3.9045,-3.9396,-4.0373,-3.9224,-3.863,-3.9607,-3.9541,-3.9578,-3.994,-4.0258,-4.046,-4.0222,-4.0553,-4.0864,-4.0883,-4.0888,-4.0907,-4.0917,-4.0954,-4.0991,-4.0991,-4.0984,-4.0992,-4.0992,-4.0996,-4.0996,-4.1027,-4.1041,-4.1013,-4.1013,-4.1062,-4.1107,-4.348,-4.3464,-4.3464,-4.3463,-4.3479,-4.3096,-4.2949,-4.2837,-4.1258,-4.0579,-4.0487,-3.9258,-3.8765,-3.8848,-3.8862,-3.896,-3.9183,-3.9165,-3.9272,-3.9464,-3.958,-3.9705,-3.9826,-3.9924,-4.0007,-4.0057,-4.0027,-3.9858,-3.9546,-3.9956,-3.947,-3.8269,-3.9011,-3.8535,-3.6947,-3.711,-3.727,-3.736,-3.7041,-3.6777,-3.6589,-3.6148,-3.591,-3.5857,-3.5356,-3.4892,-3.4522,-3.4421,-3.426,-3.398,-3.3961,-3.3722,-3.3189,-3.2381,-3.1632,0.0,0.0,0.0,0.0,0.0,0.0,0.0,0.0,0.0,0.0,0.0,-3.5232,-3.5232,-3.5399,-3.55,-3.5481,-3.5804,-3.619,-3.6691,-3.7437,-3.8112,-3.8651,-3.9508,-3.9835,-3.9307,-3.9721,-4.007,-4.007,-4.007,-4.0246,-4.0825,-3.9943,-3.9566,-4.0372,-4.0297,-4.0245,-4.0704,-4.0849,-4.0888,-4.0888,-4.0888,-4.0888,-4.0888,-4.0888,-4.0888,-4.0888,-4.0921,-4.095,-4.095,-4.0958,-4.0948,-4.0967,-4.0948,-4.0948,-4.0952,-4.0988,-4.0988,-4.0983,-4.1016,-4.1062,-4.3463,-4.3429,-4.3481,-4.3497,-4.3424,-4.2679,-4.2403,-4.2341,-4.0744,-3.9937,-3.9698,-3.9019,-3.8707,-3.8707,-3.8707,-3.8792,-3.896,-3.8979,-3.9073,-3.9272,-3.9439,-3.9551,-3.9618,-3.9856,-3.9965,-3.9986,-4.0046,-3.9687,-3.8965,-3.9716,-3.9259,-3.7833,-3.9192,-3.8655,-3.6342,-3.6804,-3.7005,-3.6847,-3.623,-3.5685,-3.5202,-3.5134,-3.5089,-3.5038,-3.4927,-3.4491,-3.3743,-3.3505,-3.3118,-3.2543,-3.2401,-3.2426,-3.2549,-3.1737,-3.126,0.0,-3.1224,0.0,0.0,0.0,0.0,0.0,0.0,0.0,0.0,-3.4941,-3.5391,-3.5412,-3.547,-3.5477,-3.5434,-3.6108,-3.6673,-3.7023,-3.8438,-3.9458,-3.9544,-4.0335,-4.0864,-4.0747,-4.083,-4.0888,-4.0864,-4.0888,-4.0888,-4.0888,-4.082,-4.0752,-4.0883,-4.0859,-4.084,-4.0888,-4.0888,-4.0888,-4.0888,-4.0888,-4.0888,-4.0888,-4.0888,-4.0888,-4.0888,-4.0888,-4.0888,-4.0888,-4.0893,-4.0907,-4.0888,-4.0888,-4.0888,-4.0912,-4.095,-4.0975,-4.0988,-4.1006,-4.1013,-4.3497,-4.3498,-4.3428,-4.3446,-4.3479,-4.3282,-4.3226,-4.3166,-4.1552,-4.0157,-3.8927,-3.8781,-3.8707,-3.8707,-3.8707,-3.8723,-3.8768,-3.875,-3.8848,-3.9073,-3.9082,-3.9266,-3.9606,-3.9647,-3.9739,-3.9911,-3.9941,-3.9857,-3.9697,-3.991,-3.9442,-3.8358,-3.8693,-3.8213,-3.6983,0.0,0.0,0.0,-3.5052,-3.5031,-3.502,-3.4764,-3.4684,-3.4763,-3.4643,0.0,-3.4317,-3.3686,-3.3272,-3.3142,-3.2504,0.0,0.0,0.0,0.0,0.0,0.0,0.0,0.0,0.0,0.0,0.0,-3.4301,-3.4725,-3.4909,-3.5105,-3.5318,-3.547,-3.5489,-3.5821,-3.6585,-3.6779,-3.7215,-3.797,-3.8944,-3.9317,-3.8728,-3.9946,-4.064,-3.9947,-4.0466,-4.0888,-4.0888,-4.0888,-4.0888,-4.0888,-4.0888,-4.0888,-4.0888,-4.0888,-4.0888,-4.0888,-4.0888,-4.0888,-4.0888,-4.0888,-4.0888,-4.0888,-4.0888,-4.0888,-4.0888,-4.0888,-4.0888,-4.0888,-4.0888,-4.0888,-4.0888,-4.0888,-4.0888,-4.0888,-4.0912,-4.0926,-4.0995,-4.0988,-4.099,-4.348,0.0,-4.3446,-4.3463,0.0,-4.3429,-4.3209,-4.2818,-4.1576,-4.0113,-3.858,-3.8546,-3.8578,-3.8575,-3.8562,-3.8578,-3.8609,-3.858,-3.8621,-3.8752,-3.8888,-3.885,-3.8713,-3.8901,-3.8836,-3.8561,-3.8637,-3.8471,-3.8111,-3.8521,-3.8045,-3.6751,-3.7577,-3.7564,-3.6696,-3.7023,-3.6553,-3.5213,-3.4908,-3.4841,-3.4973,-3.4841,-3.4753,-3.4743,-3.462,0.0,0.0,0.0,0.0,0.0,0.0,0.0,0.0,-3.2534,0.0,-3.292,-3.2986,-3.324,-3.3716,-3.4124,-3.4412,-3.4596,-3.502,-3.5265,-3.5255,-3.54,-3.5546,-3.5639,-3.5604,-3.5982,-3.6876,-3.6978,-3.7341,-3.8209,-3.9081,-3.9397,-3.916,-4.0082,-4.0718,-4.0383,-4.0626,-4.0888,-4.0888,-4.0888,-4.0888,-4.0888,-4.0888,-4.0888,-4.0888,-4.0888,-4.0888,-4.0888,-4.0888,-4.0888,-4.0888,-4.0888,-4.0888,-4.0888,-4.0888,-4.0888,-4.0888,-4.0888,-4.0888,-4.0888,-4.0888,-4.0888,-4.0888,-4.0888,-4.0888,-4.0888,-4.0888,-4.0903,-4.0931,-4.0967,-4.098,-4.3463,-4.3411,-4.3463,-4.3388,-4.3278,-4.3192,-4.2643,-4.176,0.0,0.0,0.0,-3.8399,-3.843,-3.8478,-3.8415,-3.843,-3.8478,-3.843,-3.843,-3.851,-3.8581,-3.8305,-3.7798,-3.7947,-3.7706,-3.7137,-3.7265,-3.6998,-3.6403,-3.7058,-3.6708,-3.5571,-3.6737,-3.7078,-3.6491,-3.6927,-3.678,-3.5945,-3.5248,-3.4904,-3.4955,-3.4908,-3.4831,-3.4742,-3.4615,-3.4206,-3.3488,-3.322,-3.2836,-3.227,-3.2112,-3.2146,-3.2312,-3.2429,-3.2515,-3.2608,-3.2694,-3.3116,-3.3969,-3.4023,-3.4431,-3.5393,-3.5568,-3.561,-3.5476,-3.5664,-3.5791,-3.5791,-3.5751,-3.6038,-3.6925,-3.7142,-3.7494,-3.8232,-3.9192,-3.9726,-3.9476,-4.0301,-4.0815,-4.0743,-4.0767,-4.0888,-4.0888,-4.0888,-4.0888,-4.0888,-4.0888,-4.0888,-4.0888,-4.0888,-4.0888,-4.0888,-4.0888,-4.0888,-4.0888,-4.0888,-4.0888,-4.0888,-4.0888,-4.0888,-4.0888,-4.0888,-4.0888,-4.0888,-4.0888,-4.0888,-4.0888,-4.0888,-4.0888,-4.0888,-4.0888,-4.0898,-4.0893,-4.0942,-4.0974,-4.3479,-4.348,-4.3429,-4.3027,-4.2386,-4.2245,-4.1318,-3.9918,-3.9944,-3.9358,-3.8399,-3.8399,-3.8399,-3.8433,-3.838,-3.8399,-3.8433,-3.838,-3.843,-3.8455,-3.775,-3.7536,-3.7678,-3.6943,-3.6658,-3.6771,-3.6963,-3.7009,-3.6927,-3.7213,-3.7249,-3.7078,-3.7287,-3.7334,-3.7211,-3.6661,-3.628,-3.6087,-3.58,-3.5394,-3.4838,-3.4487,-3.4344,-3.4461,-3.434,-3.422,-3.4059,-3.3415,-3.2957,-3.2869,-3.2222,-3.2246,-3.3148,-3.3235,-3.3617,-3.4425,-3.4529,-3.4642,-3.4892,-3.492,-3.5009,-3.5219,-3.5405,-3.5571,-3.5727,-3.5782,-3.5806,-3.5808,-3.5742,-3.6067,-3.6919,-3.7589,-3.8017,-3.8313,-3.9666,-4.007,-3.8789,-3.995,-4.0635,-4.0024,-4.0466,-4.0888,-4.0888,-4.0888,-4.0888,-4.0888,-4.0888,-4.0888,-4.0888,-4.0888,-4.0888,-4.0888,-4.0888,-4.0888,-4.0888,-4.0888,-4.0888,-4.0888,-4.0888,-4.0888,-4.0888,-4.0888,-4.0888,-4.0888,-4.0888,-4.0888,-4.0888,-4.0888,-4.0888,-4.0888,-4.0888,-4.0898,-4.0888,-4.0912,-4.0917,-4.3031,-4.263,-4.2647,-4.219,-4.1404,-4.0915,-4.0518,-4.0069,-3.9317,-3.8753,-3.8307,-3.8289,-3.8322,-3.8354,-3.8323,-3.8085,-3.7699,-3.7667,-3.7428,-3.7054,-3.6692,-3.6367,-3.6101,-3.5781,-3.5504,-3.5216,-3.5409,-3.5593,-3.5713,-3.5861,-3.5965,-3.6083,-3.65,-3.6965,-3.7344,-3.7029,-3.6838,-3.6789,-3.5828,-3.5155,-3.4807,-3.4591,-3.4495,-3.455,-3.4473,-3.4427,-3.4427,-3.4054,-3.3848,-3.3867,-3.3523,-3.3572,-3.4114,-3.418,-3.4383,-3.4879,-3.4908,-3.4945,-3.51,-3.5207,-3.5289,-3.5362,-3.5406,-3.5512,-3.5669,-3.5765,-3.5791,-3.5797,-3.578,-3.63,-3.7535,-3.7616,-3.789,-3.8822,-3.9683,-3.9827,-3.93,-4.0091,-4.0718,-4.0403,-4.0631,-4.0888,-4.0888,-4.0888,-4.0888,-4.0888,-4.0888,-4.0888,-4.0888,-4.0888,-4.0888,-4.0888,-4.0888,-4.0888,-4.0888,-4.0888,-4.0888,-4.0888,-4.0888,-4.0888,-4.0888,-4.0888,-4.0888,-4.0888,-4.0888,-4.0888,-4.0888,-4.0888,-4.0888,-4.0888,-4.0888,-4.0893,-4.0858,-4.084,-4.0998,-4.2268,-4.1869,-4.1905,-4.1449,-4.0631,-3.9648,-3.9578,-3.998,-3.8782,-3.8241,-3.8209,-3.8209,-3.8207,-3.8257,-3.8207,-3.7898,-3.7402,-3.7283,-3.6989,-3.6453,-3.6238,-3.583,-3.5356,-3.5296,-3.4931,-3.4408,-3.4604,-3.4803,-3.4939,-3.4936,-3.4929,-3.4983,-3.5571,-3.6234,-3.6802,-3.6828,-3.6826,-3.6701,-3.55,-3.4819,-3.4778,-3.4708,-3.4676,-3.4685,-3.4615,-3.4612,-3.4612,-3.4612,-3.4612,-3.4612,-3.4612,-3.4636,-3.4747,-3.4739,-3.478,-3.4831,-3.4821,-3.4889,-3.5035,-3.52,-3.5336,-3.5398,-3.5379,-3.5393,-3.5513,-3.5614,-3.5732,-3.5797,-3.5765,-3.6387,-3.7618,-3.7652,-3.7883,-3.9278,-3.9744,-3.9945,-3.9931,-4.047,-4.0898,-4.0903,-4.0888,-4.0888,-4.0888,-4.0888,-4.0888,-4.0888,-4.0888,-4.0888,-4.0888,-4.0888,-4.0888,-4.0888,-4.0888,-4.0888,-4.0888,-4.0888,-4.0888,-4.0888,-4.0888,-4.0888,-4.0888,-4.0888,-4.0888,-4.0888,-4.0888,-4.0888,-4.0888,-4.0888,-4.0903,-4.0898,-4.0893,-4.0898,-4.0807,-4.08,-4.1221,-4.118,-4.1687,-4.1631,-4.116,-4.0275,-3.883,-3.8321,-3.848,-3.8245,-3.8209,-3.8209,-3.8209,-3.8209,-3.8209,-3.8209,-3.8136,-3.8026,-3.8082,-3.8006,-3.7855,-3.7261,-3.6898,-3.669,-3.6061,-3.5704,-3.5605,-3.582,-3.5919,-3.5934,-3.572,-3.5356,-3.4965,-3.4984,-3.5116,-3.5172,-3.52,-3.5112,-3.4953,-3.4802,-3.4727,-3.4716,-3.4645,-3.4612,-3.4612,-3.4612,-3.4612,-3.4612,-3.4612,-3.4612,-3.4612,-3.4612,-3.4612,-3.4623,-3.4623,-3.4634,-3.4626,-3.4645,-3.4689,-3.4831,-3.4945,-3.5063,-3.5126,-3.5176,-3.522,-3.525,-3.539,-3.5564,-3.5771,-3.5781,-3.6232,-3.7114,-3.7793,-3.8515,-3.9386,-4.0181,-4.074,-4.0601,-4.0789,-4.0903,-4.0888,-4.0869,-4.0888,-4.0898,-4.0903,-4.0888,-4.0888,-4.0888,-4.0883,-4.0903,-4.0903,-4.0903,-4.0903,-4.0883,-4.0888,-4.0888,-4.0888,-4.0888,-4.0888,-4.0888,-4.0888,-4.0888,-4.0888,-4.0888,-4.0888,-4.0888,-4.0888,-4.0888,-4.0888,-4.0898,-4.0898,-4.0888,-4.0872,-4.0818,-4.0873,-4.146,-4.0754,-4.0474,-4.0957,-4.0727,-3.9889,-3.8528,-3.8273,-3.8739,-3.8287,-3.807,-3.807,-3.807,-3.814,-3.8192,-3.8209,-3.7955,-3.7502,-3.7502,-3.7247,-3.6846,-3.6451,-3.6288,-3.6268,-3.5998,-3.5786,-3.582,-3.5973,-3.6087,-3.6125,-3.5864,-3.5421,-3.4955,-3.4917,-3.5115,-3.553,-3.5054,-3.4984,-3.5394,-3.5407,-3.516,-3.469,-3.4612,-3.4612,-3.4612,-3.4612,-3.4612,-3.4612,-3.4612,-3.4612,-3.4612,-3.4612,-3.4612,-3.4612,-3.4612,-3.4612,-3.4612,-3.4612,-3.4647,-3.4771,-3.485,-3.4927,-3.5029,-3.5063,-3.5132,-3.5226,-3.571,-3.613,-3.6286,-3.6303,-3.6837,-3.8182,-3.871,-3.9206,-3.9918,-4.0448,-4.0642,-4.0542,-4.0564,-4.0623,-4.0668,-4.0736,-4.0796,-4.0837,-4.0878,-4.0903,-4.0888,-4.0888,-4.0898,-4.0903,-4.0903,-4.0878,-4.0844,-4.0844,-4.0859,-4.0878,-4.0888,-4.0888,-4.0888,-4.0888,-4.0888,-4.0888,-4.0888,-4.0888,-4.0888,-4.0888,-4.0888,-4.0888,-4.0888,-4.0898,-4.0888,-4.0846,-4.0823,-4.08,-4.1183,-4.2009,-4.0037,-3.9523,-4.0288,-4.0291,-3.9656,-3.872,-3.8528,-3.8797,-3.8453,-3.8184,-3.7967,-3.7967,-3.802,-3.8124,-3.8124,-3.7781,-3.7293,-3.7272,-3.6964,-3.6457,-3.6455,-3.6474,-3.6453,-3.6472,-3.6437,-3.6472,-3.6538,-3.6531,-3.6509,-3.6292,-3.5806,-3.5231,-3.5109,-3.5317,-3.5612,-3.52,-3.5308,-3.5851,-3.6088,-3.5897,-3.5364,-3.5071,-3.4958,-3.494,-3.4714,-3.4695,-3.494,-3.4714,-3.4612,-3.4612,-3.4612,-3.4612,-3.4612,-3.4612,-3.4612,-3.4612,-3.4612,-3.4645,-3.4768,-3.4781,-3.485,-3.4955,-3.4974,-3.5143,-3.5526,-3.6086,-3.668,-3.7271,-3.7283,-3.7901,-3.9008,-3.9306,-3.9651,-4.0327,-4.0473,-4.0462,-4.038,-4.0388,-4.0435,-4.0457,-4.0556,-4.063,-4.07,-4.0759,-4.0828,-4.0751,-4.0814,-4.0833,-4.0796,-4.0796,-4.0862,-4.0765,-4.0771,-4.0828,-4.0888,-4.0893,-4.0898,-4.0888,-4.0888,-4.0888,-4.0888,-4.0888,-4.0888,-4.0888,-4.0888,-4.0888,-4.0903,-4.0903,-4.0883,-4.0867,-4.0843,-4.0808,-4.0802,-4.1441,-4.2228,-3.8564,-3.9029,-3.9712,-3.9777,-3.9489,-3.9332,-3.8821,-3.8115,-3.8672,-3.86,-3.7953,-3.7881,-3.7899,-3.7916,-3.7881,-3.7863,-3.7844,-3.7876,-3.7856,-3.7766,-3.7905,-3.8047,-3.81,-3.81,-3.8047,-3.7866,-3.7883,-3.7701,-3.7304,-3.7272,-3.6759,-3.5708,-3.56,-3.5349,-3.5007,-3.5477,-3.584,-3.5946,-3.6659,-3.6998,-3.6866,-3.6197,-3.5878,-3.5784,-3.5044,-3.4958,-3.5559,-3.5015,-3.4612,-3.4612,-3.4612,-3.4612,-3.4612,-3.4612,-3.4612,-3.4612,-3.4612,-3.4634,-3.4706,-3.4749,-3.4819,-3.4897,-3.4983,-3.5296,-3.6055,-3.6369,-3.7081,-3.8509,-3.8585,-3.8897,-3.9265,-3.9418,-3.9631,-4.0211,-4.0427,-4.0422,-4.0314,-4.0317,-4.0404,-4.0404,-4.0412,-4.0442,-4.0423,-4.0584,-4.0604,-4.0551,-4.0642,-4.0711,-4.0544,-4.0642,-4.0699,-4.0668,-4.0687,-4.0812,-4.0877,-4.0893,-4.0903,-4.0898,-4.0888,-4.0888,-4.0888,-4.0888,-4.0888,-4.0888,-4.0888,-4.0888,-4.0903,-4.0878,-4.0842,-4.0829,-4.0833,-4.0803,-4.0733,-4.1442,-4.2098,-3.8177,-3.857,-3.8296,-3.8424,-3.8703,-3.7976,-3.7789,-3.8083,-3.7928,-3.7845,-3.7757,-3.7559,-3.7577,-3.7757,-3.7485,-3.7577,-3.7881,-3.7934,-3.7933,-3.7951,-3.8037,-3.807,-3.8088,-3.8157,-3.8209,-3.8209,-3.8209,-3.7919,-3.7436,-3.7393,-3.6823,-3.5856,-3.5649,-3.5319,-3.4956,-3.549,-3.5889,-3.6047,-3.7174,-3.7636,-3.7204,-3.7305,-3.7211,-3.6622,-3.5326,-3.4744,-3.5033,-3.4771,-3.4612,-3.4612,-3.4612,-3.4612,-3.4612,-3.4612,-3.4612,-3.4612,-3.4612,-3.4612,-3.4645,-3.4687,-3.4768,-3.4856,-3.536,-3.5817,-3.634,-3.7213,-3.8144,-3.8725,-3.9363,-3.969,-3.9766,-3.9821,-3.9899,-4.0063,-4.0148,-4.0158,-4.006,-4.007,-4.0101,-4.0148,-4.0241,-4.0334,-4.0388,-4.0465,-4.048,-4.0416,-4.0475,-4.048,-4.0439,-4.0496,-4.0506,-4.0427,-4.0442,-4.0528,-4.07,-4.084,-4.0893,-4.0893,-4.0888,-4.0888,-4.0888,-4.0888,-4.0888,-4.0888,-4.0888,-4.0888,-4.0873,-4.0837,-4.0798,-4.0825,-4.0809,-4.0746,-4.0621,-4.1356,-4.1793,-3.8138,-3.8459,-3.8002,-3.7866,-3.7933,-3.7435,-3.7346,-3.7687,-3.7468,-3.7378,-3.7299,-3.7092,-3.7148,-3.73,-3.7185,-3.728,-3.7631,-3.7775,-3.7846,-3.7846,-3.7933,-3.7967,-3.7984,-3.8088,-3.8123,-3.8089,-3.8107,-3.7899,-3.7606,-3.7564,-3.7077,-3.62,-3.6112,-3.5845,-3.5551,-3.6155,-3.6597,-3.6925,-3.8019,-3.8331,-3.7624,-3.7756,-3.753,-3.6659,-3.5334,-3.4763,-3.4977,-3.4763,-3.4612,-3.4612,-3.4612,-3.4612,-3.4612,-3.4612,-3.4612,-3.4612,-3.4612,-3.4612,-3.465,-3.49,-3.5122,-3.5202,-3.5981,-3.6601,-3.7011,-3.8114,-3.879,-3.9237,-3.9635,-4.0036,-4.0036,-4.0017,-4.0026,-4.0015,-4.0015,-3.9965,-3.9911,-3.99,-3.9914,-3.9977,-4.0099,-4.0205,-4.0248,-4.0317,-4.029,-4.0264,-4.0307,-4.0359,-4.0258,-4.0319,-4.0336,-4.0257,-4.03,-4.0383,-4.0515,-4.0641,-4.0837,-4.0862,-4.0868,-4.0859,-4.0869,-4.0874,-4.0874,-4.0878,-4.0888,-4.0863,-4.0832,-4.0792,-4.0769,-4.0802,-4.0784,-4.0752,-4.0917,-4.1231,-4.155,-3.8234,-3.8708,-3.8928,-3.8118,-3.7398,-3.7739,-3.7581,-3.6956,-3.738,-3.7251,-3.6771,-3.6615,-3.6655,-3.6696,-3.6895,-3.7071,-3.7206,-3.7522,-3.7667,-3.7721,-3.7828,-3.7899,-3.7899,-3.7967,-3.7967,-3.7916,-3.7934,-3.7916,-3.7861,-3.7824,-3.7542,-3.7135,-3.6988,-3.6742,-3.662,-3.731,-3.7972,-3.8221,-3.8908,-3.8995,-3.8319,-3.7568,-3.6836,-3.601,-3.5146,-3.5015,-3.5709,-3.4996,-3.4612,-3.4612,-3.4612,-3.4612,-3.4612,-3.4612,-3.4612,-3.4612,-3.4612,-3.4612,-3.4744,-3.5396,-3.5805,-3.6034,-3.678,-3.761,-3.8231,-3.8641,-3.9088,-3.9678,-3.9865,-3.99,-3.9911,-3.9911,-3.9933,-3.9975,-3.9986,-3.9954,-3.9911,-3.99,-3.99,-3.9911,-3.9986,-3.9994,-3.9967,-4.008,-4.011,-4.005,-4.0129,-4.0194,-4.003,-4.0129,-4.0203,-4.0244,-4.0396,-4.0613,-4.053,-4.046,-4.0686,-4.0833,-4.0823,-4.0826,-4.0787,-4.0793,-4.0793,-4.0793,-4.0771,-4.0767,-4.0775,-4.0732,-4.072,-4.0726,-4.0746,-4.068,-4.0758,-4.0897,-4.1126,-3.6445,-3.6631,-3.6671,-3.6785,-3.6831,-3.6633,-3.6608,-3.6943,-3.6797,-3.6596,-3.6568,-3.635,-3.6388,-3.6512,-3.6474,-3.6658,-3.7108,-3.7242,-3.7411,-3.7613,-3.7721,-3.7757,-3.7792,-3.7881,-3.7916,-3.7899,-3.7899,-3.7899,-3.7899,-3.7899,-3.7605,-3.715,-3.7067,-3.6826,-3.6519,-3.7416,-3.8039,-3.8127,-3.8434,-3.8483,-3.8165,-3.7415,-3.6628,-3.5915,-3.5593,-3.539,-3.5015,-3.4733,-3.4612,-3.4612,-3.4612,-3.4612,-3.4612,-3.4612,-3.4612,-3.4612,-3.4612,-3.4902,-3.5428,-3.575,-3.6205,-3.6776,-3.7574,-3.8128,-3.8568,-3.9071,-3.9467,-3.9773,-3.9789,-3.977,-3.9815,-3.9826,-3.9867,-3.9922,-3.9933,-3.9922,-3.9911,-3.99,-3.99,-3.9881,-3.9922,-3.9922,-3.9911,-3.9977,-3.9977,-3.9933,-3.9998,-3.9988,-3.9946,-3.9969,-4.0314,-4.071,-4.0848,-4.0958,-4.1113,-4.1055,-4.1027,-4.105,-4.0975,-4.0784,-4.0739,-4.0693,-4.0712,-4.0674,-4.0649,-4.0655,-4.0662,-4.0674,-4.0654,-4.0614,-4.0593,-4.0469,-4.0313,-4.0434,-4.0702,-3.6045,-3.6045,-3.6045,-3.6146,-3.6315,-3.5769,-3.5971,-3.649,-3.612,-3.6028,-3.6135,-3.6006,-3.6028,-3.6178,-3.6135,-3.6392,-3.6895,-3.7032,-3.7204,-3.7411,-3.7613,-3.7649,-3.7685,-3.7721,-3.7793,-3.781,-3.7793,-3.7793,-3.7793,-3.7775,-3.7594,-3.7315,-3.7291,-3.7237,-3.7009,-3.7636,-3.8029,-3.7931,-3.7994,-3.7785,-3.7311,-3.681,-3.6173,-3.5484,-3.5387,-3.5127,-3.4631,-3.4612,-3.4612,-3.4612,-3.4612,-3.4612,-3.4612,-3.4612,-3.4612,-3.4612,-3.4669,-3.4958,-3.5784,-3.619,-3.6697,-3.7551,-3.8395,-3.8889,-3.9036,-3.95,-3.967,-3.9708,-3.9701,-3.9693,-3.9758,-3.9758,-3.9781,-3.9834,-3.9878,-3.9889,-3.99,-3.99,-3.99,-3.99,-3.99,-3.99,-3.99,-3.99,-3.99,-3.99,-3.99,-3.99,-3.99,-3.99,-4.0317,-4.0582,-4.0493,-4.0918,-4.1759,-4.1707,-4.1462,-4.1341,-4.1204,-4.0893,-4.067,-4.0614,-4.0589,-4.0492,-4.0427,-4.0427,-4.0458,-4.0523,-4.0542,-4.05,-4.0469,-4.0378,-4.0267,-4.0167,-4.0329,-3.6711,-3.6745,-3.6711,-3.6231,-3.5701,-3.5616,-3.5656,-3.5656,-3.5639,-3.5667,-3.5667,-3.5667,-3.5644,-3.5711,-3.592,-3.6241,-3.6591,-3.6836,-3.6974,-3.711,-3.7337,-3.7467,-3.7522,-3.7595,-3.7685,-3.7685,-3.7649,-3.7613,-3.7631,-3.7631,-3.7631,-3.7649,-3.7649,-3.7826,-3.788,-3.8111,-3.7903,-3.7691,-3.7516,-3.6835,-3.588,-3.5703,-3.5371,-3.4641,-3.4655,-3.4666,-3.462,-3.4612,-3.465,-3.4688,-3.48,-3.4808,-3.4714,-3.4688,-3.4781,-3.48,-3.4706,-3.5232,-3.5935,-3.6603,-3.7336,-3.8143,-3.8999,-3.9693,-3.9599,-3.9623,-3.9684,-3.9684,-3.9677,-3.9708,-3.9708,-3.9708,-3.9701,-3.9693,-3.9804,-3.9878,-3.99,-3.99,-3.99,-3.99,-3.99,-3.99,-3.99,-3.99,-3.99,-3.99,-3.99,-3.99,-3.99,-3.99,-3.9938,-4.0146,-4.0468,-4.1002,-4.1884,-4.1922,-4.1643,-4.1326,-4.1199,-4.089,-4.0545,-4.0417,-4.0394,-4.0292,-4.022,-4.022,-4.0266,-4.0345,-4.0381,-4.0356,-4.0339,-4.0311,-4.0232,-4.0091,-4.004,-3.5926,-3.5926,-3.5904,-3.5769,-3.5616,-3.5616,-3.5616,-3.5616,-3.5616,-3.5616,-3.5616,-3.5616,-3.5616,-3.5622,-3.5694,-3.592,-3.6241,-3.635,-3.6516,-3.6716,-3.6796,-3.7013,-3.7243,-3.7485,-3.7613,-3.7613,-3.7631,-3.7595,-3.7595,-3.7595,-3.7595,-3.7649,-3.7667,-3.7721,-3.779,-3.7522,-3.7371,-3.7086,-3.6138,-3.5579,-3.5195,-3.4697,-3.4433,-3.4301,-3.4409,-3.4528,-3.4602,-3.4612,-3.494,-3.5503,-3.5559,-3.5559,-3.5503,-3.554,-3.5559,-3.5559,-3.5597,-3.5916,-3.6622,-3.6998,-3.7505,-3.8263,-3.9132,-3.9614,-3.9633,-3.9626,-3.9638,-3.9638,-3.9638,-3.9631,-3.9686,-3.9698,-3.9691,-3.9701,-3.9789,-3.9845,-3.9878,-3.99,-3.99,-3.99,-3.9889,-3.99,-3.99,-3.99,-3.99,-3.99,-3.99,-3.99,-3.99,-3.9919,-3.9976,-4.0639,-4.1056,-4.1454,-4.1825,-4.192,-4.176,-4.1347,-4.1089,-4.0847,-4.0432,-4.0099,-4.009,-4.007,-4.004,-4.004,-4.0101,-4.0177,-4.0186,-4.0215,-4.0205,-4.0186,-4.006,-3.9935,-3.9946,-3.5616,-3.5616,-3.5616,-3.5616,-3.5616,-3.5616,-3.5616,-3.5616,-3.5616,-3.5616,-3.5616,-3.5616,-3.5616,-3.5616,-3.5622,-3.5766,-3.6075,-3.6097,-3.6203,-3.6367,-3.6392,-3.6676,-3.7032,-3.7336,-3.7466,-3.7595,-3.7595,-3.7595,-3.7595,-3.7595,-3.7595,-3.7595,-3.7631,-3.7506,-3.7113,-3.6928,-3.6495,-3.5924,-3.5087,-3.4626,-3.4385,-3.4059,-3.395,-3.3985,-3.4161,-3.4281,-3.4377,-3.4862,-3.5259,-3.5428,-3.5653,-3.5886,-3.5935,-3.6235,-3.6385,-3.6385,-3.6397,-3.6761,-3.7418,-3.7606,-3.7981,-3.8713,-3.9401,-3.9552,-3.962,-3.9589,-3.9533,-3.9082,-3.9364,-3.9407,-3.9231,-3.9413,-3.9644,-3.9691,-3.9738,-3.9785,-3.9823,-3.9826,-3.9867,-3.9878,-3.9889,-3.99,-3.99,-3.99,-3.99,-3.99,-3.99,-3.99,-3.99,-3.9957,-4.0184,-4.0847,-4.1416,-4.1757,-4.2124,-4.2295,-4.2041,-4.1598,-4.0927,-4.0692,-4.0476,-4.003,-4.003,-4.0041,-3.9932,-3.9905,-4.0051,-4.0115,-4.008,-4.009,-4.008,-4.005,-3.9946,-3.99,-3.99,-3.5577,-3.5538,-3.5577,-3.5616,-3.5616,-3.5616,-3.5616,-3.5616,-3.5616,-3.5616,-3.5616,-3.5616,-3.5616,-3.5616,-3.5639,-3.5761,-3.6032,-3.6006,-3.6028,-3.6049,-3.6092,-3.6308,-3.6856,-3.7011,-3.7223,-3.7448,-3.7522,-3.7558,-3.7577,-3.7595,-3.7595,-3.7595,-3.7595,-3.7166,-3.6631,-3.6345,-3.559,-3.4731,-3.4326,-3.3979,-3.3738,-3.3637,-3.3652,-3.3721,-3.385,-3.3941,-3.4234,-3.4852,-3.5255,-3.4584,-3.5405,-3.5829,-3.5991,-3.6648,-3.6986,-3.7049,-3.7113,-3.7483,-3.8058,-3.8127,-3.8434,-3.9021,-3.9289,-3.9452,-3.9302,-3.9183,-3.8883,-3.8085,-3.8833,-3.8721,-3.8584,-3.8996,-3.9427,-3.9527,-3.9589,-3.9631,-3.9654,-3.9735,-3.9792,-3.9804,-3.9837,-3.9859,-3.99,-3.99,-3.99,-3.99,-3.99,-3.99,-4.0033,-4.0222,-4.0525,-4.1029,-4.1529,-4.1954,-4.2359,-4.2756,-4.2332,-4.187,-4.0964,-4.0544,-4.0563,-4.0306,-4.0184,-4.016,-4.0349,-4.0316,-4.0178,-4.0162,-4.0057,-3.9996,-3.9998,-3.9967,-3.9943,-3.9911,-3.99,-3.5509,-3.5367,-3.5532,-3.5616,-3.5616,-3.5616,-3.5616,-3.5616,-3.5616,-3.5616,-3.5616,-3.5616,-3.5616,-3.5616,-3.56,-3.565,-3.5739,-3.5756,-3.5717,-3.5694,-3.5656,-3.5888,-3.6305,-3.6553,-3.6876,-3.7127,-3.7186,-3.7337,-3.7522,-3.7558,-3.7595,-3.7595,-3.7559,-3.7184,-3.6399,-3.5757,-3.5078,-3.4181,-3.357,-3.3259,-3.3209,-3.3307,-3.3364,-3.3422,-3.3643,-3.3733,-3.3818,-3.4171,-3.429,-3.4439,-3.5152,-3.5739,-3.5941,-3.6465,-3.6857,-3.7098,-3.7505,-3.7822,-3.8008,-3.8014,-3.8024,-3.8159,-3.8604,-3.8772,-3.8136,-3.8126,-3.7737,-3.7092,-3.7068,-3.748,-3.7819,-3.8544,-3.8957,-3.9068,-3.9205,-3.9322,-3.9356,-3.9539,-3.9724,-3.9781,-3.9804,-3.9837,-3.9889,-3.9965,-3.9946,-3.9919,-3.9957,-3.9938,-4.0211,-4.0609,-4.1101,-4.1632,-4.1976,-4.2463,-4.2759,-4.2955,-4.247,-4.216,-4.1378,-4.0789,-4.0789,-4.1085,-4.118,-4.1067,-4.0948,-4.0816,-4.0695,-4.0127,-4.0,-3.9962,-3.9941,-3.9922,-3.9911,-3.99,-3.9848,-3.5188,-3.5152,-3.5367,-3.5458,-3.5481,-3.5554,-3.5616,-3.5616,-3.5616,-3.5616,-3.5616,-3.5616,-3.5616,-3.5616,-3.5616,-3.56,-3.5616,-3.56,-3.5577,-3.5549,-3.5537,-3.5633,-3.5734,-3.598,-3.6241,-3.6736,-3.6779,-3.6993,-3.7261,-3.7337,-3.7374,-3.7595,-3.7595,-3.6899,-3.5989,-3.5418,-3.4581,-3.3638,-3.3103,-3.282,-3.282,-3.3259,-3.3498,-3.356,-3.375,-3.3789,-3.3401,-3.3698,-3.3797,-3.3973,-3.4556,-3.5211,-3.564,-3.6229,-3.6632,-3.6851,-3.7067,-3.7533,-3.77,-3.7533,-3.7381,-3.7613,-3.7798,-3.7498,-3.7239,-3.7142,-3.6722,-3.6236,-3.6268,-3.673,-3.7142,-3.7849,-3.826,-3.844,-3.8752,-3.9045,-3.9115,-3.9439,-3.9703,-3.9731,-3.9754,-3.9758,-3.983,-3.9974,-4.0386,-4.0488,-4.1101,-4.112,-4.1245,-4.1642,-4.2013,-4.2425,-4.2691,-4.2988,-4.3239,-4.3101,-4.2523,-4.2285,-4.1996,-4.1594,-4.1443,-4.1906,-4.2393,-4.1961,-4.1398,-4.1549,-4.1349,-4.0715,-4.0172,-4.0359,-4.0359,-4.0067,-3.9889,-3.9889,-3.9826,-3.4875,-3.4875,-3.5175,-3.5308,-3.5337,-3.5509,-3.5577,-3.5549,-3.5554,-3.5549,-3.5554,-3.5554,-3.5549,-3.5594,-3.5532,-3.5532,-3.5509,-3.5509,-3.5435,-3.5469,-3.5406,-3.5429,-3.5475,-3.5526,-3.5711,-3.6346,-3.635,-3.6557,-3.6818,-3.6939,-3.7111,-3.7411,-3.754,-3.6862,-3.5704,-3.5295,-3.478,-3.3644,-3.3414,-3.3292,-3.3224,-3.372,-3.3949,-3.3804,-3.3916,-3.3637,-3.3183,-3.3273,-3.3559,-3.351,-3.3858,-3.4393,-3.5036,-3.5749,-3.6407,-3.644,-3.6537,-3.6773,-3.7091,-3.6883,-3.6759,-3.7376,-3.685,-3.6367,-3.6228,-3.609,-3.569,-3.5501,-3.5501,-3.6067,-3.6256,-3.6867,-3.7286,-3.7481,-3.8048,-3.8405,-3.8584,-3.9003,-3.9258,-3.9546,-3.9496,-3.9489,-3.9768,-4.0017,-4.0585,-4.1135,-4.1718,-4.2196,-4.2243,-4.237,-4.2559,-4.3095,-4.3366,-4.3566,-4.3824,-4.3366,-4.2787,-4.2548,-4.2409,-4.2013,-4.1773,-4.1755,-4.1948,-4.2042,-4.1792,-4.1794,-4.1481,-4.0691,-4.0462,-4.0771,-4.0534,-3.9996,-3.9867,-3.9878,-3.9781,-3.4763,-3.4618,-3.5088,-3.5308,-3.5337,-3.5509,-3.5487,-3.5344,-3.536,-3.5337,-3.5327,-3.5327,-3.5339,-3.5418,-3.5367,-3.5291,-3.5195,-3.5228,-3.5251,-3.5291,-3.5245,-3.5245,-3.5291,-3.5245,-3.5367,-3.5549,-3.5739,-3.6037,-3.6416,-3.6701,-3.6801,-3.6974,-3.7223,-3.6751,-3.6093,-3.5881,-3.5313,-3.4359,-3.4235,-3.4217,-3.4323,-3.45,-3.4376,-3.397,-3.3985,-3.3505,-3.29,-3.29,-3.3295,-3.3854,-3.4114,-3.4295,-3.4543,-3.4965,-3.5477,-3.5957,-3.6011,-3.6017,-3.6256,-3.6201,-3.6083,-3.6115,-3.59,-3.5499,-3.5136,-3.4917,-3.463,-3.4328,-3.4477,-3.4939,-3.4945,-3.5712,-3.6066,-3.6224,-3.6486,-3.6773,-3.6956,-3.7571,-3.8452,-3.8976,-3.9073,-3.9224,-3.9524,-3.9877,-4.0384,-4.0778,-4.116,-4.1812,-4.2177,-4.2316,-4.2517,-4.3228,-4.4018,-4.4197,-4.4406,-4.3724,-4.3109,-4.2884,-4.2602,-4.1931,-4.1642,-4.1267,-4.1229,-4.1304,-4.1417,-4.1386,-4.0979,-4.0603,-4.0426,-4.0498,-4.0185,-3.9792,-3.9758,-3.9712,-3.9599,-3.4423,-3.4333,-3.4715,-3.4899,-3.4923,-3.5142,-3.5205,-3.5088,-3.5088,-3.4872,-3.4605,-3.4522,-3.4568,-3.4608,-3.4585,-3.4659,-3.4951,-3.5065,-3.5135,-3.5175,-3.5135,-3.5081,-3.5065,-3.5018,-3.4947,-3.4977,-3.5148,-3.5526,-3.595,-3.6122,-3.6336,-3.6519,-3.6701,-3.6357,-3.5758,-3.5527,-3.524,-3.4754,-3.4651,-3.4707,-3.4869,-3.5134,-3.492,-3.4427,-3.4146,-3.3635,-3.2753,-3.2639,-3.2897,-3.3214,-3.3482,-3.3862,-3.415,-3.4217,-3.4331,-3.479,-3.4819,-3.4947,-3.5111,-3.5038,-3.4782,-3.5108,-3.4878,-3.4443,-3.4117,-3.3951,-3.3813,-3.3647,-3.3592,-3.3973,-3.4024,-3.4718,-3.5098,-3.5258,-3.5617,-3.6079,-3.6526,-3.7037,-3.7714,-3.8447,-3.8789,-3.8993,-3.9166,-3.9602,-4.0115,-4.0444,-4.0697,-4.1293,-4.1989,-4.2096,-4.2178,-4.2787,-4.3476,-4.3719,-4.3871,-4.3501,-4.3163,-4.305,-4.2637,-4.1961,-4.1578,-4.1241,-4.0766,-4.0497,-4.0622,-4.0877,-4.1192,-4.1061,-4.0665,-4.02,-3.9948,-3.9729,-3.9606,-3.9495,-3.9364,-3.4101,-3.4126,-3.4399,-3.448,-3.4546,-3.4804,-3.4875,-3.4811,-3.4828,-3.4513,-3.4001,-3.3985,-3.4041,-3.3991,-3.4051,-3.4275,-3.4787,-3.4906,-3.4994,-3.4994,-3.4994,-3.4947,-3.4851,-3.4732,-3.4643,-3.4635,-3.4691,-3.4984,-3.543,-3.5661,-3.582,-3.6015,-3.6084,-3.5907,-3.5463,-3.5466,-3.4941,-3.4794,-3.4745,-3.488,-3.5246,-3.5671,-3.5583,-3.4793,-3.4688,-3.3951,-3.2616,-3.2507,-3.2715,-3.2941,-3.3197,-3.3536,-3.404,-3.3774,-3.347,-3.34,-3.3393,-3.3791,-3.3991,-3.3933,-3.3894,-3.428,-3.3773,-3.352,-3.3451,-3.3523,-3.3418,-3.3364,-3.337,-3.3421,-3.3548,-3.3946,-3.4361,-3.4736,-3.5206,-3.5786,-3.6395,-3.6896,-3.7255,-3.789,-3.8441,-3.8762,-3.8888,-3.9073,-3.9555,-4.0012,-4.0271,-4.0935,-4.1518,-4.1477,-4.1635,-4.2145,-4.2628,-4.2916,-4.3026,-4.3013,-4.2862,-4.2905,-4.2374,-4.1698,-4.1466,-4.1239,-4.0639,-3.9932,-4.0152,-4.0448,-4.0988,-4.1135,-4.0346,-3.9808,-3.9733,-3.9571,-3.9311,-3.9168,-3.9059,-3.4101,-3.4126,-3.439,-3.448,-3.448,-3.4715,-3.4715,-3.4505,-3.4497,-3.4513,-3.4121,-3.4325,-3.4307,-3.4379,-3.4357,-3.4374,-3.448,-3.4618,-3.4714,-3.4631,-3.4648,-3.4574,-3.4592,-3.457,-3.4333,-3.4268,-3.4399,-3.4618,-3.4937,-3.5339,-3.5498,-3.5549,-3.5776,-3.5947,-3.5543,-3.5448,-3.5753,-3.5651,-3.5935,-3.6264,-3.6503,-3.665,-3.5948,-3.5055,-3.4564,-3.395,-3.2634,-3.2457,-3.2668,-3.3213,-3.3492,-3.3768,-3.4025,-3.4167,-3.3857,-3.3584,-3.3411,-3.3447,-3.3559,-3.3502,-3.3414,-3.3668,-3.3469,-3.3393,-3.3349,-3.3337,-3.3307,-3.3307,-3.3211,-3.3196,-3.3277,-3.3373,-3.3782,-3.4297,-3.4852,-3.5374,-3.5951,-3.6832,-3.7194,-3.7575,-3.8202,-3.841,-3.8578,-3.8734,-3.8958,-3.942,-3.9933,-4.0513,-4.0868,-4.0737,-4.0741,-4.1146,-4.1603,-4.1907,-4.2155,-4.2151,-4.2352,-4.2548,-4.2093,-4.1419,-4.1084,-4.0723,-3.9991,-3.9513,-3.9728,-3.9798,-4.005,-3.996,-3.9557,-3.9418,-3.933,-3.9147,-3.8923,-3.8803,-3.8715,-3.3975,-3.3787,-3.3873,-3.3781,-3.3594,-3.3958,-3.3866,-3.3662,-3.3806,-3.3556,-3.3109,-3.3237,-3.3477,-3.3828,-3.4088,-3.4284,-3.4325,-3.4391,-3.4259,-3.3995,-3.393,-3.3742,-3.331,-3.3263,-3.3313,-3.3689,-3.3795,-3.4072,-3.4438,-3.4747,-3.4937,-3.4944,-3.5085,-3.5138,-3.5214,-3.5115,-3.5191,-3.5408,-3.5847,-3.6262,-3.6364,-3.6385,-3.5916,-3.4547,-3.446,-3.3663,-3.2774,-3.2423,-3.2529,-3.2897,-3.3,-3.3102,-3.3202,-3.3332,-3.3315,-3.3242,-3.3119,-3.3214,-3.3367,-3.3378,-3.3382,-3.337,-3.3337,-3.3304,-3.3241,-3.3196,-3.3198,-3.3198,-3.3135,-3.3152,-3.3327,-3.3646,-3.4035,-3.4481,-3.4923,-3.5634,-3.6174,-3.6564,-3.7176,-3.7575,-3.7937,-3.8163,-3.8354,-3.8441,-3.8593,-3.886,-3.9148,-3.9456,-3.9686,-3.9643,-3.9723,-3.9932,-4.0411,-4.0853,-4.1118,-4.1252,-4.1545,-4.1727,-4.1727,-4.1095,-4.056,-4.0034,-3.9453,-3.911,-3.9182,-3.9217,-3.9207,-3.9184,-3.9124,-3.9026,-3.8913,-3.8748,-3.8563,-3.8407,-3.8296,-3.3389,-3.3198,-3.3398,-3.3235,-3.283,-3.3182,-3.314,-3.2884,-3.3182,-3.2872,-3.2379,-3.2576,-3.2949,-3.3247,-3.3833,-3.4062,-3.3958,-3.3999,-3.3632,-3.3295,-3.3034,-3.2798,-3.2539,-3.2322,-3.2447,-3.2846,-3.3178,-3.3486,-3.3909,-3.4284,-3.4456,-3.4497,-3.4626,-3.4594,-3.4546,-3.4602,-3.4771,-3.5091,-3.5487,-3.5727,-3.5832,-3.6049,-3.5418,-3.4723,-3.4217,-3.3781,-3.2773,-3.2564,-3.2581,-3.2458,-3.2669,-3.2845,-3.2948,-3.2983,-3.3016,-3.294,-3.285,-3.2719,-3.2945,-3.3086,-3.3244,-3.3277,-3.3247,-3.3196,-3.3132,-3.3086,-3.3008,-3.2961,-3.3024,-3.3098,-3.3351,-3.3904,-3.4424,-3.4873,-3.5427,-3.6209,-3.6851,-3.7032,-3.7298,-3.7707,-3.7997,-3.8066,-3.8207,-3.8225,-3.8309,-3.8403,-3.8496,-3.8575,-3.8701,-3.8855,-3.9054,-3.9334,-3.9534,-3.9937,-4.0052,-4.0337,-4.0658,-4.0797,-4.0797,-4.0569,-3.993,-3.9593,-3.9205,-3.8969,-3.8777,-3.8664,-3.8631,-3.871,-3.877,-3.8676,-3.8585,-3.8428,-3.8267,-3.8101,-3.7966,-3.2071,-3.2358,-3.3145,-3.3182,-3.2761,-3.2815,-3.283,-3.2695,-3.2788,-3.2799,-3.2663,-3.3119,-3.3206,-3.3467,-3.3595,-3.3582,-3.3186,-3.3258,-3.2827,-3.246,-3.2248,-3.2134,-3.1892,-3.1813,-3.1938,-3.219,-3.2602,-3.3016,-3.3364,-3.3997,-3.4235,-3.4448,-3.4423,-3.4472,-3.4472,-3.4448,-3.4578,-3.4826,-3.5045,-3.5214,-3.5436,-3.561,-3.5307,-3.4768,-3.4567,-3.4223,-3.3069,-3.2967,-3.2851,-3.2581,-3.2838,-3.2905,-3.2944,-3.2975,-3.2993,-3.272,-3.2511,-3.2337,-3.237,-3.2669,-3.2977,-3.307,-3.3039,-3.2961,-3.288,-3.2961,-3.2882,-3.2673,-3.2777,-3.3113,-3.3419,-3.3881,-3.4624,-3.5244,-3.5776,-3.6309,-3.688,-3.7202,-3.7506,-3.7861,-3.8054,-3.8089,-3.8089,-3.8107,-3.8175,-3.8307,-3.8322,-3.8403,-3.8512,-3.8655,-3.8777,-3.891,-3.8925,-3.9051,-3.9047,-3.9279,-3.954,-3.9598,-3.9562,-3.9406,-3.908,-3.886,-3.8781,-3.8611,-3.8382,-3.8219,-3.8136,-3.8318,-3.8415,-3.8366,-3.8251,-3.8101,-3.8001,-3.7845,-3.7757,-3.23,-3.2247,-3.2578,-3.2425,-3.2035,-3.2315,-3.2259,-3.2092,-3.2299,-3.2437,-3.2419,-3.2456,-3.2577,-3.2781,-3.2731,-3.2692,-3.2433,-3.2448,-3.2017,-3.1628,-3.1378,-3.1157,-3.094,-3.0875,-3.0878,-3.139,-3.2077,-3.274,-3.3145,-3.3761,-3.4045,-3.4226,-3.4275,-3.425,-3.4267,-3.4275,-3.4358,-3.448,-3.4626,-3.4826,-3.4778,-3.5052,-3.4935,-3.4376,-3.433,-3.4067,-3.3471,-3.3377,-3.3269,-3.3171,-3.3235,-3.3083,-3.2967,-3.3054,-3.285,-3.2414,-3.2173,-3.2089,-3.1857,-3.2144,-3.2351,-3.2299,-3.2317,-3.2368,-3.2437,-3.2369,-3.2301,-3.2302,-3.2599,-3.3037,-3.3137,-3.4025,-3.4988,-3.5591,-3.605,-3.6435,-3.6765,-3.7058,-3.732,-3.7559,-3.781,-3.7969,-3.7986,-3.8021,-3.8107,-3.8192,-3.8209,-3.8224,-3.8354,-3.8435,-3.8546,-3.8593,-3.8593,-3.8578,-3.858,-3.8549,-3.8501,-3.8499,-3.8515,-3.8512,-3.851,-3.8352,-3.8242,-3.8104,-3.8034,-3.7948,-3.7948,-3.8053,-3.8087,-3.8087,-3.7984,-3.7827,-3.7703,-3.7631,-3.7613,-3.2259,-3.1994,-3.1981,-3.1811,-3.1553,-3.1868,-3.1811,-3.1552,-3.1611,-3.1582,-3.1442,-3.1327,-3.156,-3.1801,-3.1926,-3.1772,-3.1722,-3.1639,-3.1218,-3.0862,-3.0538,-3.0295,-3.0058,-3.001,-3.0318,-3.0765,-3.1591,-3.2352,-3.2708,-3.3647,-3.4045,-3.4101,-3.4101,-3.4126,-3.4126,-3.4101,-3.4101,-3.4176,-3.43,-3.4448,-3.4325,-3.4537,-3.4631,-3.425,-3.428,-3.3918,-3.3512,-3.3287,-3.3084,-3.294,-3.2852,-3.2825,-3.2785,-3.2744,-3.2605,-3.2201,-3.1916,-3.1984,-3.1615,-3.1695,-3.1842,-3.1896,-3.186,-3.1895,-3.1822,-3.1857,-3.1946,-3.2178,-3.2555,-3.2932,-3.3147,-3.4304,-3.5087,-3.56,-3.5727,-3.6057,-3.6333,-3.6623,-3.69,-3.7186,-3.7393,-3.7558,-3.7793,-3.781,-3.7951,-3.8037,-3.8088,-3.8157,-3.8259,-3.829,-3.829,-3.8307,-3.8325,-3.8276,-3.8225,-3.829,-3.8338,-3.8305,-3.8289,-3.8188,-3.8119,-3.7948,-3.7698,-3.7499,-3.7483,-3.7648,-3.7684,-3.7611,-3.7719,-3.7846,-3.7739,-3.7685,-3.7649,-3.7613,-3.7595,-3.1553,-3.1496,-3.1524,-3.1524,-3.1496,-3.1496,-3.1524,-3.1316,-3.0819,-3.0336,-2.9997,-3.0171,-3.0459,-3.081,-3.1003,-3.0927,-3.0778,-3.0774,-3.0483,-3.001,-2.9812,-2.9836,-2.9842,-2.9826,-2.9832,-3.0237,-3.1172,-3.195,-3.2134,-3.3386,-3.3912,-3.4101,-3.4101,-3.4101,-3.4101,-3.4101,-3.4101,-3.4101,-3.4151,-3.4151,-3.4176,-3.43,-3.4301,-3.4325,-3.4357,-3.3975,-3.3401,-3.3249,-3.2946,-3.2324,-3.2411,-3.2365,-3.2223,-3.2699,-3.2512,-3.1786,-3.1777,-3.1473,-3.0763,-3.1349,-3.1528,-3.1547,-3.1471,-3.1545,-3.1638,-3.1742,-3.1869,-3.2114,-3.2673,-3.3379,-3.3997,-3.4623,-3.5103,-3.5387,-3.5504,-3.565,-3.5924,-3.6211,-3.6519,-3.6739,-3.6836,-3.6974,-3.7338,-3.7613,-3.7774,-3.788,-3.7966,-3.8053,-3.814,-3.8192,-3.8192,-3.8209,-3.8209,-3.8209,-3.8192,-3.8157,-3.8174,-3.8157,-3.8035,-3.7877,-3.7717,-3.7557,-3.7271,-3.6912,-3.6771,-3.6791,-3.6952,-3.7113,-3.7345,-3.7578,-3.7649,-3.7613,-3.7595,-3.7558,-3.7503,-3.1496,-3.1496,-3.1496,-3.1496,-3.1496,-3.1496,-3.1256,-3.0791,-3.0193,-2.9801,-2.9612,-2.9548,-2.9521,-2.9666,-2.9637,-2.9651,-2.954,-2.9445,-2.9192,-2.9159,-2.8943,-2.9144,-2.9259,-2.9301,-2.9399,-3.0067,-3.0985,-3.1742,-3.206,-3.3198,-3.3811,-3.4025,-3.4101,-3.4101,-3.4101,-3.4101,-3.4101,-3.4101,-3.4101,-3.4101,-3.4126,-3.4151,-3.4201,-3.4275,-3.4349,-3.3997,-3.3294,-3.3247,-3.2779,-3.2106,-3.2229,-3.2117,-3.2112,-3.2586,-3.2762,-3.221,-3.2177,-3.2464,-3.1487,-3.1202,-3.0898,-3.0978,-3.1041,-3.11,-3.1058,-3.1544,-3.1799,-3.2228,-3.2946,-3.358,-3.3957,-3.4553,-3.5017,-3.5153,-3.5258,-3.5321,-3.5538,-3.582,-3.6105,-3.627,-3.6392,-3.6516,-3.6781,-3.7073,-3.7282,-3.7468,-3.7541,-3.7862,-3.802,-3.814,-3.8174,-3.8192,-3.8209,-3.8209,-3.8192,-3.8072,-3.7877,-3.777,-3.7629,-3.7452,-3.7309,-3.6987,-3.6434,-3.5846,-3.5864,-3.59,-3.6203,-3.6542,-3.7059,-3.7327,-3.7378,-3.7485,-3.7522,-3.7411,-3.7242,-3.1496,-3.1496,-3.1496,-3.1361,-3.1167,-3.1137,-3.0658,-2.9894,-2.9415,-2.9157,-2.888,-2.8662,-2.8672,-2.871,-2.8614,-2.863,-2.8662,-2.8709,-2.8724,-2.8615,-2.8227,-2.8388,-2.8516,-2.8576,-2.8624,-2.9418,-3.0489,-3.1363,-3.1823,-3.2946,-3.3665,-3.4025,-3.4101,-3.4101,-3.4101,-3.4101,-3.4101,-3.4101,-3.4101,-3.4101,-3.4101,-3.4126,-3.4151,-3.4201,-3.4153,-3.3925,-3.3451,-3.3121,-3.2837,-3.2346,-3.199,-3.1891,-3.2012,-3.2464,-3.2862,-3.2613,-3.2332,-3.2497,-3.1653,-3.0907,-3.0775,-3.1041,-3.0771,-3.0647,-3.0763,-3.1324,-3.1841,-3.2375,-3.3255,-3.3779,-3.421,-3.4767,-3.488,-3.5041,-3.5065,-3.5152,-3.5251,-3.5526,-3.5661,-3.5832,-3.592,-3.6054,-3.6245,-3.6495,-3.6721,-3.6919,-3.7095,-3.745,-3.7774,-3.7915,-3.8003,-3.802,-3.7984,-3.7897,-3.788,-3.7846,-3.7667,-3.7434,-3.7149,-3.6827,-3.6346,-3.5954,-3.5368,-3.4942,-3.5155,-3.5368,-3.5616,-3.5971,-3.6449,-3.6854,-3.7076,-3.7204,-3.7392,-3.7242,-3.6993,-3.1496,-3.1496,-3.1481,-3.1077,-3.0567,-3.0462,-2.9729,-2.8667,-2.8607,-2.8259,-2.7685,-2.7745,-2.7921,-2.8174,-2.8171,-2.8286,-2.8487,-2.8519,-2.8426,-2.8256,-2.7673,-2.7695,-2.7632,-2.7691,-2.7881,-2.849,-2.9616,-3.1033,-3.1506,-3.2778,-3.3636,-3.4,-3.4034,-3.4075,-3.4075,-3.4101,-3.4101,-3.4101,-3.4101,-3.4101,-3.4101,-3.4101,-3.4101,-3.4126,-3.4086,-3.377,-3.3315,-3.2833,-3.2256,-3.1681,-3.11,-3.1214,-3.1609,-3.2348,-3.258,-3.258,-3.2177,-3.1912,-3.173,-3.1151,-3.1168,-3.1482,-3.1123,-3.0775,-3.099,-3.1674,-3.2309,-3.2857,-3.3613,-3.421,-3.4733,-3.4816,-3.4906,-3.4947,-3.4947,-3.4994,-3.5065,-3.5188,-3.5274,-3.5344,-3.5412,-3.5554,-3.5783,-3.6006,-3.6245,-3.6312,-3.6484,-3.6783,-3.7132,-3.7522,-3.7613,-3.7703,-3.7632,-3.7506,-3.7434,-3.7238,-3.7077,-3.6756,-3.6292,-3.5935,-3.5421,-3.5013,-3.4482,-3.4287,-3.4588,-3.4783,-3.4782,-3.5219,-3.5864,-3.6227,-3.6571,-3.6876,-3.7032,-3.6917,-3.6719,-3.1496,-3.1451,-3.1001,-3.0687,-3.0387,-2.952,-2.8921,-2.8562,-2.8113,-2.7735,-2.7585,-2.7585,-2.7675,-2.7775,-2.776,-2.786,-2.786,-2.776,-2.7457,-2.7161,-2.6818,-2.6642,-2.6649,-2.6824,-2.7145,-2.8124,-2.9359,-3.0617,-3.1265,-3.252,-3.3565,-3.3899,-3.3958,-3.4,-3.405,-3.4075,-3.4075,-3.4075,-3.4075,-3.4075,-3.4075,-3.4075,-3.4075,-3.4075,-3.4075,-3.3753,-3.3259,-3.3014,-3.2523,-3.1998,-3.1917,-3.1962,-3.1446,-3.2662,-3.3458,-3.3392,-3.2878,-3.2398,-3.2348,-3.2183,-3.2133,-3.2282,-3.2116,-3.2133,-3.2266,-3.2613,-3.3143,-3.3497,-3.3995,-3.4584,-3.48,-3.4866,-3.4899,-3.4899,-3.4899,-3.4947,-3.4994,-3.5041,-3.5088,-3.5152,-3.5198,-3.5228,-3.5441,-3.5583,-3.5788,-3.5771,-3.5885,-3.6147,-3.646,-3.686,-3.7111,-3.7208,-3.7087,-3.6906,-3.6486,-3.6238,-3.6185,-3.6024,-3.5629,-3.5321,-3.5105,-3.461,-3.3802,-3.3612,-3.3967,-3.3914,-3.3736,-3.4324,-3.5079,-3.5653,-3.605,-3.6388,-3.6618,-3.6495,-3.6333,-3.1158,-3.0919,-3.063,-3.0223,-2.9609,-2.8637,-2.8229,-2.8139,-2.7764,-2.7585,-2.7585,-2.7585,-2.7575,-2.7539,-2.7575,-2.7575,-2.7473,-2.7484,-2.72,-2.6617,-2.5976,-2.5898,-2.5948,-2.607,-2.6489,-2.7551,-2.8715,-2.9852,-3.0851,-3.2358,-3.3555,-3.3694,-3.3822,-3.3924,-3.3975,-3.3949,-3.394,-3.3975,-3.4,-3.4025,-3.4,-3.4,-3.4,-3.3975,-3.4,-3.375,-3.3411,-3.3315,-3.2942,-3.2534,-3.2597,-3.2374,-3.2073,-3.3076,-3.3587,-3.3423,-3.2941,-3.2861,-3.2955,-3.2746,-3.2884,-3.305,-3.311,-3.327,-3.3369,-3.3578,-3.369,-3.3846,-3.4442,-3.4899,-3.4899,-3.4899,-3.4899,-3.4899,-3.4899,-3.4899,-3.4947,-3.497,-3.4994,-3.5018,-3.5041,-3.5065,-3.5142,-3.5258,-3.5327,-3.531,-3.5362,-3.5549,-3.5864,-3.6232,-3.646,-3.6583,-3.6404,-3.6199,-3.5775,-3.5463,-3.5437,-3.5411,-3.5225,-3.4946,-3.4763,-3.4473,-3.3885,-3.354,-3.3371,-3.3472,-3.3781,-3.3749,-3.4269,-3.4902,-3.5377,-3.5514,-3.5814,-3.6032,-3.5898,-3.0631,-3.0127,-3.022,-2.9486,-2.8439,-2.7797,-2.7569,-2.7575,-2.7539,-2.756,-2.7575,-2.7575,-2.7514,-2.7452,-2.7473,-2.7437,-2.7335,-2.7295,-2.6876,-2.6342,-2.5883,-2.5569,-2.5348,-2.5485,-2.609,-2.6768,-2.7878,-2.9459,-3.0668,-3.198,-3.3022,-3.3408,-3.3601,-3.3688,-3.3704,-3.3771,-3.3668,-3.3377,-3.3652,-3.3806,-3.3797,-3.3797,-3.3822,-3.3745,-3.3797,-3.3809,-3.3655,-3.3433,-3.3145,-3.2975,-3.282,-3.2666,-3.283,-3.2506,-3.2764,-3.2754,-3.2178,-3.2338,-3.2672,-3.2741,-3.3175,-3.3462,-3.3839,-3.4057,-3.4166,-3.4173,-3.4154,-3.4164,-3.4653,-3.4883,-3.4899,-3.4899,-3.4899,-3.4899,-3.4899,-3.4899,-3.4923,-3.4947,-3.4947,-3.497,-3.497,-3.497,-3.4994,-3.5111,-3.5118,-3.4994,-3.5001,-3.5148,-3.5316,-3.5688,-3.5907,-3.6045,-3.5797,-3.5569,-3.5304,-3.5013,-3.4819,-3.4734,-3.4679,-3.4833,-3.4846,-3.4497,-3.4046,-3.3662,-3.3328,-3.3842,-3.4144,-3.3976,-3.3952,-3.4448,-3.4751,-3.4608,-3.4883,-3.5363,-3.5515,-3.0456,-2.9982,-2.8856,-2.7896,-2.7223,-2.7151,-2.7144,-2.7144,-2.7258,-2.7346,-2.7437,-2.7452,-2.7452,-2.7401,-2.7321,-2.7284,-2.7325,-2.7019,-2.6484,-2.6096,-2.5678,-2.5392,-2.5041,-2.553,-2.5963,-2.6648,-2.7786,-2.9294,-3.059,-3.1622,-3.2394,-3.2884,-3.3071,-3.3097,-3.3282,-3.3393,-3.3245,-3.283,-3.3044,-3.3403,-3.3539,-3.3642,-3.372,-3.3668,-3.371,-3.3455,-3.3391,-3.3447,-3.3236,-3.3079,-3.3042,-3.2923,-3.2819,-3.1351,-3.0944,-3.1112,-3.1061,-3.1334,-3.1876,-3.2512,-3.3086,-3.3696,-3.4103,-3.4466,-3.4655,-3.462,-3.4587,-3.4589,-3.4662,-3.4809,-3.4899,-3.4899,-3.4899,-3.4899,-3.4899,-3.4899,-3.4899,-3.4899,-3.4899,-3.4899,-3.4899,-3.4899,-3.4899,-3.4899,-3.4899,-3.4923,-3.4923,-3.4994,-3.5001,-3.5241,-3.5526,-3.5608,-3.5249,-3.5023,-3.4712,-3.4695,-3.4575,-3.4389,-3.4347,-3.458,-3.4931,-3.4648,-3.43,-3.3693,-3.3448,-3.3952,-3.4165,-3.3835,-3.391,-3.4326,-3.4355,-3.4292,-3.4483,-3.492,-3.5048,-2.9696,-2.9101,-2.7699,-2.6949,-2.6765,-2.691,-2.6937,-2.6922,-2.7104,-2.7155,-2.7155,-2.7248,-2.7299,-2.7273,-2.7207,-2.71,-2.7082,-2.6795,-2.6339,-2.5899,-2.5644,-2.5482,-2.5477,-2.5707,-2.6186,-2.6846,-2.808,-2.9451,-3.0331,-3.1257,-3.1892,-3.2213,-3.2269,-3.2461,-3.2707,-3.283,-3.2722,-3.2394,-3.2489,-3.2668,-3.298,-3.298,-3.3113,-3.3113,-3.3033,-3.2857,-3.2857,-3.2953,-3.2911,-3.2761,-3.2683,-3.2291,-3.1897,-3.1004,-3.067,-3.0835,-3.0886,-3.0738,-3.1492,-3.2201,-3.2885,-3.3403,-3.3589,-3.3652,-3.3566,-3.3537,-3.4137,-3.4219,-3.4704,-3.4899,-3.4899,-3.4899,-3.4899,-3.4899,-3.4899,-3.4899,-3.4899,-3.4899,-3.4899,-3.4899,-3.4899,-3.4899,-3.4899,-3.4899,-3.4899,-3.4899,-3.4899,-3.4899,-3.4899,-3.4866,-3.5138,-3.5244,-3.4947,-3.4283,-3.3693,-3.4007,-3.446,-3.4281,-3.4157,-3.4678,-3.5116,-3.4886,-3.4533,-3.4175,-3.3963,-3.4096,-3.4137,-3.3876,-3.3931,-3.4288,-3.4176,-3.4005,-3.4267,-3.4497,-3.4667,-2.8651,-2.7883,-2.6743,-2.6377,-2.6604,-2.6791,-2.6765,-2.6683,-2.6933,-2.6948,-2.6765,-2.6974,-2.7,-2.7041,-2.7026,-2.6864,-2.6695,-2.6517,-2.6173,-2.5795,-2.5648,-2.5678,-2.5833,-2.6061,-2.644,-2.7126,-2.8228,-2.8735,-2.9258,-3.0363,-3.119,-3.1364,-3.1623,-3.1836,-3.2061,-3.2046,-3.1792,-3.1864,-3.1892,-3.1836,-3.1892,-3.1977,-3.2284,-3.2339,-3.2241,-3.2046,-3.2089,-3.2216,-3.2299,-3.2216,-3.2089,-3.1706,-3.1261,-3.0669,-3.0646,-3.0637,-3.0463,-3.0899,-3.1665,-3.1953,-3.2324,-3.2549,-3.2594,-3.2644,-3.2606,-3.2902,-3.3495,-3.3843,-3.4301,-3.465,-3.465,-3.4723,-3.4739,-3.4875,-3.4875,-3.4875,-3.4875,-3.4875,-3.4875,-3.4875,-3.4875,-3.4875,-3.4875,-3.4875,-3.4899,-3.4899,-3.4899,-3.4899,-3.4883,-3.4816,-3.4908,-3.4945,-3.4814,-3.4022,-3.3327,-3.3688,-3.4528,-3.4528,-3.453,-3.5,-3.5258,-3.4981,-3.4868,-3.4975,-3.4838,-3.4502,-3.4294,-3.4052,-3.4193,-3.4268,-3.4146,-3.4031,-3.4145,-3.4349,-3.4423,-2.7734,-2.7004,-2.6271,-2.6002,-2.6084,-2.6218,-2.626,-2.6245,-2.642,-2.6447,-2.6447,-2.6447,-2.6553,-2.6791,-2.6671,-2.65,-2.6289,-2.6228,-2.5781,-2.5272,-2.5889,-2.6064,-2.6141,-2.6216,-2.655,-2.7173,-2.7843,-2.8394,-2.884,-2.9827,-3.0598,-3.0896,-3.0925,-3.1073,-3.1146,-3.1175,-3.1291,-3.1291,-3.1306,-3.1277,-3.1495,-3.1667,-3.1892,-3.1977,-3.1992,-3.1752,-3.1682,-3.1823,-3.1737,-3.161,-3.1466,-3.1173,-3.082,-3.0395,-3.029,-3.0272,-3.0078,-3.021,-3.0772,-3.121,-3.1457,-3.1886,-3.2025,-3.236,-3.236,-3.24,-3.2725,-3.2714,-3.3182,-3.3665,-3.3809,-3.3995,-3.4095,-3.4513,-3.4699,-3.4715,-3.4715,-3.4739,-3.478,-3.478,-3.478,-3.478,-3.4756,-3.478,-3.4851,-3.4851,-3.4875,-3.4875,-3.4828,-3.4752,-3.47,-3.4677,-3.466,-3.475,-3.4525,-3.427,-3.4731,-3.4741,-3.4757,-3.4927,-3.5018,-3.4994,-3.4947,-3.4947,-3.4804,-3.4479,-3.4309,-3.4137,-3.4137,-3.4144,-3.4152,-3.4086,-3.4176,-3.4176,-3.4201]},{"header":{"parameterUnit":"m.s-1","parameterCategory":1,"la1":31.0,"la2":29.5877,"lo1":-88.7671,"lo2":-86.6584,"dy":0.0162,"dx":0.0185,"nx":115,"ny":88,"refTime":"2023-11-04T06:00:00:Z","depth":0,"parameterNumber":3,"parameterNumberName":"V-component_of_WINDS"},"data":[0.0,0.0,0.0,0.0,0.0,0.0,0.0,0.0,0.0,0.0,0.0,0.0,0.0,0.0,0.0,0.0,0.0,0.0,0.0,0.0,0.0,0.0,0.0,0.0,0.0,0.0,0.0,0.0,0.0,0.0,0.0,0.0,0.0,0.0,0.0,0.0,0.0,0.0,0.0,0.0,0.0,0.0,0.0,0.0,0.0,0.0,0.0,0.0,0.0,0.0,0.0,0.0,0.0,0.0,0.0,0.0,0.0,0.0,0.0,0.0,0.0,0.0,0.0,0.0,0.0,0.0,0.0,0.0,0.0,0.0,0.0,0.0,0.0,0.0,0.0,0.0,0.0,0.0,0.0,0.0,0.0,0.0,0.0,0.0,0.0,0.0,0.0,0.0,0.0,0.0,0.0,0.0,0.0,0.0,0.0,0.0,0.0,0.0,0.0,0.0,0.0,0.0,0.0,0.0,0.0,0.0,0.0,0.0,0.0,0.0,0.0,0.0,0.0,0.0,0.0,0.0,0.0,0.0,0.0,0.0,0.0,0.0,0.0,0.0,0.0,0.0,0.0,0.0,0.0,0.0,0.0,0.0,0.0,0.0,0.0,0.0,0.0,0.0,0.0,0.0,0.0,0.0,0.0,0.0,0.0,0.0,0.0,0.0,0.0,0.0,0.0,0.0,0.0,0.0,0.0,0.0,0.0,0.0,0.0,0.0,0.0,0.0,0.0,0.0,0.0,0.0,0.0,0.0,0.0,0.0,0.0,0.0,0.0,0.0,0.0,0.0,0.0,0.0,0.0,0.0,0.0,0.0,0.0,0.0,0.0,0.0,0.0,0.0,0.0,0.0,0.0,0.0,0.0,0.0,0.0,0.0,0.0,0.0,0.0,0.0,0.0,0.0,0.0,0.0,0.0,0.0,0.0,0.0,0.0,0.0,0.0,0.0,0.0,0.0,0.0,0.0,0.0,0.0,0.0,0.0,0.0,0.0,0.0,0.0,0.0,0.0,0.0,0.0,0.0,0.0,0.0,0.0,0.0,0.0,0.0,0.0,0.0,0.0,0.0,0.0,0.0,0.0,0.0,0.0,0.0,0.0,0.0,0.0,0.0,0.0,0.0,0.0,0.0,0.0,0.0,0.0,0.0,0.0,0.0,0.0,0.0,0.0,0.0,0.0,0.0,0.0,0.0,0.0,0.0,0.0,0.0,0.0,0.0,0.0,0.0,0.0,0.0,0.0,0.0,0.0,0.0,0.0,0.0,0.0,0.0,0.0,0.0,0.0,0.0,0.0,0.0,0.0,0.0,0.0,0.0,0.0,0.0,0.0,0.0,0.0,0.0,0.0,0.0,0.0,0.0,0.0,0.0,0.0,0.0,0.0,0.0,0.0,0.0,0.0,0.0,0.0,0.0,0.0,0.0,0.0,0.0,0.0,0.0,0.0,0.0,0.0,0.0,0.0,0.0,0.0,0.0,0.0,0.0,0.0,0.0,0.0,0.0,0.0,0.0,0.0,0.0,0.0,0.0,0.0,0.0,0.0,0.0,0.0,0.0,0.0,0.0,0.0,0.0,0.0,0.0,0.0,0.0,0.0,0.0,0.0,0.0,0.0,0.0,0.0,0.0,0.0,0.0,0.0,0.0,0.0,0.0,0.0,0.0,0.0,0.0,0.0,0.0,0.0,0.0,0.0,0.0,0.0,0.0,0.0,0.0,0.0,0.0,0.0,0.0,0.0,0.0,0.0,0.0,0.0,0.0,0.0,0.0,0.0,0.0,0.0,0.0,0.0,0.0,0.0,0.0,0.0,0.0,0.0,0.0,0.0,0.0,0.0,0.0,0.0,0.0,0.0,0.0,0.0,0.0,0.0,0.0,0.0,0.0,0.0,0.0,0.0,0.0,0.0,0.0,0.0,0.0,0.0,0.0,0.0,0.0,0.0,0.0,0.0,0.0,0.0,0.0,0.0,0.0,0.0,0.0,0.0,0.0,0.0,0.0,0.0,0.0,0.0,0.0,0.0,0.0,0.0,0.0,0.0,0.0,0.0,0.0,0.0,0.0,0.0,0.0,0.0,0.0,0.0,0.0,0.0,0.0,0.0,0.0,0.0,0.0,0.0,0.0,0.0,0.0,0.0,0.0,0.0,0.0,0.0,0.0,0.0,0.0,0.0,0.0,0.0,0.0,0.0,0.0,0.0,0.0,0.0,0.0,0.0,0.0,0.0,0.0,0.0,0.0,0.0,0.0,0.0,0.0,0.0,0.0,0.0,0.0,0.0,0.0,0.0,0.0,0.0,0.0,0.0,0.0,0.0,0.0,0.0,0.0,0.0,0.0,0.0,0.0,0.0,0.0,0.0,0.0,0.0,0.0,0.0,0.0,0.0,0.0,0.0,0.0,0.0,0.0,0.0,0.0,0.0,0.0,0.0,0.0,0.0,0.0,0.0,0.0,0.0,0.0,0.0,0.0,0.0,0.0,0.0,0.0,0.0,0.0,0.0,0.0,0.0,0.0,0.0,0.0,0.0,0.0,0.0,0.0,0.0,0.0,0.0,0.0,0.0,0.0,0.0,0.0,0.0,0.0,0.0,0.0,0.0,0.0,0.0,0.0,0.0,0.0,0.0,0.0,0.0,0.0,0.0,0.0,0.0,0.0,0.0,0.0,0.0,0.0,0.0,0.0,0.0,0.0,0.0,0.0,0.0,0.0,0.0,0.0,0.0,0.0,0.0,0.0,0.0,0.0,0.0,0.0,0.0,0.0,0.0,0.0,0.0,0.0,0.0,0.0,0.0,0.0,0.0,0.0,0.0,0.0,0.0,0.0,0.0,0.0,0.0,0.0,0.0,0.0,0.0,0.0,0.0,0.0,0.0,0.0,0.0,0.0,0.0,0.0,0.0,0.0,0.0,0.0,0.0,0.0,0.0,0.0,0.0,0.0,0.0,0.0,0.0,0.0,0.0,0.0,0.0,0.0,0.0,0.0,0.0,0.0,0.0,0.0,0.0,0.0,0.0,0.0,0.0,0.0,0.0,0.0,0.0,0.0,0.0,0.0,0.0,0.0,0.0,0.0,0.0,0.0,0.0,0.0,0.0,0.0,0.0,0.0,0.0,0.0,0.0,0.0,0.0,0.0,0.0,0.0,0.0,0.0,0.0,0.0,0.0,0.0,0.0,0.0,0.0,0.0,0.0,0.0,0.0,0.0,0.0,0.0,0.0,0.0,0.0,0.0,0.0,0.0,0.0,0.0,0.0,0.0,0.0,0.0,0.0,0.0,0.0,0.0,0.0,0.0,0.0,0.0,0.0,0.0,0.0,0.0,0.0,0.0,0.0,0.0,0.0,0.0,0.0,0.0,0.0,0.0,0.0,0.0,0.0,0.0,0.0,0.0,0.0,0.0,0.0,0.0,0.0,0.0,0.0,0.0,0.0,0.0,0.0,0.0,0.0,0.0,0.0,0.0,0.0,0.0,0.0,0.0,0.0,0.0,0.0,0.0,0.0,0.0,0.0,0.0,0.0,0.0,0.0,0.0,0.0,0.0,0.0,0.0,0.0,0.0,0.0,0.0,0.0,0.0,0.0,0.0,0.0,0.0,0.0,0.0,0.0,0.0,0.0,0.0,0.0,0.0,0.0,0.0,0.0,0.0,0.0,0.0,0.0,0.0,0.0,0.0,0.0,0.0,0.0,0.0,0.0,0.0,0.0,0.0,0.0,0.0,0.0,0.0,0.0,0.0,0.0,0.0,0.0,0.0,0.0,0.0,0.0,0.0,0.0,0.0,0.0,0.0,0.0,0.0,0.0,0.0,0.0,0.0,0.0,0.0,0.0,0.0,0.0,0.0,0.0,0.0,0.0,0.0,0.0,0.0,0.0,0.0,0.0,0.0,0.0,0.0,0.0,0.0,0.0,0.0,0.0,0.0,0.0,0.0,0.0,0.0,0.0,0.0,0.0,0.0,0.0,0.0,0.0,0.0,0.0,0.0,0.0,0.0,0.0,0.0,0.0,0.0,0.0,0.0,0.0,0.0,0.0,0.0,0.0,0.0,0.0,0.0,0.0,0.0,0.0,0.0,0.0,0.0,0.0,0.0,0.0,0.0,0.0,0.0,0.0,0.0,0.0,0.0,0.0,0.0,0.0,0.0,0.0,0.0,0.0,0.0,0.0,0.0,0.0,0.0,0.0,0.0,0.0,0.0,0.0,0.0,0.0,0.0,0.0,0.0,0.0,0.0,0.0,0.0,0.0,0.0,0.0,0.0,0.0,0.0,0.0,0.0,0.0,0.0,0.0,-0.3841,0.0,0.0,0.0,0.0,0.0,0.0,0.0,0.0,0.0,0.0,0.0,0.0,0.0,0.0,0.0,0.0,0.0,0.0,0.0,0.0,0.0,0.0,0.0,0.0,0.0,0.0,0.0,0.0,0.0,0.0,0.0,0.0,0.0,0.0,0.0,0.0,0.0,0.0,0.0,0.0,0.0,0.0,0.0,0.0,0.0,0.0,0.0,0.0,0.0,0.0,0.0,0.0,0.0,0.0,0.0,0.0,0.0,0.0,0.0,0.0,0.0,0.0,0.0,0.0,0.0,0.0,0.0,0.0,0.0,0.0,0.0,0.0,0.0,0.0,0.0,0.0,0.0,0.0,0.0,0.0,0.0,0.0,0.0,0.0,0.0,0.0,0.0,0.0,0.0,0.0,0.0,0.0,0.0,0.0,0.0,0.0,0.0,0.0,0.0,0.0,0.0,0.0,0.0,0.0,0.0,0.0,0.0,0.0,0.0,0.0,-0.3295,-0.3413,-0.3567,-0.3684,-0.3802,0.0,0.0,0.0,0.0,0.0,0.0,0.0,0.0,0.0,0.0,0.0,0.0,0.0,0.0,0.0,0.0,0.0,0.0,0.0,0.0,0.0,0.0,0.0,0.0,0.0,0.0,0.0,0.0,0.0,0.0,0.0,0.0,0.0,0.0,0.0,0.0,0.0,0.0,0.0,0.0,0.0,0.0,0.0,0.0,0.0,0.0,0.0,0.0,0.0,0.0,0.0,0.0,0.0,0.0,0.0,0.0,0.0,0.0,0.0,0.0,0.0,0.0,0.0,0.0,0.0,0.0,0.0,0.0,0.0,0.0,0.0,0.0,0.0,0.0,0.0,0.0,0.0,0.0,0.0,0.0,0.0,0.0,0.0,0.0,0.0,0.0,0.0,0.0,0.0,0.0,0.0,0.0,0.0,0.0,0.0,0.0,0.0,0.0,0.0,0.0,0.0,0.0,0.0,0.0,0.0,0.0,0.0,0.0,0.0,0.0,0.0,0.0,-0.3295,-0.3528,-0.3724,0.0,0.0,0.0,0.0,0.0,0.0,0.0,0.0,0.0,0.0,0.0,0.0,0.0,0.0,0.0,0.0,0.0,0.0,0.0,0.0,0.0,0.0,0.0,0.0,0.0,0.0,0.0,0.0,0.0,0.0,0.0,0.0,0.0,0.0,0.0,0.0,0.0,0.0,0.0,0.0,0.0,0.0,0.0,0.0,0.0,0.0,0.0,0.0,0.0,0.0,0.0,0.0,0.0,0.0,0.0,0.0,0.0,0.0,0.0,0.0,0.0,0.0,0.0,0.0,0.0,0.0,0.0,0.0,0.0,0.0,0.0,0.0,0.0,0.0,0.0,0.0,0.0,0.0,0.0,0.0,0.0,0.0,0.0,0.0,0.0,0.0,0.0,0.0,0.0,0.0,0.0,0.0,0.0,0.0,0.0,0.0,0.0,0.0,0.0,0.0,0.0,0.0,0.0,0.0,0.0,0.0,0.0,0.0,0.0,0.0,-0.3061,-0.31,-0.3141,0.0,-0.3526,0.0,0.0,0.0,0.0,0.0,0.0,0.0,0.0,0.0,0.0,0.0,0.0,0.0,0.0,0.0,0.0,0.0,0.0,0.0,0.0,0.0,0.0,0.0,0.0,0.0,0.0,0.0,0.0,0.0,0.0,0.0,0.0,0.0,0.0,0.0,0.0,0.0,0.0,0.0,0.0,0.0,0.0,0.0,0.0,0.0,0.0,0.0,0.0,0.0,0.0,0.0,0.0,0.0,0.0,0.0,0.0,0.0,0.0,0.0,0.0,0.0,0.0,0.0,0.0,0.0,0.0,0.0,0.0,0.0,0.0,0.0,0.0,0.0,0.0,0.0,0.0,0.0,0.0,0.0,0.0,0.0,0.0,0.0,0.0,0.0,0.0,0.0,0.0,0.0,0.0,0.0,0.0,0.0,0.0,0.0,0.0,0.0,0.0,0.0,0.0,0.0,0.0,0.0,0.0,0.0,0.0,0.0,0.0,0.0,0.0,-0.2785,-0.2904,-0.3176,-0.3411,0.0,0.0,0.0,0.0,0.0,0.0,0.0,0.0,0.0,0.0,0.0,0.0,0.0,0.0,0.0,0.0,0.0,0.0,0.0,0.0,0.0,0.0,0.0,0.0,0.0,0.0,0.0,0.0,0.0,0.0,0.0,0.0,0.0,0.0,0.0,0.0,0.0,0.0,0.0,0.0,0.0,0.0,0.0,0.0,0.0,0.0,0.0,0.0,0.0,0.0,0.0,0.0,0.0,0.0,0.0,0.0,0.0,0.0,0.0,0.0,0.0,0.0,0.0,0.0,0.0,0.0,0.0,0.0,0.0,0.0,0.0,0.0,0.0,0.0,0.0,0.0,0.0,0.0,0.0,0.0,0.0,0.0,0.0,0.0,0.0,0.0,0.0,0.0,0.0,0.0,0.0,0.0,0.0,0.0,0.0,0.0,0.0,0.0,0.0,0.0,0.0,0.0,0.0,0.0,0.0,0.0,0.0,0.0,0.0,0.0,-0.251,-0.2549,-0.2746,-0.3137,-0.3411,-0.3372,0.0,0.0,0.0,0.0,0.0,0.0,0.0,0.0,0.0,0.0,0.0,0.0,0.0,0.0,0.0,0.0,0.0,0.0,0.0,0.0,0.0,0.0,0.0,0.0,0.0,0.0,0.0,0.0,0.0,0.0,0.0,0.0,0.0,0.0,0.0,0.0,0.0,0.0,0.0,0.0,0.0,0.0,0.0,0.0,0.0,0.0,0.0,0.0,0.0,0.0,0.0,0.0,0.0,0.0,0.0,0.0,0.0,0.0,0.0,0.0,0.0,0.0,0.0,0.0,0.0,0.0,0.0,0.0,0.0,0.0,0.0,0.0,0.0,0.0,0.0,0.0,0.0,0.0,0.0,0.0,0.0,0.0,0.0,0.0,0.0,0.0,0.0,0.0,0.0,0.0,0.0,0.0,0.0,0.0,0.0,0.0,0.0,0.0,0.0,0.0,0.0,0.0,0.0,0.0,0.0,0.0,0.0,0.0,-0.251,-0.251,-0.251,-0.251,-0.2904,-0.31,0.0,0.0,0.0,0.0,0.0,0.0,0.0,0.0,0.0,0.0,0.0,0.0,0.0,0.0,0.0,0.0,0.0,0.0,0.0,0.0,0.0,0.0,0.0,0.0,0.0,0.0,0.0,0.0,0.0,0.0,0.0,0.0,0.0,0.0,0.0,0.0,0.0,0.0,0.0,0.0,0.0,0.0,0.0,0.0,0.0,0.0,0.0,0.0,0.0,0.0,0.0,0.0,0.0,0.0,0.0,0.0,0.0,0.0,0.0,0.0,0.0,0.0,0.0,0.0,0.0,0.0,0.0,0.0,0.0,0.0,0.0,0.0,0.0,0.0,0.0,0.0,0.0,0.0,0.0,0.0,0.0,0.0,0.0,0.0,0.0,0.0,0.0,0.0,0.0,0.0,0.0,0.0,0.0,0.0,0.0,0.0,0.0,0.0,0.0,0.0,0.0,0.0,0.0,0.0,0.0,0.0,0.0,0.0,0.0,-0.2313,-0.2431,-0.251,-0.251,-0.2785,-0.2982,0.0,0.0,0.0,0.0,0.0,0.0,0.0,0.0,0.0,0.0,0.0,0.0,0.0,0.0,0.0,0.0,0.0,0.0,0.0,0.0,0.0,0.0,0.0,0.0,0.0,0.0,0.0,0.0,0.0,0.0,0.0,0.0,0.0,0.0,0.0,0.0,0.0,0.0,0.0,0.0,0.0,0.0,0.0,0.0,0.0,0.0,0.0,0.0,0.0,0.0,0.0,0.0,0.0,0.0,0.0,0.0,0.0,0.0,0.0,0.0,0.0,0.0,0.0,0.0,0.0,0.0,0.0,0.0,0.0,0.0,0.0,0.0,0.0,0.0,0.0,0.0,0.0,0.0,0.0,0.0,0.0,0.0,0.0,0.0,0.0,0.0,0.0,0.0,0.0,0.0,0.0,0.0,0.0,0.0,0.0,0.0,0.0,0.0,0.0,0.0,0.0,0.0,0.0,0.0,0.0,0.0,0.0,0.0,0.0,-0.2117,0.0,-0.2157,-0.2313,-0.251,-0.2746,0.0,0.0,0.0,0.0,0.0,0.0,0.0,0.0,0.0,0.0,0.0,0.0,0.0,0.0,0.0,0.0,0.0,0.0,0.0,0.0,0.0,0.0,0.0,0.0,0.0,0.0,0.0,0.0,0.0,0.0,0.0,0.0,0.0,0.0,0.0,0.0,0.0,0.0,0.0,0.0,0.0,0.0,0.0,0.0,0.0,0.0,0.0,0.0,0.0,0.0,0.0,0.0,0.0,0.0,0.0,0.0,0.0,0.0,0.0,0.0,0.0,0.0,0.0,0.0,0.0,0.0,0.0,0.0,0.0,0.0,0.0,0.0,0.0,0.0,0.0,0.0,0.0,0.0,0.0,0.0,0.0,0.0,0.0,0.0,0.0,0.0,0.0,0.0,0.0,0.0,0.0,0.0,0.0,0.0,0.0,0.0,0.0,0.0,0.0,0.0,0.0,0.0,0.0,0.0,0.0,0.0,0.0,0.0,-0.2078,-0.1882,-0.1532,-0.1531,-0.1882,-0.2078,-0.247,0.0,0.0,0.0,0.0,0.0,0.0,0.0,0.0,0.0,0.0,0.0,0.0,0.0,0.0,0.0,0.0,0.0,0.0,0.0,0.0,0.0,0.0,0.0,0.0,0.0,0.0,0.0,0.0,0.0,0.0,0.0,0.0,0.0,0.0,0.0,0.0,0.0,0.0,0.0,0.0,0.0,0.0,0.0,0.0,0.0,0.0,0.0,0.0,0.0,0.0,0.0,0.0,0.0,0.0,0.0,0.0,0.0,0.0,0.0,0.0,0.0,0.0,0.0,0.0,0.0,0.0,0.0,0.0,0.0,0.0,0.0,0.0,0.0,0.0,0.0,0.0,0.0,0.0,0.0,0.0,0.0,0.0,0.0,0.0,0.0,0.0,0.0,0.0,0.0,0.0,0.0,0.0,0.0,0.0,0.0,0.0,0.0,0.0,0.0,0.0,0.0,0.0,0.0,0.0,0.0,0.0,0.0,0.0,0.0,-0.1649,-0.1414,-0.1335,-0.1492,-0.1803,-0.2156,0.0,0.0,0.0,0.0,0.0,0.0,0.0,0.0,0.0,0.0,0.0,0.0,0.0,0.0,0.0,0.0,0.0,0.0,0.0,0.0,0.0,0.0,0.0,0.0,0.0,0.0,0.0,0.0,0.0,0.0,0.0,0.0,0.0,0.0,0.0,0.0,0.0,0.0,0.0,0.0,0.0,0.0,0.0,0.0,0.0,0.0,0.0,0.0,0.0,0.0,0.0,0.0,0.0,0.0,0.0,0.0,0.0,0.0,0.0,0.0,0.0,0.0,0.0,0.0,0.0,0.0,0.0,0.0,0.0,0.0,0.0,0.0,0.0,0.0,0.0,0.0,0.0,0.0,0.0,0.0,0.0,0.0,0.0,0.0,0.0,0.0,0.0,0.0,0.0,0.0,0.0,0.0,0.0,0.0,0.0,0.0,0.0,0.0,0.0,0.0,0.0,0.0,0.0,0.0,0.0,0.0,0.0,0.0,0.0,-0.1194,-0.0955,-0.0916,-0.1194,-0.159,-0.1898,-0.2196,0.0,0.0,0.0,0.0,0.0,0.0,0.0,0.0,0.0,0.0,0.0,0.0,0.0,0.0,0.0,0.0,0.0,0.0,0.0,0.0,0.0,0.0,0.0,0.0,0.0,0.0,0.0,0.0,0.0,0.0,0.0,0.0,0.0,0.0,0.0,0.0,0.0,0.0,0.0,0.0,0.0,0.0,0.0,0.0,0.0,0.0,0.0,0.0,0.0,0.0,0.0,0.0,0.0,0.0,0.0,0.0,0.0,0.0,0.0,0.0,0.0,0.0,0.0,0.0,0.0,0.0,0.0,0.0,0.0,0.0,0.0,0.0,0.0,0.0,0.0,0.0,0.0,0.0,0.0,0.0,0.0,0.0,0.0,0.0,0.0,0.0,0.0,0.0,0.0,0.0,0.0,0.0,0.0,0.0,0.0,0.0,0.0,0.0,0.0,0.0,0.0,0.0,0.0,0.0,0.0,0.0,0.0,0.0,-0.0693,-0.0245,-0.0327,-0.0979,-0.1341,-0.1768,0.0,0.0,0.0,0.0,0.0,0.0,0.0,0.0,0.0,0.0,0.0,0.0,0.0,0.0,0.0,0.0,0.0,0.0,0.0,0.0,0.0,0.0,0.0,0.0,0.0,0.0,0.0,0.0,0.0,0.0,0.0,0.0,0.0,0.0,0.0,0.0,0.0,0.0,0.0,0.0,0.0,0.0,0.0,0.0,0.0,0.0,0.0,0.0,0.0,0.0,0.0,0.0,0.0,0.0,0.0,0.0,0.0,0.0,0.0,0.0,0.0,0.0,0.0,0.0,0.0,0.0,0.0,0.0,0.0,0.0,0.0,0.0,0.0,0.0,0.0,0.0,0.0,0.0,0.0,0.0,0.0,0.0,0.0,0.0,0.0,0.0,0.0,0.0,0.0,0.0,0.0,0.0,0.0,0.0,0.0,0.0,0.0,0.0,0.0,0.0,0.0,0.0,0.0,0.0,0.0,0.0,0.0,0.0,0.0,-0.0417,-0.0339,-0.0467,-0.0752,-0.1026,-0.1338,0.0,0.0,0.0,0.0,0.0,0.0,0.0,0.0,0.0,0.0,0.0,0.0,0.0,0.0,0.0,0.0,0.0,0.0,0.0,0.0,0.0,0.0,0.0,0.0,0.0,0.0,0.0,0.0,0.0,0.0,0.0,0.0,0.0,0.0,0.0,0.0,0.0,0.0,0.0,0.0,0.0,0.0,0.0,0.0,0.0,0.0,0.0,0.0,0.0,0.0,0.0,0.0,0.0,0.0,0.0,0.0,0.0,0.0,0.0,0.0,0.0,0.0,0.0,0.0,0.0,0.0,0.0,0.0,0.0,0.0,0.0,0.0,0.0,0.0,0.0,0.0,0.0,0.0,0.0,0.0,0.0,0.0,0.0,0.0,0.0,0.0,0.0,0.0,0.0,0.0,0.0,0.0,0.0,0.0,0.0,0.0,0.0,0.0,0.0,0.0,0.0,0.0,0.0,0.0,0.0,0.0,0.0,0.0,0.0581,-0.0126,-0.039,-0.0701,-0.0996,-0.1007,-0.119,0.0,0.0,0.0,0.0,0.0,0.0,0.0,0.0,0.0,0.0,0.0,0.0,0.0,0.0,0.0,0.0,0.0,0.0,0.0,0.0,0.0,0.0,0.0,0.0,0.0,0.0,0.0,0.0,0.0,0.0,0.0,0.0,0.0,0.0,0.0,0.0,0.0,0.0,0.0,0.0,0.0,0.0,0.0,0.0,0.0,0.0,0.0,0.0,0.0,0.0,0.0,0.0,0.0,0.0,0.0,0.0,0.0,0.0,0.0,0.0,0.0,0.0,0.0,0.0,0.0,0.0,0.0,0.0,0.0,0.0,0.0,0.0,0.0,0.0,0.0,0.0,0.0,0.0,0.0,0.0,0.0,0.0,0.0,0.0,0.0,0.0,0.0,0.0,0.0,0.0,0.0,0.0,0.0,0.0,0.0,0.0,0.0,0.0,0.0,0.0,0.0,0.0,0.0,0.0,0.0,0.0,0.0,0.0,0.0632,0.0127,-0.0395,-0.0942,-0.1389,-0.1118,-0.1124,0.0,0.0,0.0,0.0,0.0,0.0,0.0,0.0,0.0,0.0,0.0,0.0,0.0,0.0,0.0,0.0,0.0,0.0,0.0,0.0,0.0,0.0,0.0,0.0,0.0,0.0,0.0,0.0,0.0,0.0,0.0,0.0,0.0,0.0,0.0,0.0,0.0,0.0,0.0,0.0,0.0,0.0,0.0,0.0,0.0,0.0,0.0,0.0,0.0,0.0,0.0,0.0,0.0,0.0,0.0,0.0,0.0,0.0,0.0,0.0,0.0,0.0,0.0,0.0,0.0,0.0,0.0,0.0,0.0,0.0,0.0,0.0,0.0,0.0,0.0,0.0,0.0,0.0,0.0,0.0,0.0,0.0,0.0,0.0,0.0,0.0,0.0,0.0,0.0,0.0,0.0,0.0,0.0,0.0,0.0,0.0,0.0,0.0,0.0,0.0,0.0,0.0,0.0,0.0,0.0,0.0,0.0,0.0,0.051,-0.0259,-0.0576,-0.0942,-0.139,-0.0862,-0.0713,0.0,0.0,0.0,0.0,0.0,0.0,0.0,0.0,0.0,0.0,0.0,0.0,0.0,0.0,0.0,0.0,0.0,0.0,0.0,0.0,0.0,0.0,0.0,0.0,0.0,0.0,0.0,0.0,0.0,0.0,0.0,0.0,0.0,0.0,0.0,0.0,0.0,0.0,0.0,0.0,0.0,0.0,0.0,0.0,0.0,0.0,0.0,0.0,0.141,0.0,0.0,0.0,0.0,0.0,0.0,0.0,0.0,0.0,0.0,0.0,0.0,0.0,0.0,0.0,0.0,0.0,0.0,0.0,0.0,0.0,0.0,0.0,0.0,0.0,0.0,0.0,0.0,0.0,0.0,0.0,0.0,0.0,0.0,0.0,0.0,0.0,0.0,0.0,0.0,0.0,0.0,0.0,0.0,0.0,0.0,0.0,0.0,0.0,0.0,0.0,0.0,0.0,0.0,0.0,0.0,0.0,0.0,0.0,0.0765,0.0087,-0.0444,-0.0807,-0.103,-0.0739,-0.0723,0.0,0.0,0.0,0.0,0.0,0.0,0.0,0.0,0.0,0.0,0.0,0.0,0.0,0.0,0.0,0.0,0.0,0.0,0.0,0.0,0.0,0.0,0.0,0.0,0.0,0.0,0.0,0.0,0.0,0.0,0.0,0.0,0.0,0.0,0.0,0.0,0.0,0.0,0.0,0.0,0.0,0.0,0.0,0.0,0.0,0.0,0.0,0.0,0.0,0.0,0.0,0.0,0.0,0.0,0.0,0.0,0.0,0.0,0.0,0.0,0.0,0.0,0.0,0.0,0.0,0.0,0.0,0.0,0.0,0.0,0.0,0.0,0.0,0.0,0.0,0.0,0.0,0.0,0.0,0.0,0.0,0.0,0.0,0.0,0.0,0.0,0.0,0.0,0.0,0.0,0.0,0.0,0.0,0.0,0.0,0.0,0.0,0.0,0.0,0.0,0.0,0.0,0.0,0.0,0.0,0.0,0.0,0.1415,0.1106,0.0567,-0.0222,-0.0673,-0.0717,-0.0747,-0.0816,-0.0883,0.0,0.0,0.0,0.0,0.0,0.0,0.0,0.0,0.0,0.0,0.0,0.0,0.0,0.0,0.0,0.0,0.0,0.0,0.0,0.0,0.0,0.0,0.0,0.0,0.0,0.0,0.0,0.0,0.0,0.0,0.0,0.0,0.0,0.0,0.0,0.0,0.0,0.0,0.2523,0.2595,0.0,0.0,0.0,0.0,0.0,0.0,0.0,0.0,0.2324,0.0,0.0,0.0,0.0,0.0,0.0,0.0,0.0,0.0,0.0,0.0,0.0,0.0,0.0,0.0,0.0,0.0,0.0,0.0,0.0,0.0,0.0,0.0,0.0,0.0,0.0,0.0,0.0,0.0,0.0,0.0,0.0,0.0,0.0,0.0,0.0,0.0,0.0,0.0,0.0,0.0,0.0,0.0,0.0,0.0,0.0,0.0,0.0,0.0,0.0,0.0,0.0,0.0,0.0,0.0,0.0,0.1587,0.1552,0.12,0.0445,-0.0134,-0.0538,-0.0672,-0.0746,-0.0602,-0.0253,0.0,0.0,0.0,0.0,0.0,0.0,0.0,0.0,0.0,0.0,0.0,0.0,0.0,0.0,0.0,0.0,0.0,0.0,0.0,0.0,0.0,0.0,0.0,0.0,0.0,0.0,0.0,0.0,0.0,0.0,0.0,0.0,0.0,0.0,0.0,0.0,0.0,0.0,0.0,0.2977,0.3082,0.0,0.0,0.0,0.0,0.0,0.0,0.0,0.0,0.2071,0.0,0.0,0.0,0.0,0.0,0.0,0.0,0.0,0.0,0.0,0.0,0.0,0.0,0.0,0.0,0.0,0.0,0.0,0.0,0.0,0.0,0.0,0.0,0.0,0.0,0.0,0.0,0.0,0.0,0.0,0.0,0.0,0.0,0.0,0.0,0.0,0.0,0.0,0.0,0.0,0.0,0.0,0.0,0.0,0.0,0.0,0.0,0.0,0.0,0.0,0.0,0.0,0.0,0.0,0.0,0.1635,0.1472,0.1203,0.0761,0.0269,-0.009,-0.0314,-0.0263,-0.0129,0.0,0.0,0.0,0.0,0.0,0.0,0.0,0.0,0.0,0.0,0.0,0.0,0.0,0.0,0.0,0.0,0.0,0.0,0.0,0.0,0.0,0.0,0.0,0.0,0.0,0.0,0.0,0.0,0.0,0.0,0.0,0.0,0.0,0.0,0.0,0.0,0.0,0.0,0.0,0.0,0.3057,0.3021,0.2639,0.0,0.0,0.0,0.0,0.0,0.0,0.2509,0.245,0.0,0.0,0.0,0.0,0.0,0.0,0.0,0.0,0.0,0.0,0.0,0.0,0.0,0.0,0.0,0.0,0.0,0.0,0.0,0.0,0.0,0.0,0.0,0.0,0.0,0.0,0.0,0.0,0.0,0.0,0.0,0.0,0.0,0.0,0.0,0.0,0.0,0.0,0.0,0.0,0.0,0.0,0.0,0.0,0.0,0.0,0.0,0.0,0.0,0.0,0.0,0.0,0.0,0.0,0.0,0.1762,0.1521,0.1295,0.1164,0.0718,0.0359,0.0179,0.035,0.0428,0.0,0.0,0.0,0.0,0.0,0.0,0.0,0.0,0.0,0.0,0.0,0.0,0.0,0.0,0.0,0.0,0.0,0.0,0.0,0.0,0.0,0.0,0.0,0.0,0.0,0.0,0.0,0.0,0.0,0.0,0.0,0.0,0.0,0.0,0.0,0.0,0.0,0.0,0.0,0.0,0.0,0.2992,0.2724,0.2887,0.0,0.0,0.0,0.0,0.2983,0.2826,0.0,0.0,0.0,0.0,0.0,0.0,0.0,0.0,0.0,0.0,0.0,0.0,0.0,0.0,0.0,0.0,0.0,0.0,0.0,0.0,0.0,0.0,0.0,0.0,0.0,0.0,0.0,0.0,0.0,0.0,0.0,0.0,0.0,0.0,0.0,0.0,0.0,0.0,0.0,0.0,0.0,0.0,0.0,0.0,0.0,0.0,0.0,0.0,0.0,0.0,0.0,0.0,0.0,0.0,0.0,0.0,0.2227,0.1843,0.1577,0.1344,0.0897,0.0673,0.0628,0.0992,0.1096,0.0,0.0,0.0,0.0,0.0,0.0,0.0,0.0,0.0,0.0,0.0,0.0,0.0,0.0,0.0,0.0,0.0,0.0,0.0,0.0,0.0,0.0,0.0,0.0,0.0,0.0,0.0,0.0,0.0,0.0,0.0,0.0,0.0,0.0,0.0,0.0,0.0,0.0,0.0,0.0,0.0,0.3565,0.302,0.3217,0.3493,0.0,0.0,0.265,0.2865,0.246,0.0,0.0,0.0,0.0,0.0,0.0,0.0,0.0,0.0,0.0,0.0,0.0,0.0,0.0,0.0,0.0,0.0,0.0,0.0,0.0,0.0,0.0,0.0,0.0,0.0,0.0,0.0,0.0,0.0,0.0,0.0,0.0,0.0,0.0,0.0,0.0,0.0,0.0,0.0,0.0,0.0,0.0,0.0,0.0,0.0,0.0,0.0,0.0,0.0,0.0,0.0,0.0,0.0,0.0,0.0,0.2352,0.2267,0.1741,0.1432,0.1389,0.1211,0.0942,0.0718,0.1462,0.1682,0.0,0.0,0.0,0.0,0.0,0.0,0.0,0.0,0.0,0.0,0.0,0.0,0.0,0.0,0.0,0.0,0.0,0.0,0.0,0.0,0.0,0.0,0.0,0.0,0.0,0.0,0.0,0.0,0.0,0.0,0.0,0.0,0.0,0.0,0.0,0.0,0.0,0.0,0.0,0.0,0.0,0.0,0.34,0.3458,0.0,0.0,0.0,0.2852,0.3208,0.0,0.0,0.0,0.0,0.0,0.0,0.0,0.0,0.0,0.0,0.0,0.0,0.0,0.0,0.0,0.0,0.0,0.0,0.0,0.0,0.0,0.0,0.0,0.0,0.0,0.0,0.0,0.0,0.0,0.0,0.0,0.0,0.0,0.0,0.0,0.0,0.0,0.0,0.0,0.0,0.0,0.0,0.0,0.0,0.0,0.0,0.0,0.0,0.0,0.0,0.0,0.0,0.0,0.0,0.0,0.0,0.0,0.2353,0.166,0.1348,0.1389,0.1391,0.1256,0.0896,0.1774,0.0,0.0,0.0,0.0,0.0,0.0,0.0,0.0,0.0,0.0,0.0,0.0,0.0,0.0,0.0,0.0,0.0,0.0,0.0,0.0,0.0,0.0,0.0,0.0,0.0,0.0,0.0,0.2748,0.0,0.0,0.0,0.0,0.0,0.0,0.0,0.0,0.0,0.0,0.0,0.0,0.0,0.0,0.3859,0.3693,0.3695,0.3575,0.0,0.0,0.3117,0.326,0.249,0.2201,0.0,0.0,0.0,0.0,0.0,0.0,0.0,0.0,0.0,0.0,0.0,0.0,0.0,0.0,0.0,0.0,0.0,0.0,0.0,0.0,0.0,0.0,0.0,0.0,0.0,0.0,0.0,0.0,0.0,0.0,0.0,0.0,0.0,0.0,0.0,0.0,0.0,0.0,0.0,0.0,0.0,0.0,0.0,0.0,0.0,0.0,0.0,0.0,0.0,0.0,0.0,0.0,0.0,0.0,0.0,0.2569,0.1794,0.1385,0.1391,0.1391,0.1391,0.1345,0.1799,0.219,0.0,0.0,0.0,0.0,0.0,0.0,0.0,0.0,0.0,0.0,0.0,0.0,0.0,0.0,0.0,0.0,0.0,0.0,0.0,0.0,0.0,0.0,0.0,0.0,0.0,0.0,0.0,0.0,0.0,0.0,0.0,0.0,0.0,0.0,0.0,0.0,0.0,0.0,0.0,0.0,0.0,0.3899,0.3899,0.3857,0.3762,0.0,0.0,0.3377,0.2841,0.2242,0.2066,0.2825,0.0,0.0,0.0,0.0,0.0,0.0,0.0,0.0,0.0,0.0,0.0,0.0,0.0,0.0,0.0,0.0,0.0,0.0,0.0,0.0,0.0,0.0,0.0,0.0,0.0,0.0,0.0,0.0,0.0,0.0,0.0,0.0,0.0,0.0,0.0,0.0,0.0,0.0,0.0,0.0,0.0,0.0,0.0,0.0,0.0,0.0,0.0,0.0,0.0,0.0,0.0,0.0,0.0,0.3065,0.3025,0.2121,0.1638,0.1659,0.148,0.1391,0.1391,0.1758,0.2236,0.0,0.0,0.0,0.0,0.0,0.0,0.0,0.0,0.0,0.0,0.0,0.0,0.0,0.0,0.0,0.0,0.0,0.0,0.0,0.0,0.0,0.0,0.0,0.0,0.0,0.0,0.0,0.0,0.274,0.3019,0.3591,0.0,0.0,0.0,0.0,0.0,0.0,0.0,0.0,0.0,0.0,0.4174,0.3677,0.3599,0.0,0.0,0.3535,0.3592,0.3823,0.3252,0.3068,0.4045,0.3976,0.0,0.0,0.0,0.0,0.0,0.0,0.0,0.0,0.0,0.0,0.0,0.0,0.0,0.0,0.0,0.0,0.0,0.0,0.0,0.0,0.0,0.0,0.0,0.0,0.0,0.0,0.0,0.0,0.0,0.0,0.0,0.0,0.0,0.0,0.0,0.0,0.0,0.0,0.0,0.0,0.0,0.0,0.0,0.0,0.0,0.0,0.0,0.0,0.0,0.0,0.0,0.0,0.3716,0.3692,0.2935,0.256,0.2552,0.2286,0.2061,0.1882,0.2253,0.2647,0.0,0.0,0.0,0.0,0.0,0.0,0.0,0.0,0.0,0.0,0.0,0.0,0.0,0.0,0.0,0.0,0.0,0.0,0.0,0.0,0.0,0.0,0.0,0.0,0.0,0.0,0.0,0.0,0.2932,0.3203,0.4057,0.0,0.0,0.0,0.0,0.0,0.0,0.0,0.0,0.0,0.0,0.4297,0.382,0.374,0.3824,0.3999,0.4016,0.4111,0.4448,0.4024,0.392,0.4678,0.0,0.0,0.0,0.0,0.0,0.0,0.0,0.0,0.0,0.0,0.0,0.0,0.0,0.0,0.0,0.0,0.0,0.0,0.0,0.0,0.0,0.0,0.0,0.0,0.0,0.0,0.0,0.0,0.0,0.0,0.8661,0.0,0.0,0.0,0.0,0.0,0.0,0.0,0.0,0.0,0.0,0.0,0.0,0.0,0.0,0.0,0.0,0.0,0.0,0.0,0.0,0.0,0.0,0.4814,0.4569,0.4326,0.4196,0.42,0.3979,0.3535,0.2911,0.3309,0.3498,0.3426,0.0,0.0,0.0,0.0,0.0,0.0,0.0,0.0,0.0,0.0,0.0,0.0,0.0,0.0,0.0,0.0,0.0,0.0,0.0,0.0,0.0,0.0,0.0,0.0,0.0,0.0,0.4885,0.4577,0.4499,0.0,0.0,0.0,0.0,0.0,0.0,0.0,0.0,0.0,0.0,0.4799,0.4257,0.4508,0.458,0.4587,0.4543,0.5033,0.5078,0.4351,0.4397,0.4437,0.0,0.0,0.0,0.0,0.0,0.0,0.0,0.0,0.0,0.0,0.0,0.0,0.0,0.0,0.0,0.0,0.0,0.0,0.0,0.0,0.0,0.0,0.0,0.0,0.0,0.0,0.0,0.8686,0.8686,0.0,0.0,0.0,0.0,0.0,0.0,0.0,0.0,0.0,0.0,0.0,0.8297,0.8012,0.0,0.0,0.0,0.0,0.0,0.0,0.0,0.0,0.0,0.0,0.0,0.0,0.5157,0.504,0.4722,0.4559,0.4559,0.4427,0.4249,0.4024,0.4067,0.4074,0.4124,0.0,0.0,0.0,0.0,0.0,0.0,0.0,0.0,0.0,0.0,0.0,0.0,0.0,0.0,0.0,0.0,0.0,0.0,0.0,0.0,0.0,0.0,0.0,0.0,0.0,0.5231,0.0,0.0,0.0,0.0,0.0,0.0,0.0,0.0,0.0,0.0,0.0,0.6065,0.5457,0.5618,0.5569,0.5072,0.5049,0.5009,0.0,0.0,0.0,0.0,0.0,0.0,0.0,0.0,0.0,0.0,0.0,0.0,0.0,0.0,0.4692,0.4663,0.414,0.3652,0.3652,0.0,0.0,0.0,0.0,0.0,0.0,0.0,0.0,0.0,0.0,0.0,0.0,0.0,0.0,0.9837,0.0,0.9841,0.0,0.0,0.0,0.0,0.0,0.0,0.0,0.0,0.9199,0.9051,0.882,0.8691,0.8405,0.0,0.8131,0.7813,0.0,0.0,0.0,0.0,0.0,0.0,0.0,0.0,0.6073,0.6245,0.5985,0.5805,0.5805,0.5669,0.5489,0.5223,0.5045,0.5041,0.533,0.5852,0.6055,0.0,0.0,0.0,0.0,0.0,0.0,0.0,0.0,0.0,0.0,0.0,0.0,0.0,0.0,0.0,0.0,0.0,0.0,0.0,0.0,0.0,0.0,0.0,0.5467,0.0,0.0,0.0,0.0,0.0,0.0,0.0,0.0,0.0,0.6471,0.6354,0.6091,0.5515,0.5772,0.5972,0.5712,0.0,0.0,0.0,0.0,0.0,0.0,0.0,0.6704,0.6785,0.6388,0.5829,0.5092,0.4758,0.4571,0.4323,0.0,0.0,0.4495,0.3989,0.3524,0.3482,0.3444,0.34,0.34,0.3444,0.3537,0.0,0.0,0.0,0.0,0.0,0.0,0.0,0.0,1.2063,1.1981,0.0,1.1886,0.0,0.0,0.0,0.0,0.0,0.9601,0.0,0.0,0.9107,0.9022,0.9155,0.8806,0.859,0.8577,0.8579,0.837,0.7991,0.7627,0.0,0.0,0.0,0.0,0.0,0.0,0.7612,0.7912,0.7861,0.79,0.7856,0.7628,0.7173,0.6451,0.6228,0.6343,0.6866,0.6937,0.6788,0.6434,0.6727,0.0,0.0,0.0,0.0,0.0,0.0,0.0,0.0,0.0,0.0,0.0,0.0,0.0,0.0,0.0,0.0,0.0,0.0,0.0,0.0,0.5899,0.0,0.0,0.0,0.0,0.0,0.0,0.0,0.0,0.0,0.0,0.6965,0.6549,0.614,0.5933,0.0,0.0,0.0,0.0,0.6015,0.7227,0.7375,0.7272,0.7141,0.6844,0.636,0.5737,0.0,0.0,0.4245,0.4688,0.488,0.4376,0.3902,0.3841,0.4438,0.413,0.3831,0.3832,0.3672,0.3582,0.3581,0.3639,0.3823,1.3268,0.0,0.0,0.0,0.0,1.2475,1.2453,1.2359,1.2198,1.2089,1.205,1.1863,0.0,0.0,0.0,0.0,0.0,0.0,0.9751,0.9601,0.9257,0.9052,0.8957,0.8874,0.8653,0.834,0.8642,0.8488,0.797,0.8151,0.7812,0.7042,0.0,0.0,0.0,0.0,0.7786,0.7747,0.7831,0.79,0.79,0.7981,0.7785,0.7278,0.7048,0.6888,0.6676,0.6719,0.6668,0.6602,0.6716,0.0,0.0,0.0,0.0,0.0,0.0,0.0,0.0,0.0,0.0,0.0,0.0,0.0,0.0,0.0,0.0,0.0,0.0,0.0,0.6128,0.5854,0.6009,0.0,0.0,0.0,0.0,0.0,0.0,0.0,0.0,0.0,0.6658,0.6965,0.7171,0.0,0.0,0.7748,0.8057,0.7319,0.6778,0.6805,0.6668,0.0,0.5968,0.6147,0.6267,0.6069,0.5344,0.4762,0.4547,0.4106,0.3738,0.3562,0.332,0.3195,0.3312,0.3304,0.3213,0.3172,0.3128,0.3086,0.313,0.3174,0.3221,1.4585,1.3996,1.3511,1.3354,1.3447,1.3336,1.3308,1.3309,1.3025,1.2893,1.2826,1.271,1.2552,1.2301,1.1708,0.0,0.0,0.0,1.007,0.9596,0.9553,0.9445,0.934,0.9174,0.8907,0.8644,0.8736,0.8564,0.8208,0.8531,0.8331,0.7607,0.0,0.0,0.77,0.7991,0.8132,0.811,0.8092,0.806,0.806,0.8119,0.7986,0.7758,0.7617,0.7413,0.7104,0.7063,0.7027,0.691,0.6982,0.6927,0.0,0.0,0.0,0.0,0.0,0.0,0.0,0.0,0.0,0.0,0.0,0.5983,0.6781,0.0,0.0,0.0,0.6202,0.6276,0.643,0.6472,0.0,0.0,0.0,0.0,0.0,0.0,0.0,0.7616,0.6975,0.6513,0.6509,0.6886,0.7049,0.6794,0.7112,0.7476,0.7798,0.0,0.6531,0.6479,0.6376,0.6187,0.5777,0.5798,0.5786,0.5469,0.4954,0.452,0.4393,0.3866,0.3449,0.3361,0.3275,0.3187,0.3187,0.3187,0.3097,0.2964,0.292,0.292,0.292,0.292,0.292,1.5585,1.569,1.4544,1.4218,1.4384,1.4128,1.4303,1.4638,1.4307,1.4136,1.4064,1.4108,1.365,1.2895,1.2323,0.0,1.0716,1.0967,1.0614,0.9733,0.9951,1.0038,0.9951,0.9519,0.9305,0.9257,0.8867,0.8652,0.8644,0.882,0.8721,0.8377,0.8377,0.8451,0.8613,0.8476,0.856,0.8886,0.856,0.831,0.8264,0.8089,0.7992,0.7992,0.7979,0.7898,0.7788,0.7775,0.7619,0.7269,0.7407,0.7099,0.622,0.0,0.0,0.0,0.0,0.0,0.0,0.0,0.0,0.0,0.0,0.0,0.0,0.0,0.0,0.0,0.597,0.0,0.6573,0.7195,0.0,0.0,0.0,0.7139,0.6234,0.628,0.6443,0.6513,0.0,0.0,0.6405,0.6405,0.6125,0.5405,0.5405,0.5741,0.6479,0.5975,0.5664,0.6296,0.6336,0.6242,0.5881,0.554,0.5082,0.4556,0.4297,0.4251,0.403,0.39,0.3812,0.3676,0.3631,0.3587,0.3587,0.3542,0.3454,0.3053,0.2963,0.2918,0.2918,0.2918,0.292,1.5765,1.5764,1.5678,1.5571,1.5435,1.5363,1.5423,1.5483,1.4968,1.4772,1.4723,1.4282,1.3665,1.2973,1.2805,1.2373,1.1668,1.1716,1.1359,1.0679,1.0506,1.0164,0.9689,0.9559,0.9428,0.9305,0.9345,0.9257,0.913,0.8952,0.8983,0.9183,0.9056,0.8954,0.8841,0.9078,0.9105,0.8904,0.8821,0.8532,0.8077,0.791,0.7857,0.7861,0.7722,0.759,0.7588,0.7549,0.7529,0.745,0.7484,0.7441,0.729,0.7407,0.0,0.0,0.0,0.0,0.0,0.0,0.0,0.0,0.0,0.7475,0.8152,0.0,0.7442,0.0,0.6195,0.5386,0.4999,0.5389,0.0,0.0,0.6484,0.6629,0.6412,0.596,0.5876,0.644,0.6024,0.5661,0.5661,0.5661,0.5405,0.4689,0.5513,0.6421,0.685,0.6042,0.5518,0.5747,0.53,0.4789,0.4805,0.4665,0.452,0.4342,0.4297,0.43,0.421,0.4034,0.3857,0.3857,0.3721,0.3631,0.3631,0.3587,0.3587,0.3454,0.3275,0.3138,0.3138,0.3006,0.292,1.5879,1.5981,1.5981,1.5927,1.5825,1.5792,1.5738,1.5591,1.5017,1.477,1.4736,1.4289,1.387,1.3519,1.3476,1.313,1.2448,1.2443,1.21,1.1456,1.0977,1.0593,1.0207,0.9816,0.9559,0.9432,0.9471,0.9339,0.913,0.9087,0.9112,0.9099,0.9186,0.9163,0.9083,0.9554,0.9639,0.9445,0.9107,0.8618,0.7944,0.7766,0.7756,0.7908,0.8,0.8015,0.797,0.8145,0.8146,0.7884,0.788,0.7785,0.7662,0.7774,0.8034,0.0,0.0,0.0,0.0,0.0,0.0,0.0,0.0,0.0,0.0,0.0,0.7088,0.7088,0.6083,0.5464,0.5461,0.5791,0.5975,0.5811,0.5971,0.5951,0.5518,0.5158,0.5068,0.5481,0.5185,0.492,0.492,0.492,0.4763,0.4336,0.4993,0.5605,0.5764,0.5305,0.4941,0.5043,0.4654,0.4297,0.4297,0.4297,0.4297,0.4297,0.4297,0.4297,0.4297,0.4166,0.4078,0.4078,0.3989,0.3898,0.39,0.3898,0.3898,0.3853,0.3676,0.3451,0.327,0.3093,0.3006,1.5927,1.613,1.5933,1.5832,1.5805,1.5851,1.5696,1.5411,1.483,1.4536,1.4449,1.4202,1.4088,1.4088,1.4088,1.3737,1.313,1.3137,1.279,1.21,1.1542,1.1154,1.0987,1.0168,0.9733,0.9646,0.9476,0.9299,0.9041,0.926,0.9154,0.8821,0.9183,0.9414,0.9483,0.9948,1.0176,1.0089,0.937,0.865,0.7885,0.7829,0.794,0.825,0.8627,0.884,0.8766,0.9056,0.899,0.8492,0.8417,0.816,0.7739,0.8097,0.8303,0.0,0.8732,0.0,0.0,0.0,0.0,0.0,0.0,0.0,0.0,0.6318,0.624,0.6125,0.5777,0.5857,0.6447,0.6774,0.6508,0.5451,0.5488,0.5239,0.4374,0.4328,0.434,0.4328,0.4291,0.4297,0.434,0.4297,0.4297,0.4297,0.438,0.4463,0.4342,0.4385,0.4383,0.4297,0.4297,0.4297,0.4297,0.4297,0.4297,0.4297,0.4297,0.4297,0.4297,0.4297,0.4297,0.4297,0.4253,0.43,0.4297,0.4297,0.4297,0.4255,0.4078,0.381,0.3451,0.3227,0.3138,1.5832,1.5886,1.6021,1.6028,1.5825,1.6021,1.5947,1.5658,1.5124,1.4616,1.4168,1.4115,1.4088,1.4088,1.4088,1.4046,1.3919,1.3913,1.3519,1.279,1.2699,1.2052,1.103,1.0809,1.0463,0.9951,0.9912,0.9845,0.976,0.9628,0.9651,0.9876,0.9827,0.9971,1.0256,0.0,0.0,0.0,0.9392,0.8775,0.8327,0.9031,0.9334,0.9112,0.9485,0.0,0.9638,0.95,0.9384,0.9269,0.9014,0.0,0.0,0.0,0.0,0.0,0.0,0.0,0.0,0.0,0.0,0.0,0.8473,0.8217,0.758,0.7023,0.6426,0.5777,0.5661,0.5433,0.506,0.5087,0.5065,0.4872,0.4954,0.4958,0.4627,0.464,0.4585,0.4463,0.4387,0.4297,0.4297,0.4297,0.4297,0.4297,0.4297,0.4297,0.4297,0.4297,0.4297,0.4297,0.4297,0.4297,0.4297,0.4297,0.4297,0.4297,0.4297,0.4297,0.4297,0.4297,0.4297,0.4297,0.4297,0.4297,0.4297,0.4297,0.4297,0.4297,0.4255,0.4121,0.3812,0.3451,0.3181,1.5879,0.0,1.6028,1.5927,0.0,1.6076,1.5994,1.5585,1.5287,1.4848,1.4377,1.4412,1.4328,1.4279,1.437,1.4328,1.4243,1.4377,1.4153,1.3675,1.3343,1.2717,1.179,1.1155,1.0588,1.0107,0.9812,0.9592,0.9502,0.9471,0.9442,0.9462,0.9543,0.9671,0.9747,0.9963,1.0051,1.0056,0.9476,0.8889,0.8437,0.8889,0.915,0.9188,0.9642,0.0,0.0,0.0,0.0,0.0,0.0,0.0,0.0,0.8603,0.0,0.8361,0.8416,0.8288,0.79,0.7957,0.7747,0.7078,0.6847,0.6815,0.6973,0.5964,0.5154,0.4771,0.4885,0.4857,0.4487,0.4622,0.4709,0.4691,0.4799,0.4794,0.4635,0.4655,0.4594,0.4423,0.436,0.4297,0.4297,0.4297,0.4297,0.4297,0.4297,0.4297,0.4297,0.4297,0.4297,0.4297,0.4297,0.4297,0.4297,0.4297,0.4297,0.4297,0.4297,0.4297,0.4297,0.4297,0.4297,0.4297,0.4297,0.4297,0.4297,0.4297,0.4297,0.4297,0.4297,0.4344,0.4257,0.39,0.354,1.5927,1.6123,1.5927,1.5846,1.5805,1.6095,1.5891,1.5406,0.0,0.0,0.0,1.4692,1.4608,1.4482,1.465,1.4608,1.4482,1.4608,1.4608,1.4398,1.3805,1.3236,1.2601,1.1556,1.0857,1.043,0.9811,0.9439,0.9245,0.9283,0.9152,0.8869,0.9117,0.9202,0.9056,0.9164,0.9426,0.9758,0.9568,0.919,0.8594,0.8784,0.9008,0.9268,0.9803,1.0092,1.0039,1.0315,1.0235,0.9751,0.9665,0.9484,0.9189,0.8917,0.8826,0.8928,0.8684,0.8219,0.7492,0.7426,0.7005,0.6002,0.5276,0.5124,0.5738,0.4577,0.3841,0.3841,0.4192,0.4425,0.4411,0.4725,0.4895,0.4821,0.4856,0.4834,0.4629,0.4636,0.4605,0.4372,0.433,0.4297,0.4297,0.4297,0.4297,0.4297,0.4297,0.4297,0.4297,0.4297,0.4297,0.4297,0.4297,0.4297,0.4297,0.4297,0.4297,0.4297,0.4297,0.4297,0.4297,0.4297,0.4297,0.4297,0.4297,0.4297,0.4297,0.4297,0.4297,0.4297,0.4297,0.4389,0.4614,0.4348,0.4036,1.5825,1.5879,1.6076,1.598,1.5742,1.6005,1.5861,1.5473,1.5133,1.4862,1.4692,1.4692,1.4692,1.4657,1.4685,1.4692,1.4657,1.4685,1.4608,1.4378,1.4255,1.3708,1.2836,1.2631,1.2132,1.1462,1.0686,1.0307,1.0241,0.9624,0.9244,0.9202,0.9253,0.9308,0.9235,0.9098,0.9172,0.9375,0.9844,0.9774,0.9213,1.0175,1.0582,1.0331,1.0663,1.0913,1.0902,1.0736,1.0629,1.0521,1.0237,0.9897,0.9466,0.9373,0.9165,0.8783,0.8689,0.8477,0.8015,0.7982,0.7761,0.7246,0.6163,0.5118,0.4229,0.3919,0.3882,0.404,0.427,0.4508,0.4778,0.5074,0.5258,0.5257,0.531,0.5231,0.4935,0.4773,0.463,0.4472,0.4387,0.4297,0.4297,0.4297,0.4297,0.4297,0.4297,0.4297,0.4297,0.4297,0.4297,0.4297,0.4297,0.4297,0.4297,0.4297,0.4297,0.4297,0.4297,0.4297,0.4297,0.4297,0.4297,0.4297,0.4297,0.4297,0.4297,0.4297,0.4297,0.4297,0.4297,0.4389,0.4659,0.4616,0.4572,1.6357,1.6204,1.6158,1.5932,1.5635,1.5603,1.5655,1.5733,1.524,1.5022,1.509,1.5082,1.4999,1.4915,1.5048,1.4906,1.466,1.4743,1.4602,1.427,1.4177,1.3824,1.314,1.2759,1.2312,1.1826,1.1037,1.0501,1.0156,0.9693,0.9301,0.8996,0.91,0.9173,0.9268,0.9318,0.9356,0.9471,0.9516,0.9461,0.9327,0.996,1.0218,1.003,1.0293,1.0443,1.0443,1.033,1.0268,1.0273,1.0129,0.9825,0.9421,0.9399,0.9173,0.8737,0.8703,0.847,0.7983,0.7403,0.6899,0.6514,0.6044,0.5386,0.4538,0.4075,0.3841,0.396,0.4116,0.4377,0.4733,0.4869,0.503,0.5283,0.518,0.4978,0.4782,0.4745,0.4594,0.4425,0.4315,0.4297,0.4297,0.4297,0.4297,0.4297,0.4297,0.4297,0.4297,0.4297,0.4297,0.4297,0.4297,0.4297,0.4297,0.4297,0.4297,0.4297,0.4297,0.4297,0.4297,0.4297,0.4297,0.4297,0.4297,0.4297,0.4297,0.4297,0.4297,0.4297,0.4297,0.4433,0.4746,0.506,0.5216,1.6757,1.6545,1.6401,1.6171,1.5851,1.5468,1.554,1.5799,1.5375,1.5257,1.5389,1.5389,1.534,1.5215,1.534,1.5168,1.4828,1.4969,1.4757,1.4359,1.432,1.4024,1.3572,1.3065,1.2757,1.2481,1.1746,1.1141,1.064,1.01,0.94,0.8803,0.8869,0.9034,0.9261,0.9396,0.9481,0.9577,0.9305,0.9208,0.9359,0.9544,0.9657,0.97,0.9803,0.9884,0.9884,0.9884,0.9884,0.9884,0.9884,0.9728,0.9473,0.943,0.9279,0.9008,0.8965,0.8699,0.8089,0.7242,0.6549,0.6202,0.6198,0.6002,0.5506,0.4807,0.419,0.396,0.4075,0.4307,0.4536,0.4581,0.4777,0.5258,0.5012,0.4816,0.477,0.47,0.4569,0.4344,0.4297,0.4297,0.4297,0.4297,0.4297,0.4297,0.4297,0.4297,0.4297,0.4297,0.4297,0.4297,0.4297,0.4297,0.4297,0.4297,0.4297,0.4297,0.4297,0.4297,0.4297,0.4297,0.4297,0.4297,0.4297,0.4297,0.4297,0.4297,0.4344,0.4389,0.4433,0.4569,0.501,0.5371,0.561,1.6533,1.679,1.7032,1.6944,1.6631,1.5935,1.558,1.5498,1.5403,1.5389,1.5389,1.5389,1.5389,1.5389,1.5389,1.536,1.5267,1.5338,1.5211,1.4959,1.4866,1.4721,1.4452,1.4341,1.4289,1.4115,1.3393,1.2896,1.2681,1.1091,0.9764,0.8799,0.8722,0.8837,0.9014,0.9062,0.9244,0.9611,0.957,0.9549,0.9587,0.9771,0.9884,0.9884,0.9884,0.9884,0.9884,0.9884,0.9884,0.9884,0.9884,0.9884,0.9846,0.9846,0.9809,0.9765,0.9771,0.9539,0.8927,0.847,0.8055,0.7868,0.7357,0.7046,0.6892,0.636,0.5434,0.4511,0.4275,0.4449,0.4311,0.4557,0.5071,0.5755,0.529,0.4912,0.539,0.4828,0.4344,0.4297,0.4476,0.4297,0.4389,0.4344,0.4297,0.4297,0.4297,0.4342,0.4344,0.4344,0.4344,0.4344,0.4342,0.4297,0.4297,0.4297,0.4297,0.4297,0.4297,0.4297,0.4297,0.4297,0.4297,0.4297,0.4297,0.4297,0.4297,0.4297,0.4389,0.4569,0.4659,0.4792,0.5238,0.5563,0.5596,1.7457,1.7809,1.8021,1.7814,1.7293,1.6354,1.5902,1.5848,1.5664,1.5575,1.5575,1.5575,1.5506,1.5431,1.5389,1.5287,1.5104,1.5104,1.4954,1.4747,1.4681,1.4615,1.4561,1.4499,1.4504,1.4472,1.4034,1.3627,1.3015,1.1351,0.9823,0.8837,0.8827,0.9,0.9189,0.9311,0.9497,0.9774,0.9944,0.9958,0.9825,0.9884,0.9884,0.9884,0.9884,0.9884,0.9884,0.9884,0.9884,0.9884,0.9884,0.9884,0.9884,0.9884,0.9884,0.9884,0.9884,0.969,0.9236,0.8932,0.8627,0.8289,0.8055,0.7748,0.7407,0.7184,0.6656,0.5747,0.5507,0.5505,0.5621,0.5656,0.5903,0.6412,0.618,0.6074,0.6467,0.6198,0.5935,0.5761,0.5408,0.5099,0.4924,0.4567,0.4344,0.4297,0.4297,0.4389,0.4525,0.4525,0.4567,0.4699,0.4699,0.4565,0.4387,0.4297,0.4297,0.4297,0.4297,0.4297,0.4297,0.4297,0.4297,0.4297,0.4297,0.4297,0.4297,0.4297,0.4389,0.4659,0.5015,0.5193,0.5371,0.5605,0.5764,1.8352,1.8852,1.9109,1.8734,1.7916,1.7138,1.6553,1.6169,1.5977,1.5914,1.5824,1.5824,1.5748,1.5597,1.5597,1.5457,1.5257,1.5153,1.5028,1.4822,1.4775,1.4783,1.4728,1.4735,1.4768,1.4735,1.4623,1.416,1.3333,1.2055,1.0606,0.9481,0.9407,0.9463,0.9417,0.9597,0.9792,1.0027,1.0263,1.0293,1.0099,1.0056,1.0024,1.0019,0.9954,0.9949,1.0019,0.9954,0.9884,0.9884,0.9884,0.9884,0.9884,0.9884,0.9884,0.9884,0.9884,0.9771,0.9397,0.9198,0.8932,0.8594,0.8518,0.8315,0.7957,0.7959,0.7797,0.7245,0.7078,0.7067,0.6528,0.6401,0.6591,0.7156,0.7,0.6953,0.7302,0.7258,0.6993,0.6861,0.6378,0.6027,0.5811,0.523,0.4832,0.5139,0.4786,0.4788,0.5099,0.5099,0.4882,0.5186,0.5142,0.4832,0.4478,0.4433,0.4389,0.4297,0.4297,0.4297,0.4297,0.4297,0.4297,0.4297,0.4297,0.4297,0.4344,0.4344,0.4523,0.4837,0.5196,0.5463,0.5508,0.5732,0.6029,1.8861,1.9726,2.0234,1.967,1.8467,1.8341,1.7488,1.6277,1.6465,1.6385,1.611,1.6128,1.6087,1.6046,1.6079,1.6072,1.6015,1.5737,1.5632,1.5595,1.5411,1.5372,1.5345,1.5345,1.5372,1.5299,1.5258,1.4709,1.3716,1.352,1.2567,1.0662,1.0545,1.022,0.9708,0.9839,1.0066,1.0265,1.0469,1.0565,1.0528,1.0379,1.0288,1.0261,1.0007,1.0024,1.0196,1.004,0.9884,0.9884,0.9884,0.9884,0.9884,0.9884,0.9884,0.9884,0.9884,0.9809,0.9625,0.9392,0.9208,0.8984,0.8803,0.8678,0.8615,0.8731,0.8774,0.8758,0.8775,0.8268,0.6879,0.6685,0.6943,0.768,0.7265,0.7401,0.8065,0.7746,0.717,0.717,0.7126,0.6949,0.6946,0.6201,0.6068,0.6287,0.5802,0.545,0.6331,0.5802,0.5539,0.5761,0.5628,0.4966,0.4748,0.4614,0.4525,0.4389,0.4297,0.4297,0.4297,0.4297,0.4297,0.4297,0.4297,0.4297,0.4344,0.4567,0.4879,0.5149,0.5421,0.5644,0.5861,0.587,0.6245,1.9505,2.04,2.0416,2.0216,1.9934,1.9038,1.8177,1.7506,1.7235,1.68,1.6417,1.6722,1.6681,1.6319,1.6886,1.673,1.6128,1.6004,1.5955,1.5914,1.5707,1.5575,1.5582,1.5465,1.5389,1.5389,1.5389,1.4794,1.3811,1.3702,1.2679,1.1048,1.0857,1.0462,0.9817,1.0009,1.0249,1.0336,1.0659,1.0748,1.0624,1.0697,1.067,1.0458,1.0088,0.9922,1.0046,0.997,0.9884,0.9884,0.9884,0.9884,0.9884,0.9884,0.9884,0.9884,0.9884,0.9884,0.9771,0.962,0.9397,0.9218,0.9145,0.9013,0.8934,0.9063,0.9202,0.9208,0.9224,0.8845,0.8498,0.8237,0.8435,0.879,0.8763,0.8719,0.9157,0.9113,0.889,0.8671,0.8233,0.7658,0.7258,0.6817,0.6729,0.699,0.6637,0.6729,0.7085,0.6868,0.6688,0.7037,0.6949,0.6555,0.5811,0.506,0.4614,0.4433,0.4297,0.4297,0.4297,0.4297,0.4297,0.4297,0.4297,0.4478,0.4612,0.4924,0.5235,0.5329,0.5599,0.5908,0.6343,0.6319,0.6806,2.0546,2.1263,2.1119,2.0882,2.0596,1.9748,1.9029,1.8432,1.8123,1.7678,1.7294,1.7642,1.757,1.7245,1.7538,1.7335,1.6607,1.6327,1.6211,1.6162,1.5955,1.5824,1.5782,1.5582,1.5548,1.5631,1.5639,1.5216,1.4577,1.4467,1.3541,1.2024,1.2039,1.1474,1.0573,1.0667,1.0754,1.0675,1.0902,1.0946,1.0789,1.0826,1.0762,1.0469,1.0132,0.9927,1.003,0.9927,0.9884,0.9884,0.9884,0.9884,0.9884,0.9884,0.9884,0.9884,0.9884,0.9884,0.9895,0.9802,0.9658,0.9515,0.9473,0.9338,0.9228,0.9326,0.9357,0.942,0.9516,0.9519,0.9519,0.9515,0.9563,0.9607,0.9607,0.9733,0.9951,0.9994,0.9859,0.9598,0.9074,0.85,0.8097,0.7746,0.7786,0.7918,0.7698,0.7526,0.8145,0.7837,0.7749,0.8053,0.7834,0.7394,0.6871,0.621,0.524,0.4882,0.4656,0.4565,0.4476,0.4431,0.4431,0.4387,0.4478,0.4701,0.4968,0.528,0.5458,0.5508,0.5641,0.5863,0.6343,0.6853,0.742,2.2019,2.2292,2.2418,2.1512,2.0517,2.0544,1.993,1.8932,1.9046,1.8827,1.8434,1.8656,1.8576,1.8496,1.8095,1.7732,1.7448,1.6804,1.6476,1.6402,1.6203,1.6087,1.6087,1.5824,1.5824,1.6046,1.6053,1.6046,1.5925,1.5812,1.5215,1.4441,1.406,1.3147,1.1678,1.1764,1.1609,1.1186,1.1203,1.1182,1.0988,1.0772,1.0562,1.0326,1.0078,1.004,1.0239,1.0035,0.9884,0.9884,0.9884,0.9884,0.9884,0.9884,0.9884,0.9884,0.9884,0.9884,0.9922,0.9983,0.9972,0.9951,0.9812,0.9727,0.9665,0.9634,0.97,0.9755,0.9893,0.9994,0.9951,0.9951,0.9864,0.9689,0.9646,0.9777,0.9951,0.9994,0.9994,0.9951,0.9646,0.9694,0.9641,0.9069,0.8846,0.92,0.8759,0.836,0.9288,0.8759,0.8317,0.86,0.8633,0.8263,0.7878,0.7408,0.6308,0.5421,0.5193,0.5013,0.5008,0.4964,0.4964,0.4964,0.5142,0.5322,0.5413,0.5725,0.5813,0.5905,0.5908,0.6216,0.6958,0.7626,0.8087,2.1094,2.1202,2.1172,2.1131,2.0891,2.0726,2.0292,1.9798,1.9617,1.9203,1.8834,1.9125,1.9094,1.8856,1.8886,1.8527,1.77,1.7416,1.7049,1.6648,1.6402,1.6319,1.6237,1.6079,1.5997,1.6087,1.6136,1.6136,1.6136,1.6136,1.5576,1.4775,1.4508,1.3769,1.2664,1.2202,1.1857,1.1702,1.143,1.1262,1.1169,1.095,1.0719,1.0511,1.029,1.0148,1.004,0.996,0.9884,0.9884,0.9884,0.9884,0.9884,0.9884,0.9884,0.9884,0.9884,1.0008,1.0159,1.0167,1.0211,1.0199,1.0244,1.0216,1.0154,1.0241,1.0345,1.0332,1.0429,1.0424,1.025,1.0207,1.0125,0.9907,0.9864,0.9907,0.9951,0.9994,0.9994,0.999,0.9907,0.9907,0.9951,0.9598,0.9598,0.9864,0.951,0.9554,0.9728,0.955,0.9446,0.9727,0.9478,0.9174,0.8833,0.8539,0.7882,0.6869,0.6352,0.5777,0.568,0.5583,0.5586,0.5716,0.5894,0.5985,0.6077,0.6124,0.6257,0.6387,0.652,0.7136,0.7973,0.8456,0.8698,2.081,2.081,2.081,2.0869,2.0967,2.0703,2.0507,2.0383,2.0125,1.9766,1.9569,1.9805,1.9766,1.949,1.9569,1.9045,1.8095,1.7813,1.7497,1.7049,1.6648,1.6517,1.6484,1.6402,1.6286,1.6245,1.6286,1.6335,1.6335,1.6327,1.6006,1.5409,1.5209,1.4715,1.3837,1.3374,1.2956,1.2324,1.1934,1.1552,1.1096,1.086,1.0672,1.0385,1.0231,1.0073,0.9889,0.9884,0.9884,0.9884,0.9884,0.9884,0.9884,0.9884,0.9884,0.9884,0.99,1.0024,1.0261,1.0335,1.0479,1.0546,1.0648,1.0693,1.0597,1.0677,1.0722,1.0733,1.0684,1.0636,1.0467,1.0467,1.0381,1.0255,1.0081,1.0038,0.9994,0.9994,0.9994,0.9994,0.9994,0.9994,0.9994,0.9994,0.9994,0.9994,0.9994,0.9994,0.9994,0.9994,1.0099,1.0165,0.9955,0.9776,0.9785,0.9581,0.9334,0.8505,0.7683,0.6981,0.6532,0.6387,0.6293,0.6776,0.7037,0.7037,0.7088,0.6827,0.683,0.6959,0.7136,0.7529,0.8101,0.8584,0.8941,2.1142,2.1161,2.1142,2.0918,2.0664,2.0615,2.0586,2.0586,2.0576,2.0489,2.0489,2.0489,2.0527,2.0411,1.9962,1.9371,1.8745,1.8215,1.7934,1.7651,1.7212,1.6927,1.6853,1.6689,1.6533,1.6484,1.6566,1.6648,1.6607,1.6656,1.6607,1.6322,1.6175,1.5959,1.516,1.5108,1.4124,1.2978,1.2644,1.1968,1.097,1.0745,1.0561,1.0138,1.0019,0.9981,0.9927,0.9884,0.9895,0.9906,0.9938,0.9981,0.9954,0.9906,0.9932,0.9938,0.9911,1.0061,1.0304,1.0453,1.0662,1.0892,1.0953,1.1008,1.0982,1.0895,1.0819,1.0819,1.0771,1.0733,1.0733,1.0733,1.0684,1.0636,1.0294,1.0081,0.9994,0.9994,0.9994,0.9994,0.9994,0.9994,0.9994,0.9994,0.9994,0.9994,0.9994,0.9994,0.9994,0.9994,1.0004,1.0056,1.0137,1.0176,1.0104,1.0113,0.9854,0.9493,0.8804,0.8273,0.7698,0.7536,0.7441,0.7878,0.8137,0.8137,0.8009,0.7705,0.7621,0.7753,0.7841,0.7881,0.8277,0.8934,0.9244,2.0742,2.0742,2.0781,2.0703,2.0615,2.0615,2.0615,2.0615,2.0615,2.0615,2.0615,2.0615,2.0615,2.0566,2.0401,1.9962,1.9371,1.9125,1.8807,1.8456,1.8296,1.7853,1.7367,1.6935,1.6697,1.6648,1.6656,1.6689,1.6689,1.6689,1.6689,1.6615,1.6476,1.6304,1.5992,1.516,1.4533,1.3912,1.3153,1.2687,1.2248,1.1652,1.1271,1.098,1.0438,1.0105,0.9922,0.9884,1.0019,1.018,1.0196,1.0196,1.018,1.0191,1.0196,1.0196,1.0207,1.0299,1.0458,1.0565,1.071,1.0972,1.1129,1.1219,1.1224,1.1176,1.1132,1.1132,1.1132,1.1084,1.0959,1.0916,1.0868,1.0684,1.0429,1.0212,1.0081,0.9994,0.9994,0.9994,1.0038,0.9994,0.9994,0.9994,0.9994,0.9994,0.9994,0.9994,0.9994,0.9999,1.0013,1.018,1.0284,1.0384,1.0428,1.0452,1.0364,1.0165,0.9817,0.9571,0.9195,0.9074,0.9026,0.9205,0.9244,0.9244,0.889,0.854,0.8588,0.8548,0.85,0.8496,0.9157,0.9772,0.9728,2.0615,2.0615,2.0615,2.0615,2.0615,2.0615,2.0615,2.0615,2.0615,2.0615,2.0615,2.0615,2.0615,2.0615,2.0566,2.0235,1.9638,1.9599,1.9402,1.9134,1.9045,1.8536,1.7813,1.7261,1.6976,1.6689,1.6689,1.6689,1.6689,1.6689,1.6689,1.6689,1.6607,1.6454,1.6233,1.5675,1.4884,1.4423,1.3777,1.3292,1.277,1.2354,1.2022,1.1744,1.1223,1.085,1.0674,1.0285,1.011,1.0159,1.0223,1.0332,1.0304,1.039,1.0433,1.0433,1.0394,1.0541,1.0729,1.0783,1.0891,1.1101,1.1252,1.1295,1.1267,1.1305,1.1289,1.116,1.1241,1.116,1.1064,1.1069,1.1041,1.0868,1.0694,1.0521,1.0299,1.0207,1.0125,1.0081,1.0038,0.9994,0.9994,0.9994,0.9994,0.9994,0.9994,0.9994,0.9994,1.0009,1.0066,1.0232,1.0374,1.046,1.06,1.0643,1.0531,1.0371,1.0394,1.0287,1.0186,1.012,1.012,1.0076,1.0188,1.0135,0.9708,0.9354,0.9161,0.9117,0.9069,0.92,0.9728,0.9994,0.9994,2.0644,2.0673,2.0644,2.0615,2.0615,2.0615,2.0615,2.0615,2.0615,2.0615,2.0615,2.0615,2.0615,2.0615,2.0576,2.0284,1.9717,1.9805,1.9766,1.9726,1.9648,1.9204,1.8175,1.7902,1.7456,1.7017,1.6853,1.6771,1.673,1.6689,1.6689,1.6689,1.6689,1.6499,1.6261,1.6087,1.5475,1.4653,1.4306,1.3815,1.3205,1.287,1.2666,1.2482,1.207,1.1811,1.1496,1.0989,1.0401,1.0121,1.0236,1.0316,1.032,1.0509,1.0606,1.0668,1.073,1.0925,1.1048,1.1158,1.1293,1.1512,1.1638,1.1499,1.1595,1.1653,1.1564,1.1372,1.1319,1.1424,1.1475,1.1459,1.1585,1.1521,1.1305,1.1084,1.0857,1.0554,1.0337,1.0294,1.0164,1.0077,0.9994,0.9994,0.9994,0.9994,0.9994,0.9994,1.0028,1.0075,1.0151,1.023,1.0403,1.0557,1.0709,1.0809,1.0653,1.0488,1.0642,1.0627,1.0632,1.0612,1.0767,1.0855,1.0906,1.0803,1.0484,1.0153,0.9848,0.9602,0.951,0.9641,0.982,0.9951,0.9994,2.076,2.1041,2.0722,2.0615,2.0615,2.0615,2.0615,2.0615,2.0615,2.0615,2.0615,2.0615,2.0615,2.0615,2.0605,2.0479,2.0323,2.0333,2.0362,2.0401,2.0586,2.0098,1.9253,1.8776,1.8135,1.7659,1.7489,1.7212,1.6853,1.6771,1.6689,1.6689,1.6673,1.6507,1.6206,1.592,1.5572,1.504,1.4684,1.4418,1.4139,1.3754,1.3564,1.3419,1.2746,1.2278,1.21,1.1683,1.139,1.119,1.0747,1.0417,1.0561,1.1061,1.118,1.0989,1.1332,1.1699,1.1756,1.1804,1.2034,1.2445,1.259,1.2832,1.2575,1.248,1.2352,1.2186,1.2134,1.2133,1.2288,1.271,1.2705,1.2553,1.2314,1.2069,1.1892,1.1198,1.0598,1.0381,1.0294,1.0164,1.0038,1.0057,1.0052,0.9999,1.0009,1.0004,1.0119,1.0219,1.0343,1.0476,1.0709,1.0932,1.0959,1.1059,1.0983,1.0854,1.099,1.1073,1.1073,1.1249,1.142,1.1534,1.1597,1.1415,1.1047,1.0752,1.0391,1.0149,0.9912,0.9907,0.9951,0.9994,1.012,2.13,2.1436,2.1041,2.0886,2.0848,2.0683,2.0615,2.0615,2.0615,2.0615,2.0615,2.0615,2.0615,2.0615,2.0615,2.0605,2.0615,2.0605,2.0644,2.0731,2.0829,2.0625,2.0372,1.9893,1.9371,1.8416,1.8287,1.7893,1.7375,1.7212,1.7131,1.6689,1.6689,1.638,1.6023,1.5816,1.5487,1.5109,1.4868,1.4784,1.4784,1.4808,1.4652,1.4462,1.3807,1.3395,1.3368,1.2432,1.2218,1.2072,1.152,1.1018,1.1152,1.1684,1.177,1.1663,1.1821,1.2286,1.234,1.2286,1.2372,1.2905,1.2969,1.282,1.2732,1.2653,1.2555,1.2345,1.2311,1.2468,1.2653,1.294,1.3127,1.3142,1.3013,1.2875,1.2662,1.1682,1.0824,1.0646,1.0559,1.0467,1.0347,1.0338,1.0304,1.0377,1.0343,1.0348,1.0571,1.0673,1.0719,1.0922,1.114,1.1318,1.1283,1.1348,1.1394,1.138,1.14,1.1535,1.1639,1.1868,1.2156,1.2032,1.1871,1.1767,1.1467,1.1196,1.0811,1.0485,1.025,1.0129,1.0038,1.0038,1.0207,2.1845,2.1845,2.1397,2.1215,2.1128,2.076,2.0644,2.0731,2.0683,2.0731,2.0683,2.0683,2.0731,2.0654,2.0722,2.0722,2.076,2.076,2.0925,2.0945,2.1012,2.0974,2.0896,2.077,2.0411,1.9173,1.9125,1.8727,1.8207,1.7917,1.7602,1.7049,1.6812,1.6557,1.6037,1.5899,1.5759,1.5332,1.5272,1.5304,1.5404,1.5634,1.5651,1.5405,1.5012,1.4626,1.4299,1.3528,1.2966,1.3411,1.2617,1.2348,1.2407,1.244,1.2447,1.2414,1.2492,1.2707,1.2862,1.2745,1.2747,1.3052,1.2959,1.2744,1.2785,1.2824,1.2726,1.2615,1.2615,1.2772,1.2706,1.3146,1.3249,1.3227,1.338,1.3365,1.3144,1.2111,1.1536,1.1386,1.1419,1.137,1.1029,1.0863,1.078,1.0686,1.0692,1.0716,1.0925,1.1056,1.1106,1.1296,1.1569,1.1877,1.1896,1.1721,1.1765,1.175,1.1811,1.1849,1.1978,1.1973,1.2078,1.2105,1.1984,1.1836,1.165,1.1285,1.0936,1.0687,1.0436,1.0251,1.0125,1.0081,1.0381,2.1987,2.2214,2.1502,2.1215,2.1128,2.076,2.0799,2.1079,2.1089,2.1128,2.1069,2.1069,2.0972,2.0915,2.1041,2.1205,2.1252,2.1272,2.1233,2.1205,2.1282,2.1282,2.1205,2.1282,2.1041,2.0731,2.0323,1.9668,1.8957,1.8399,1.8198,1.7934,1.7456,1.6991,1.683,1.6684,1.6561,1.6113,1.6055,1.6092,1.6096,1.6179,1.6213,1.6021,1.5712,1.5446,1.508,1.4605,1.4434,1.4764,1.4305,1.4074,1.3825,1.3335,1.2913,1.2733,1.2929,1.3198,1.3286,1.3265,1.3581,1.4044,1.4006,1.385,1.3708,1.3622,1.3337,1.3306,1.3407,1.3675,1.3765,1.3843,1.4116,1.4087,1.3732,1.3521,1.336,1.3028,1.2679,1.2711,1.2601,1.232,1.1942,1.1576,1.1437,1.1261,1.1125,1.1106,1.1252,1.1338,1.1343,1.1633,1.2001,1.2309,1.2576,1.2331,1.2209,1.2145,1.2065,1.1925,1.1941,1.1833,1.1822,1.1844,1.1876,1.177,1.1557,1.1308,1.1069,1.0804,1.0533,1.0337,1.0467,1.0641,1.0982,2.2515,2.2617,2.2063,2.1807,2.1769,2.1377,2.131,2.1502,2.1502,2.1369,2.1206,2.1155,2.108,2.1052,2.109,2.1343,2.1576,2.154,2.1425,2.1397,2.1425,2.155,2.154,2.1617,2.1731,2.1645,2.1328,2.0615,1.9825,1.9511,1.9067,1.8758,1.8399,1.8127,1.7926,1.7907,1.7522,1.7139,1.6994,1.6834,1.6678,1.6758,1.6797,1.656,1.6378,1.6088,1.5535,1.5133,1.4992,1.5049,1.4689,1.4548,1.432,1.3955,1.3351,1.3137,1.3279,1.3546,1.361,1.3581,1.3701,1.4096,1.4092,1.3916,1.3784,1.3674,1.3704,1.3594,1.3572,1.3726,1.3703,1.4071,1.4225,1.4245,1.403,1.403,1.4067,1.3986,1.396,1.3946,1.3451,1.3094,1.282,1.2486,1.2216,1.1932,1.1622,1.1597,1.1645,1.1625,1.1697,1.1765,1.2057,1.2278,1.2528,1.2474,1.2377,1.2344,1.2226,1.2032,1.2021,1.1923,1.1738,1.1612,1.16,1.1915,1.1666,1.1484,1.123,1.1007,1.0891,1.0878,1.103,1.1278,1.166,2.3001,2.2964,2.2553,2.2392,2.2327,2.1959,2.1845,2.1911,2.1921,2.1724,2.1401,2.1391,2.1375,2.1343,2.1432,2.1626,2.1949,2.1759,2.1655,2.1655,2.1655,2.1731,2.1883,2.2073,2.2176,2.2225,2.2101,2.1596,2.0818,2.0382,2.006,1.9708,1.9541,1.9293,1.9005,1.8957,1.853,1.8306,1.7895,1.7629,1.7333,1.7398,1.7355,1.697,1.6918,1.6513,1.582,1.5505,1.5386,1.5317,1.5041,1.4712,1.4581,1.4206,1.3821,1.3579,1.3492,1.3653,1.3733,1.3667,1.3608,1.385,1.3645,1.3543,1.3557,1.3587,1.3587,1.3564,1.3652,1.363,1.3682,1.3844,1.4014,1.4078,1.4269,1.4504,1.4612,1.4673,1.4722,1.4545,1.4134,1.3822,1.358,1.3406,1.3139,1.2808,1.2505,1.2271,1.2298,1.2089,1.2037,1.1886,1.1972,1.2103,1.2287,1.2334,1.2291,1.2354,1.2151,1.1957,1.1988,1.2069,1.1893,1.1876,1.2228,1.2463,1.2092,1.1795,1.1712,1.1603,1.144,1.1581,1.1972,1.2303,1.2644,2.3001,2.2964,2.2601,2.2392,2.2392,2.2063,2.2063,2.2354,2.2402,2.2306,2.2264,2.2237,2.212,2.2008,2.2152,2.2376,2.2392,2.2214,2.1956,2.1903,2.1914,2.192,2.2038,2.2289,2.2296,2.236,2.2339,2.2214,2.1672,2.0972,2.0702,2.0576,2.0138,1.967,1.9956,2.0004,1.9818,1.9762,1.9157,1.8527,1.8051,1.7974,1.763,1.7145,1.6905,1.6604,1.5961,1.5699,1.5757,1.5975,1.5707,1.5389,1.5104,1.468,1.4111,1.3697,1.3499,1.3514,1.3601,1.3536,1.3543,1.3645,1.3565,1.3492,1.3601,1.3681,1.3754,1.3754,1.3884,1.392,1.3826,1.3952,1.4036,1.4119,1.4258,1.4427,1.4616,1.4834,1.498,1.5133,1.4712,1.4552,1.4328,1.4242,1.4083,1.3718,1.3361,1.3163,1.2886,1.2649,1.2504,1.2383,1.2422,1.2563,1.2687,1.2636,1.2646,1.2603,1.2419,1.222,1.2316,1.2499,1.2418,1.2506,1.2861,1.2835,1.2292,1.2122,1.2236,1.2287,1.2307,1.2625,1.3118,1.3408,1.3662,2.3187,2.3494,2.3335,2.3434,2.3632,2.3176,2.3276,2.357,2.3398,2.3279,2.3237,2.295,2.2634,2.239,2.2563,2.2692,2.2665,2.2494,2.2195,2.1919,2.1877,2.1808,2.1684,2.1756,2.1893,2.2246,2.2262,2.2339,2.2098,2.1977,2.1672,2.1624,2.1395,2.127,2.1106,2.1308,2.1145,2.0701,1.9972,1.9332,1.9183,1.889,1.835,1.7508,1.7464,1.6876,1.6118,1.5814,1.5865,1.5956,1.5696,1.548,1.5218,1.4884,1.4486,1.4111,1.4101,1.3928,1.3608,1.3528,1.3572,1.3652,1.3681,1.371,1.3811,1.392,1.3964,1.3964,1.4065,1.4072,1.4061,1.4109,1.4141,1.4238,1.4599,1.4669,1.4845,1.4819,1.4973,1.5133,1.5279,1.5081,1.4915,1.4853,1.4621,1.424,1.3959,1.3731,1.3423,1.312,1.3003,1.2927,1.3033,1.3126,1.3261,1.3354,1.3399,1.3407,1.3407,1.3204,1.3081,1.3056,1.301,1.2991,1.3205,1.2979,1.2503,1.2637,1.2948,1.3058,1.3209,1.3626,1.4084,1.4503,1.4796,2.3652,2.4286,2.4043,2.4202,2.4683,2.4274,2.4299,2.4612,2.4274,2.4103,2.4014,2.3614,2.3125,2.2797,2.2874,2.2813,2.2583,2.2557,2.2155,2.1778,2.1607,2.1503,2.1435,2.1444,2.168,2.2102,2.2169,2.2269,2.2444,2.2478,2.2429,2.2402,2.2166,2.2252,2.2327,2.2203,2.1939,2.1346,2.0644,2.0265,2.0118,1.9726,1.913,1.8608,1.8145,1.7632,1.6429,1.6236,1.6244,1.5787,1.6066,1.6019,1.5715,1.5732,1.5571,1.5273,1.5188,1.4911,1.4453,1.4129,1.3855,1.3826,1.3899,1.392,1.4021,1.4129,1.431,1.4418,1.4274,1.4348,1.4501,1.4698,1.4923,1.5163,1.5358,1.537,1.5406,1.5529,1.5449,1.5378,1.5496,1.5428,1.534,1.5347,1.5138,1.479,1.4489,1.4279,1.399,1.3616,1.34,1.3304,1.3324,1.3411,1.3498,1.3693,1.3901,1.4097,1.4097,1.392,1.3554,1.3633,1.3739,1.3704,1.3779,1.3977,1.4013,1.3851,1.3682,1.3886,1.4139,1.4559,1.4977,1.5394,1.5726,2.4553,2.5394,2.4358,2.4274,2.4743,2.4671,2.4683,2.4862,2.4707,2.466,2.4613,2.4062,2.3741,2.3543,2.2981,2.2652,2.2331,2.2118,2.1779,2.1485,2.1344,2.1269,2.1209,2.1257,2.1492,2.1712,2.1939,2.2165,2.2451,2.277,2.266,2.2478,2.2515,2.244,2.244,2.2478,2.2241,2.1814,2.1423,2.1106,2.0769,2.0353,1.9976,1.9621,1.9259,1.863,1.7307,1.7207,1.6965,1.6289,1.6777,1.6902,1.6696,1.6938,1.6902,1.6447,1.6298,1.6034,1.57,1.4974,1.4382,1.4165,1.4238,1.4418,1.4553,1.4418,1.4597,1.5106,1.5067,1.5178,1.5495,1.5844,1.6145,1.6294,1.6493,1.6643,1.6613,1.6466,1.6308,1.5876,1.5665,1.5631,1.5631,1.5639,1.5472,1.509,1.4999,1.479,1.4447,1.4117,1.3779,1.3636,1.3593,1.3589,1.354,1.3765,1.4196,1.4266,1.4253,1.4051,1.3743,1.3952,1.4452,1.4628,1.4734,1.5151,1.536,1.4901,1.465,1.4776,1.5019,1.5394,1.5692,1.6064,1.627,2.4897,2.5535,2.5111,2.5276,2.5769,2.5418,2.5488,2.5699,2.5406,2.5229,2.5158,2.4402,2.3778,2.3328,2.2548,2.2051,2.1876,2.1784,2.1444,2.1183,2.1065,2.0868,2.0771,2.0728,2.0828,2.1222,2.1636,2.2084,2.2357,2.2772,2.2909,2.2815,2.274,2.2777,2.2788,2.274,2.258,2.2392,2.2166,2.1814,2.189,2.1375,2.0887,2.0299,2.0222,1.9471,1.8458,1.8264,1.797,1.7823,1.7951,1.7823,1.7667,1.804,1.7883,1.7417,1.7287,1.7197,1.6716,1.6026,1.5604,1.5666,1.5631,1.5569,1.5471,1.5657,1.5798,1.6061,1.6209,1.6337,1.6748,1.7243,1.7588,1.7648,1.7778,1.7968,1.7783,1.7577,1.7155,1.6673,1.6196,1.5922,1.588,1.5846,1.5639,1.5431,1.5389,1.5298,1.4915,1.4706,1.4412,1.4286,1.4286,1.4328,1.4377,1.4461,1.4587,1.4538,1.4496,1.4447,1.4398,1.4866,1.5305,1.5492,1.556,1.5718,1.5718,1.5616,1.5533,1.5533,1.5733,1.6105,1.6443,1.6607,1.6648,2.5488,2.5851,2.5898,2.6107,2.6418,2.6037,2.6107,2.6358,2.5827,2.546,2.5291,2.4366,2.3675,2.3052,2.2303,2.1633,2.1498,2.1341,2.1057,2.0817,2.0598,2.0435,2.0227,2.0194,2.0401,2.0751,2.1308,2.1822,2.2062,2.2695,2.2909,2.3001,2.3001,2.2964,2.2964,2.3001,2.3001,2.2889,2.2703,2.2478,2.2665,2.2268,2.1903,2.1298,2.1213,2.038,1.9494,1.9025,1.867,1.8447,1.8445,1.8572,1.8643,1.8715,1.8682,1.8405,1.8195,1.8234,1.7615,1.6897,1.6576,1.6472,1.6541,1.6559,1.6698,1.6716,1.663,1.7154,1.7401,1.7649,1.795,1.848,1.8755,1.883,1.9297,1.9425,1.8863,1.851,1.7997,1.7489,1.709,1.6771,1.6286,1.6245,1.5914,1.5707,1.5582,1.5465,1.5264,1.5131,1.5131,1.509,1.5097,1.5222,1.5347,1.5131,1.4957,1.5041,1.5082,1.5284,1.5401,1.5718,1.576,1.5628,1.5766,1.6029,1.6044,1.5965,1.6011,1.6162,1.636,1.6484,1.6566,1.6648,1.6689,2.6418,2.6487,2.6452,2.6452,2.6487,2.6487,2.6452,2.6336,2.5803,2.5286,2.4838,2.416,2.3637,2.3112,2.2422,2.1756,2.1252,2.1051,2.0853,2.0577,2.0346,2.0172,2.0129,2.0118,2.0074,2.0347,2.1125,2.1754,2.1726,2.2732,2.3036,2.3001,2.3001,2.3001,2.3001,2.3001,2.3001,2.3001,2.2927,2.2927,2.2889,2.2703,2.2489,2.2344,2.2152,2.1333,2.0368,1.9978,1.9455,1.8662,1.8901,1.9017,1.9028,1.9793,1.9875,1.9526,1.9616,1.9476,1.899,1.7691,1.7207,1.7173,1.731,1.7217,1.7044,1.71,1.7439,1.8123,1.8204,1.8502,1.9039,1.9639,1.986,2.0072,2.0498,2.0479,1.9913,1.9304,1.8758,1.8367,1.8215,1.7934,1.7164,1.6599,1.6229,1.5982,1.5775,1.5616,1.5506,1.5431,1.5431,1.5389,1.5389,1.5389,1.5431,1.5465,1.5423,1.5465,1.5609,1.5786,1.5865,1.5942,1.5917,1.5763,1.5893,1.6093,1.6211,1.6282,1.6335,1.6388,1.6517,1.6648,1.6689,1.6771,1.6894,2.6487,2.6487,2.6487,2.6487,2.6487,2.6487,2.6285,2.5837,2.5335,2.4951,2.4628,2.3875,2.3377,2.297,2.2333,2.1691,2.1413,2.1344,2.1161,2.104,2.0502,2.0454,2.0392,2.0091,1.9877,2.0424,2.1295,2.1918,2.1625,2.2869,2.3184,2.3113,2.3001,2.3001,2.3001,2.3001,2.3001,2.3001,2.3001,2.3001,2.2964,2.2927,2.2852,2.274,2.2628,2.2025,2.1058,2.0876,2.0186,1.9339,1.9701,1.9585,1.963,2.0312,2.0472,2.0176,2.0155,2.0286,1.9675,1.8795,1.8428,1.8293,1.8148,1.8046,1.8158,1.8488,1.8825,1.9173,1.9455,1.9879,2.0505,2.0916,2.1092,2.1018,2.1185,2.1118,2.0673,2.006,1.9502,1.9234,1.9045,1.8807,1.8238,1.7683,1.7237,1.6829,1.6665,1.6023,1.5748,1.5506,1.5423,1.5431,1.5389,1.5389,1.5431,1.5673,1.5786,1.579,1.5973,1.6188,1.6223,1.613,1.6079,1.596,1.6015,1.6125,1.6308,1.6461,1.6451,1.6522,1.6887,1.6935,1.6853,1.7098,1.7416,2.6487,2.6487,2.6487,2.6373,2.621,2.6185,2.5783,2.5084,2.4682,2.4412,2.4073,2.3417,2.3063,2.2735,2.2255,2.1721,2.1647,2.1585,2.1596,2.1514,2.0792,2.0672,2.0529,2.0242,2.0276,2.0743,2.1698,2.2423,2.1973,2.323,2.3463,2.3113,2.3001,2.3001,2.3001,2.3001,2.3001,2.3001,2.3001,2.3001,2.3001,2.2964,2.2927,2.2852,2.2713,2.2455,2.1932,2.1509,2.1121,2.0656,2.0233,2.0024,2.0052,2.0286,2.0534,2.0379,2.0203,2.0307,1.9779,1.9313,1.9044,1.9209,1.9088,1.8918,1.899,1.9196,1.9512,1.9985,2.0679,2.1056,2.1325,2.1725,2.169,2.1578,2.154,2.1436,2.1233,2.0615,2.0382,2.0118,1.9962,1.9678,1.9323,1.8847,1.8359,1.7957,1.7545,1.687,1.6229,1.5948,1.579,1.5748,1.5782,1.5891,1.5982,1.6162,1.6183,1.6131,1.6297,1.6493,1.6277,1.6102,1.6118,1.6109,1.6067,1.6165,1.6419,1.6583,1.6852,1.7185,1.7585,1.7497,1.7139,1.7416,1.7893,2.6487,2.6487,2.6474,2.6135,2.5649,2.5561,2.4946,2.4054,2.4004,2.3659,2.3128,2.3178,2.2965,2.2561,2.2408,2.2199,2.1908,2.1834,2.1763,2.1535,2.1043,2.0917,2.0775,2.0631,2.0537,2.1226,2.2166,2.2911,2.2525,2.3434,2.3607,2.315,2.3065,2.3038,2.3038,2.3001,2.3001,2.3001,2.3001,2.3001,2.3001,2.3001,2.3001,2.2964,2.2883,2.2618,2.2103,2.1629,2.1047,2.0427,1.9813,1.9742,1.9848,2.0213,2.0358,2.0358,2.0155,1.999,1.9876,1.9513,1.9523,1.972,1.9448,1.923,1.9365,1.9744,2.0091,2.0432,2.0953,2.1325,2.1704,2.1756,2.1759,2.1731,2.1731,2.1655,2.154,2.13,2.1195,2.1079,2.0964,2.0683,2.0245,1.9805,1.9323,1.9155,1.874,1.8189,1.7513,1.6804,1.6599,1.6345,1.6412,1.6503,1.6569,1.6482,1.6459,1.6365,1.6491,1.6614,1.6376,1.6327,1.6401,1.64,1.6129,1.6173,1.6543,1.6987,1.7492,1.7816,1.8134,1.8135,1.7813,1.8006,1.8407,2.6487,2.6449,2.6013,2.5749,2.5498,2.477,2.4268,2.3966,2.359,2.3221,2.3095,2.3095,2.3017,2.2896,2.2884,2.2763,2.2763,2.2731,2.2484,2.2044,2.138,2.1003,2.0774,2.0676,2.0641,2.1386,2.2376,2.3335,2.3188,2.379,2.3776,2.3298,2.3176,2.315,2.3075,2.3038,2.3038,2.3038,2.3038,2.3038,2.3038,2.3038,2.3038,2.3038,2.3038,2.2713,2.2328,2.1955,2.1424,2.0979,2.053,2.0313,2.0033,2.0559,2.0907,2.0866,2.0545,2.0245,2.0213,2.011,2.0079,2.0172,2.0069,2.0079,2.0162,2.0379,2.071,2.0881,2.1191,2.1611,2.1745,2.1787,2.1807,2.1807,2.1807,2.1731,2.1655,2.1578,2.1502,2.1436,2.1359,2.1272,2.0876,2.0595,2.0196,2.0187,1.9943,1.9423,1.8829,1.8078,1.7602,1.735,1.7147,1.7259,1.6772,1.6562,1.6586,1.6607,1.6899,1.7179,1.7264,1.7209,1.6991,1.6804,1.6659,1.6633,1.6729,1.7301,1.797,1.8264,1.8517,1.8541,1.8607,1.8847,1.9116,2.6553,2.6291,2.5816,2.536,2.4845,2.4029,2.3634,2.3559,2.3246,2.3095,2.3095,2.3095,2.3138,2.321,2.3138,2.3138,2.3258,2.3215,2.2976,2.2334,2.17,2.1396,2.1059,2.097,2.1259,2.1964,2.279,2.3745,2.3673,2.378,2.3824,2.3593,2.3409,2.3261,2.3187,2.3224,2.3272,2.3187,2.315,2.3113,2.315,2.315,2.315,2.3187,2.315,2.2926,2.2696,2.2419,2.1959,2.1585,2.1169,2.0974,2.0828,2.1326,2.1397,2.1293,2.0885,2.0683,2.0643,2.0462,2.0498,2.0602,2.069,2.084,2.0902,2.1084,2.1052,2.1098,2.147,2.1807,2.1807,2.1807,2.1807,2.1807,2.1807,2.1807,2.1731,2.1693,2.1655,2.1617,2.1578,2.154,2.1377,2.1185,2.1069,2.1059,2.0934,2.0576,1.9982,1.9265,1.8829,1.859,1.825,1.8048,1.7497,1.7201,1.7476,1.7703,1.7899,1.8143,1.8241,1.7993,1.7686,1.746,1.7233,1.7378,1.7632,1.7944,1.8462,1.8852,1.9409,1.9686,1.975,1.9717,2.0001,2.6686,2.6074,2.5696,2.4962,2.4022,2.348,2.3236,2.3138,2.321,2.3125,2.3138,2.3138,2.3241,2.3343,2.3258,2.333,2.345,2.3467,2.3056,2.2598,2.2204,2.1789,2.1506,2.1767,2.199,2.2761,2.3444,2.4016,2.4068,2.4318,2.4491,2.3995,2.3692,2.3534,2.3545,2.3482,2.3629,2.3973,2.3618,2.3398,2.3446,2.3446,2.3409,2.3519,2.3446,2.329,2.3239,2.2871,2.2357,2.2085,2.193,2.1879,2.2196,2.2081,2.1944,2.1782,2.145,2.1101,2.1016,2.0909,2.0881,2.1011,2.1145,2.1385,2.1505,2.1458,2.1342,2.14,2.1759,2.1797,2.1807,2.1807,2.1807,2.1807,2.1807,2.1807,2.1769,2.1731,2.1731,2.1693,2.1693,2.1693,2.1655,2.1464,2.1415,2.1655,2.1606,2.1328,2.1011,2.0294,1.9904,1.9571,1.9084,1.8763,1.8722,1.8519,1.8758,1.8957,1.8976,1.9061,1.9117,1.8779,1.8341,1.8229,1.819,1.8471,1.8732,1.9076,1.9553,2.0292,2.0777,2.1052,2.1012,2.0778,2.0712,2.6886,2.6063,2.5362,2.468,2.4085,2.3811,2.37,2.37,2.3539,2.3407,2.333,2.3343,2.3343,2.3403,2.3437,2.3509,2.3492,2.3487,2.2972,2.2585,2.2321,2.2025,2.1624,2.2193,2.2619,2.2961,2.3523,2.4309,2.4606,2.5097,2.5252,2.4612,2.436,2.4324,2.407,2.3984,2.4154,2.4683,2.4396,2.3936,2.3813,2.3666,2.3556,2.3629,2.3604,2.3863,2.3818,2.3638,2.3598,2.365,2.3568,2.3701,2.4009,2.304,2.2637,2.2604,2.2309,2.1889,2.1653,2.1724,2.1847,2.1518,2.1569,2.1799,2.1866,2.1738,2.1717,2.1824,2.1817,2.1804,2.1807,2.1807,2.1807,2.1807,2.1807,2.1807,2.1807,2.1807,2.1807,2.1807,2.1807,2.1807,2.1807,2.1807,2.1807,2.1769,2.1769,2.1655,2.1606,2.1175,2.0615,2.0197,1.964,1.9364,1.944,1.963,1.9761,1.9655,1.9531,1.9714,1.9965,1.9753,1.9455,1.9257,1.9214,1.9553,1.9925,2.033,2.0882,2.1397,2.1572,2.1636,2.1809,2.1662,2.153,2.6915,2.6087,2.5105,2.4478,2.4099,2.3966,2.3936,2.3923,2.3717,2.3658,2.3658,2.3582,2.3522,2.3552,2.3599,2.3662,2.3594,2.3447,2.3048,2.2662,2.239,2.2249,2.2343,2.2644,2.3015,2.3389,2.4142,2.4822,2.517,2.5766,2.5884,2.5452,2.5381,2.5134,2.4814,2.4683,2.4826,2.5252,2.5099,2.4898,2.4515,2.4515,2.4335,2.4335,2.4443,2.4647,2.4647,2.4551,2.4576,2.4743,2.4684,2.4555,2.4587,2.4114,2.3747,2.3661,2.3433,2.311,2.288,2.2863,2.308,2.2743,2.2816,2.3345,2.3503,2.3374,2.2595,2.2542,2.1897,2.1807,2.1807,2.1807,2.1807,2.1807,2.1807,2.1807,2.1807,2.1807,2.1807,2.1807,2.1807,2.1807,2.1807,2.1807,2.1807,2.1807,2.1807,2.1807,2.1807,2.1787,2.127,2.0864,2.0329,1.9993,1.9996,2.0232,2.0502,2.0344,2.017,2.0325,2.0582,2.0703,2.0647,2.0332,2.0306,2.069,2.1073,2.1271,2.1512,2.1897,2.2035,2.2083,2.2254,2.2402,2.2138,2.6952,2.6115,2.5047,2.4436,2.4218,2.407,2.4099,2.4131,2.3881,2.3894,2.4099,2.3865,2.3835,2.3819,2.3806,2.3872,2.3826,2.3615,2.3207,2.2721,2.2592,2.2618,2.2855,2.3158,2.3495,2.4105,2.4864,2.5145,2.5378,2.622,2.6756,2.6552,2.6242,2.5953,2.5674,2.5662,2.5975,2.5918,2.5884,2.5953,2.5884,2.5779,2.5394,2.5323,2.5417,2.5662,2.5639,2.5511,2.5406,2.5511,2.5639,2.5618,2.5484,2.5282,2.5094,2.492,2.4669,2.4468,2.4408,2.4353,2.4413,2.4472,2.4673,2.4767,2.485,2.4457,2.3672,2.3206,2.2596,2.2128,2.2128,2.2014,2.2025,2.1845,2.1845,2.1845,2.1845,2.1845,2.1845,2.1845,2.1845,2.1845,2.1845,2.1845,2.1807,2.1807,2.1807,2.1807,2.1797,2.1756,2.1497,2.1362,2.1126,2.0849,2.0674,2.0796,2.1107,2.1107,2.0954,2.1082,2.1185,2.1227,2.1263,2.1275,2.1349,2.1559,2.1742,2.1903,2.2152,2.236,2.244,2.2472,2.2547,2.2628,2.2515,2.7314,2.5907,2.5204,2.4892,2.4806,2.4664,2.4649,2.4635,2.4476,2.4447,2.4447,2.4447,2.4332,2.407,2.4173,2.4071,2.3723,2.3616,2.3061,2.2457,2.3056,2.3212,2.3332,2.3657,2.3958,2.4521,2.5236,2.5792,2.5968,2.6974,2.749,2.7095,2.7061,2.6892,2.6778,2.6744,2.6607,2.6607,2.662,2.6654,2.6427,2.622,2.5884,2.5779,2.5791,2.6117,2.6233,2.6,2.6104,2.6289,2.6461,2.6565,2.6557,2.6422,2.6215,2.6026,2.5803,2.5405,2.531,2.533,2.5303,2.4856,2.4964,2.5169,2.5169,2.5087,2.466,2.4708,2.4108,2.3463,2.329,2.2984,2.2835,2.2306,2.2052,2.2063,2.2063,2.2025,2.1997,2.1997,2.1997,2.1997,2.2035,2.1997,2.1883,2.1883,2.1845,2.1845,2.1921,2.1821,2.1683,2.1721,2.1711,2.1714,2.1521,2.1414,2.1597,2.1656,2.1666,2.1614,2.1617,2.1655,2.1731,2.1731,2.1959,2.2178,2.2334,2.2381,2.2595,2.2761,2.282,2.2883,2.2889,2.2889,2.2852]}]]